<?xml version="1.0" encoding="UTF-8" standalone="no" ?>
<gpx xmlns="http://www.topografix.com/GPX/1/1" xmlns:xsi="http://www.w3.org/2001/XMLSchema-instance" xsi:schemaLocation="http://www.topografix.com/GPX/1/1 http://www.topografix.com/GPX/1/1/gpx.xsd" version="1.1" creator="VisuGPX - https://www.visugpx.com">
  <metadata>
    <name>Boissy-L'Aillery -Marines - US (95)</name>
    <desc><![CDATA[Randonnée de 22 km en ligne à partir de la gare de Boissy-l'Aillery. Retour par la gare d'US (95)]]></desc>
  </metadata>
  <trk>
    <name><![CDATA[Boissy - US_R]]></name>
    <trkseg>
      <trkpt lat="49.07593" lon="2.02522">
        <ele>35.84</ele>
        <time>2018-02-18T08:22:25Z</time>
      </trkpt>
      <trkpt lat="49.07594" lon="2.02522">
        <ele>35.81</ele>
        <time>2018-02-18T08:27:43Z</time>
      </trkpt>
      <trkpt lat="49.07602" lon="2.0252">
        <ele>36.07</ele>
        <time>2018-02-18T08:28:17Z</time>
      </trkpt>
      <trkpt lat="49.07617" lon="2.02516">
        <ele>38.24</ele>
        <time>2018-02-18T08:28:35Z</time>
      </trkpt>
      <trkpt lat="49.07628" lon="2.02521">
        <ele>39.27</ele>
        <time>2018-02-18T08:28:50Z</time>
      </trkpt>
      <trkpt lat="49.0763" lon="2.0251">
        <ele>40.42</ele>
        <time>2018-02-18T08:29:02Z</time>
      </trkpt>
      <trkpt lat="49.07631" lon="2.02508">
        <ele>40.82</ele>
        <time>2018-02-18T08:29:03Z</time>
      </trkpt>
      <trkpt lat="49.07632" lon="2.02506">
        <ele>40.82</ele>
        <time>2018-02-18T08:29:04Z</time>
      </trkpt>
      <trkpt lat="49.07632" lon="2.02505">
        <ele>40.82</ele>
        <time>2018-02-18T08:29:05Z</time>
      </trkpt>
      <trkpt lat="49.07632" lon="2.02503">
        <ele>40.8</ele>
        <time>2018-02-18T08:29:06Z</time>
      </trkpt>
      <trkpt lat="49.07632" lon="2.02501">
        <ele>40.79</ele>
        <time>2018-02-18T08:29:07Z</time>
      </trkpt>
      <trkpt lat="49.07634" lon="2.02479">
        <ele>41.75</ele>
        <time>2018-02-18T08:29:23Z</time>
      </trkpt>
      <trkpt lat="49.07633" lon="2.02457">
        <ele>42.31</ele>
        <time>2018-02-18T08:29:40Z</time>
      </trkpt>
      <trkpt lat="49.07634" lon="2.02434">
        <ele>43.04</ele>
        <time>2018-02-18T08:29:54Z</time>
      </trkpt>
      <trkpt lat="49.07633" lon="2.02412">
        <ele>42.37</ele>
        <time>2018-02-18T08:30:07Z</time>
      </trkpt>
      <trkpt lat="49.07636" lon="2.02389">
        <ele>42.27</ele>
        <time>2018-02-18T08:30:20Z</time>
      </trkpt>
      <trkpt lat="49.07637" lon="2.02387">
        <ele>42.63</ele>
        <time>2018-02-18T08:30:21Z</time>
      </trkpt>
      <trkpt lat="49.07638" lon="2.02386">
        <ele>41.89</ele>
        <time>2018-02-18T08:30:22Z</time>
      </trkpt>
      <trkpt lat="49.07638" lon="2.02384">
        <ele>42.29</ele>
        <time>2018-02-18T08:30:23Z</time>
      </trkpt>
      <trkpt lat="49.07645" lon="2.02369">
        <ele>43.56</ele>
        <time>2018-02-18T08:30:34Z</time>
      </trkpt>
      <trkpt lat="49.07646" lon="2.02367">
        <ele>43.38</ele>
        <time>2018-02-18T08:30:35Z</time>
      </trkpt>
      <trkpt lat="49.07646" lon="2.02366">
        <ele>42.99</ele>
        <time>2018-02-18T08:30:36Z</time>
      </trkpt>
      <trkpt lat="49.07649" lon="2.02353">
        <ele>44.2</ele>
        <time>2018-02-18T08:30:44Z</time>
      </trkpt>
      <trkpt lat="49.0765" lon="2.0235">
        <ele>43.45</ele>
        <time>2018-02-18T08:30:46Z</time>
      </trkpt>
      <trkpt lat="49.0765" lon="2.02348">
        <ele>43.16</ele>
        <time>2018-02-18T08:30:47Z</time>
      </trkpt>
      <trkpt lat="49.07655" lon="2.02322">
        <ele>44.99</ele>
        <time>2018-02-18T08:31:03Z</time>
      </trkpt>
      <trkpt lat="49.07661" lon="2.02299">
        <ele>45.91</ele>
        <time>2018-02-18T08:31:18Z</time>
      </trkpt>
      <trkpt lat="49.07666" lon="2.02278">
        <ele>47.08</ele>
        <time>2018-02-18T08:31:30Z</time>
      </trkpt>
      <trkpt lat="49.07667" lon="2.02276">
        <ele>47.56</ele>
        <time>2018-02-18T08:31:31Z</time>
      </trkpt>
      <trkpt lat="49.07673" lon="2.02255">
        <ele>48.74</ele>
        <time>2018-02-18T08:31:45Z</time>
      </trkpt>
      <trkpt lat="49.07678" lon="2.02245">
        <ele>49.02</ele>
        <time>2018-02-18T08:31:52Z</time>
      </trkpt>
      <trkpt lat="49.07686" lon="2.02228">
        <ele>50.48</ele>
        <time>2018-02-18T08:32:07Z</time>
      </trkpt>
      <trkpt lat="49.07704" lon="2.02212">
        <ele>52.55</ele>
        <time>2018-02-18T08:32:25Z</time>
      </trkpt>
      <trkpt lat="49.07719" lon="2.0221">
        <ele>54.61</ele>
        <time>2018-02-18T08:32:42Z</time>
      </trkpt>
      <trkpt lat="49.07733" lon="2.02213">
        <ele>56.4</ele>
        <time>2018-02-18T08:32:57Z</time>
      </trkpt>
      <trkpt lat="49.07748" lon="2.02221">
        <ele>57.24</ele>
        <time>2018-02-18T08:33:10Z</time>
      </trkpt>
      <trkpt lat="49.07751" lon="2.02221">
        <ele>57.14</ele>
        <time>2018-02-18T08:33:12Z</time>
      </trkpt>
      <trkpt lat="49.07755" lon="2.02223">
        <ele>57.73</ele>
        <time>2018-02-18T08:33:16Z</time>
      </trkpt>
      <trkpt lat="49.07757" lon="2.02223">
        <ele>58.19</ele>
        <time>2018-02-18T08:33:17Z</time>
      </trkpt>
      <trkpt lat="49.07758" lon="2.02223">
        <ele>57.52</ele>
        <time>2018-02-18T08:33:18Z</time>
      </trkpt>
      <trkpt lat="49.07773" lon="2.0223">
        <ele>58.65</ele>
        <time>2018-02-18T08:33:32Z</time>
      </trkpt>
      <trkpt lat="49.07792" lon="2.02241">
        <ele>59.8</ele>
        <time>2018-02-18T08:33:51Z</time>
      </trkpt>
      <trkpt lat="49.07808" lon="2.02246">
        <ele>60.32</ele>
        <time>2018-02-18T08:34:04Z</time>
      </trkpt>
      <trkpt lat="49.07811" lon="2.02248">
        <ele>60.78</ele>
        <time>2018-02-18T08:34:07Z</time>
      </trkpt>
      <trkpt lat="49.07824" lon="2.02252">
        <ele>61.08</ele>
        <time>2018-02-18T08:34:20Z</time>
      </trkpt>
      <trkpt lat="49.07843" lon="2.02257">
        <ele>62</ele>
        <time>2018-02-18T08:34:36Z</time>
      </trkpt>
      <trkpt lat="49.07851" lon="2.02259">
        <ele>61.99</ele>
        <time>2018-02-18T08:34:43Z</time>
      </trkpt>
      <trkpt lat="49.07852" lon="2.02259">
        <ele>61.8</ele>
        <time>2018-02-18T08:34:44Z</time>
      </trkpt>
      <trkpt lat="49.07857" lon="2.02261">
        <ele>62.1</ele>
        <time>2018-02-18T08:34:48Z</time>
      </trkpt>
      <trkpt lat="49.07858" lon="2.02261">
        <ele>62.31</ele>
        <time>2018-02-18T08:34:49Z</time>
      </trkpt>
      <trkpt lat="49.07879" lon="2.02268">
        <ele>62.22</ele>
        <time>2018-02-18T08:35:05Z</time>
      </trkpt>
      <trkpt lat="49.07889" lon="2.02266">
        <ele>62.58</ele>
        <time>2018-02-18T08:35:15Z</time>
      </trkpt>
      <trkpt lat="49.0789" lon="2.02265">
        <ele>62.98</ele>
        <time>2018-02-18T08:35:16Z</time>
      </trkpt>
      <trkpt lat="49.07891" lon="2.02265">
        <ele>62.75</ele>
        <time>2018-02-18T08:35:17Z</time>
      </trkpt>
      <trkpt lat="49.07904" lon="2.02245">
        <ele>64.14</ele>
        <time>2018-02-18T08:35:33Z</time>
      </trkpt>
      <trkpt lat="49.07911" lon="2.0222">
        <ele>64.31</ele>
        <time>2018-02-18T08:35:50Z</time>
      </trkpt>
      <trkpt lat="49.07913" lon="2.0221">
        <ele>64.64</ele>
        <time>2018-02-18T08:35:58Z</time>
      </trkpt>
      <trkpt lat="49.07913" lon="2.02209">
        <ele>64.41</ele>
        <time>2018-02-18T08:35:59Z</time>
      </trkpt>
      <trkpt lat="49.07921" lon="2.02184">
        <ele>65.48</ele>
        <time>2018-02-18T08:36:14Z</time>
      </trkpt>
      <trkpt lat="49.07927" lon="2.02158">
        <ele>65.62</ele>
        <time>2018-02-18T08:36:29Z</time>
      </trkpt>
      <trkpt lat="49.07927" lon="2.02157">
        <ele>65.75</ele>
        <time>2018-02-18T08:36:30Z</time>
      </trkpt>
      <trkpt lat="49.07935" lon="2.02129">
        <ele>65.86</ele>
        <time>2018-02-18T08:36:47Z</time>
      </trkpt>
      <trkpt lat="49.07941" lon="2.02101">
        <ele>66.21</ele>
        <time>2018-02-18T08:37:04Z</time>
      </trkpt>
      <trkpt lat="49.07942" lon="2.02098">
        <ele>66.86</ele>
        <time>2018-02-18T08:37:06Z</time>
      </trkpt>
      <trkpt lat="49.07942" lon="2.02096">
        <ele>66.32</ele>
        <time>2018-02-18T08:37:07Z</time>
      </trkpt>
      <trkpt lat="49.07943" lon="2.02094">
        <ele>66.86</ele>
        <time>2018-02-18T08:37:08Z</time>
      </trkpt>
      <trkpt lat="49.07944" lon="2.0209">
        <ele>66.68</ele>
        <time>2018-02-18T08:37:11Z</time>
      </trkpt>
      <trkpt lat="49.0795" lon="2.02064">
        <ele>67.55</ele>
        <time>2018-02-18T08:37:27Z</time>
      </trkpt>
      <trkpt lat="49.07957" lon="2.02034">
        <ele>67.91</ele>
        <time>2018-02-18T08:37:45Z</time>
      </trkpt>
      <trkpt lat="49.07966" lon="2.02009">
        <ele>68.73</ele>
        <time>2018-02-18T08:38:02Z</time>
      </trkpt>
      <trkpt lat="49.07967" lon="2.02005">
        <ele>68.75</ele>
        <time>2018-02-18T08:38:05Z</time>
      </trkpt>
      <trkpt lat="49.07968" lon="2.02004">
        <ele>68.89</ele>
        <time>2018-02-18T08:38:06Z</time>
      </trkpt>
      <trkpt lat="49.07979" lon="2.01975">
        <ele>69.01</ele>
        <time>2018-02-18T08:38:25Z</time>
      </trkpt>
      <trkpt lat="49.0798" lon="2.01974">
        <ele>69.09</ele>
        <time>2018-02-18T08:38:26Z</time>
      </trkpt>
      <trkpt lat="49.07981" lon="2.01972">
        <ele>68.95</ele>
        <time>2018-02-18T08:38:27Z</time>
      </trkpt>
      <trkpt lat="49.07981" lon="2.01971">
        <ele>69.25</ele>
        <time>2018-02-18T08:38:28Z</time>
      </trkpt>
      <trkpt lat="49.07982" lon="2.01969">
        <ele>68.89</ele>
        <time>2018-02-18T08:38:29Z</time>
      </trkpt>
      <trkpt lat="49.07982" lon="2.01967">
        <ele>68.75</ele>
        <time>2018-02-18T08:38:30Z</time>
      </trkpt>
      <trkpt lat="49.07983" lon="2.01965">
        <ele>69.72</ele>
        <time>2018-02-18T08:38:31Z</time>
      </trkpt>
      <trkpt lat="49.07983" lon="2.01964">
        <ele>69.3</ele>
        <time>2018-02-18T08:38:32Z</time>
      </trkpt>
      <trkpt lat="49.07984" lon="2.01962">
        <ele>69.42</ele>
        <time>2018-02-18T08:38:33Z</time>
      </trkpt>
      <trkpt lat="49.07985" lon="2.01959">
        <ele>69.6</ele>
        <time>2018-02-18T08:38:35Z</time>
      </trkpt>
      <trkpt lat="49.07986" lon="2.01958">
        <ele>69.54</ele>
        <time>2018-02-18T08:38:36Z</time>
      </trkpt>
      <trkpt lat="49.07995" lon="2.01934">
        <ele>70.28</ele>
        <time>2018-02-18T08:38:52Z</time>
      </trkpt>
      <trkpt lat="49.08005" lon="2.01911">
        <ele>70.63</ele>
        <time>2018-02-18T08:39:08Z</time>
      </trkpt>
      <trkpt lat="49.08015" lon="2.01888">
        <ele>71.19</ele>
        <time>2018-02-18T08:39:23Z</time>
      </trkpt>
      <trkpt lat="49.08017" lon="2.01884">
        <ele>70.45</ele>
        <time>2018-02-18T08:39:26Z</time>
      </trkpt>
      <trkpt lat="49.08025" lon="2.01862">
        <ele>71.19</ele>
        <time>2018-02-18T08:39:42Z</time>
      </trkpt>
      <trkpt lat="49.08025" lon="2.0186">
        <ele>70.96</ele>
        <time>2018-02-18T08:39:43Z</time>
      </trkpt>
      <trkpt lat="49.0803" lon="2.01859">
        <ele>71.09</ele>
        <time>2018-02-18T08:39:51Z</time>
      </trkpt>
      <trkpt lat="49.08032" lon="2.0186">
        <ele>70.81</ele>
        <time>2018-02-18T08:39:54Z</time>
      </trkpt>
      <trkpt lat="49.08045" lon="2.01866">
        <ele>71.51</ele>
        <time>2018-02-18T08:40:07Z</time>
      </trkpt>
      <trkpt lat="49.08058" lon="2.01877">
        <ele>71.14</ele>
        <time>2018-02-18T08:40:20Z</time>
      </trkpt>
      <trkpt lat="49.08059" lon="2.01878">
        <ele>72.18</ele>
        <time>2018-02-18T08:40:21Z</time>
      </trkpt>
      <trkpt lat="49.08063" lon="2.01883">
        <ele>72.35</ele>
        <time>2018-02-18T08:40:27Z</time>
      </trkpt>
      <trkpt lat="49.08064" lon="2.01883">
        <ele>72.04</ele>
        <time>2018-02-18T08:40:28Z</time>
      </trkpt>
      <trkpt lat="49.08066" lon="2.01883">
        <ele>71.89</ele>
        <time>2018-02-18T08:40:29Z</time>
      </trkpt>
      <trkpt lat="49.08067" lon="2.01883">
        <ele>71.97</ele>
        <time>2018-02-18T08:40:30Z</time>
      </trkpt>
      <trkpt lat="49.08068" lon="2.01884">
        <ele>72.76</ele>
        <time>2018-02-18T08:40:31Z</time>
      </trkpt>
      <trkpt lat="49.08069" lon="2.01885">
        <ele>72.83</ele>
        <time>2018-02-18T08:40:32Z</time>
      </trkpt>
      <trkpt lat="49.0807" lon="2.01886">
        <ele>72.62</ele>
        <time>2018-02-18T08:40:33Z</time>
      </trkpt>
      <trkpt lat="49.08071" lon="2.01886">
        <ele>72.61</ele>
        <time>2018-02-18T08:40:34Z</time>
      </trkpt>
      <trkpt lat="49.08073" lon="2.01887">
        <ele>72.8</ele>
        <time>2018-02-18T08:40:35Z</time>
      </trkpt>
      <trkpt lat="49.08074" lon="2.01888">
        <ele>72.66</ele>
        <time>2018-02-18T08:40:36Z</time>
      </trkpt>
      <trkpt lat="49.08093" lon="2.01901">
        <ele>73.9</ele>
        <time>2018-02-18T08:40:55Z</time>
      </trkpt>
      <trkpt lat="49.08104" lon="2.0191">
        <ele>73.34</ele>
        <time>2018-02-18T08:41:08Z</time>
      </trkpt>
      <trkpt lat="49.08117" lon="2.01919">
        <ele>74.18</ele>
        <time>2018-02-18T08:41:22Z</time>
      </trkpt>
      <trkpt lat="49.08128" lon="2.01928">
        <ele>74.77</ele>
        <time>2018-02-18T08:41:35Z</time>
      </trkpt>
      <trkpt lat="49.08142" lon="2.01938">
        <ele>75.47</ele>
        <time>2018-02-18T08:41:50Z</time>
      </trkpt>
      <trkpt lat="49.08152" lon="2.01947">
        <ele>75.04</ele>
        <time>2018-02-18T08:42:02Z</time>
      </trkpt>
      <trkpt lat="49.08153" lon="2.01947">
        <ele>74.97</ele>
        <time>2018-02-18T08:42:03Z</time>
      </trkpt>
      <trkpt lat="49.08166" lon="2.01958">
        <ele>75.59</ele>
        <time>2018-02-18T08:42:16Z</time>
      </trkpt>
      <trkpt lat="49.08182" lon="2.01966">
        <ele>75.98</ele>
        <time>2018-02-18T08:42:31Z</time>
      </trkpt>
      <trkpt lat="49.08197" lon="2.01973">
        <ele>77.61</ele>
        <time>2018-02-18T08:42:46Z</time>
      </trkpt>
      <trkpt lat="49.08214" lon="2.01979">
        <ele>77.72</ele>
        <time>2018-02-18T08:43:01Z</time>
      </trkpt>
      <trkpt lat="49.08215" lon="2.0198">
        <ele>77.92</ele>
        <time>2018-02-18T08:43:02Z</time>
      </trkpt>
      <trkpt lat="49.08217" lon="2.0198">
        <ele>77.52</ele>
        <time>2018-02-18T08:43:03Z</time>
      </trkpt>
      <trkpt lat="49.08235" lon="2.0199">
        <ele>78.23</ele>
        <time>2018-02-18T08:43:19Z</time>
      </trkpt>
      <trkpt lat="49.08252" lon="2.02">
        <ele>78.55</ele>
        <time>2018-02-18T08:43:34Z</time>
      </trkpt>
      <trkpt lat="49.08269" lon="2.0201">
        <ele>78.55</ele>
        <time>2018-02-18T08:43:50Z</time>
      </trkpt>
      <trkpt lat="49.08286" lon="2.02021">
        <ele>78.59</ele>
        <time>2018-02-18T08:44:06Z</time>
      </trkpt>
      <trkpt lat="49.08298" lon="2.02029">
        <ele>79.6</ele>
        <time>2018-02-18T08:44:20Z</time>
      </trkpt>
      <trkpt lat="49.08302" lon="2.0203">
        <ele>80.18</ele>
        <time>2018-02-18T08:44:39Z</time>
      </trkpt>
      <trkpt lat="49.08304" lon="2.02035">
        <ele>79.5</ele>
        <time>2018-02-18T08:44:48Z</time>
      </trkpt>
      <trkpt lat="49.08304" lon="2.02037">
        <ele>79.18</ele>
        <time>2018-02-18T08:44:49Z</time>
      </trkpt>
      <trkpt lat="49.08303" lon="2.02035">
        <ele>79.42</ele>
        <time>2018-02-18T08:45:05Z</time>
      </trkpt>
      <trkpt lat="49.08305" lon="2.02035">
        <ele>79.57</ele>
        <time>2018-02-18T08:45:25Z</time>
      </trkpt>
      <trkpt lat="49.08312" lon="2.02037">
        <ele>79.08</ele>
        <time>2018-02-18T08:45:35Z</time>
      </trkpt>
      <trkpt lat="49.08319" lon="2.02039">
        <ele>78.63</ele>
        <time>2018-02-18T08:45:47Z</time>
      </trkpt>
      <trkpt lat="49.08319" lon="2.02039">
        <ele>79.41</ele>
        <time>2018-02-18T08:45:48Z</time>
      </trkpt>
      <trkpt lat="49.08322" lon="2.02041">
        <ele>79.57</ele>
        <time>2018-02-18T08:45:51Z</time>
      </trkpt>
      <trkpt lat="49.08334" lon="2.0205">
        <ele>79.3</ele>
        <time>2018-02-18T08:46:05Z</time>
      </trkpt>
      <trkpt lat="49.08335" lon="2.02051">
        <ele>78.72</ele>
        <time>2018-02-18T08:46:07Z</time>
      </trkpt>
      <trkpt lat="49.08336" lon="2.02052">
        <ele>79.1</ele>
        <time>2018-02-18T08:46:08Z</time>
      </trkpt>
      <trkpt lat="49.08337" lon="2.02053">
        <ele>79.01</ele>
        <time>2018-02-18T08:46:09Z</time>
      </trkpt>
      <trkpt lat="49.08352" lon="2.02062">
        <ele>79.44</ele>
        <time>2018-02-18T08:46:24Z</time>
      </trkpt>
      <trkpt lat="49.08357" lon="2.02065">
        <ele>79.69</ele>
        <time>2018-02-18T08:46:31Z</time>
      </trkpt>
      <trkpt lat="49.08359" lon="2.02065">
        <ele>79.43</ele>
        <time>2018-02-18T08:46:32Z</time>
      </trkpt>
      <trkpt lat="49.08361" lon="2.02067">
        <ele>79.1</ele>
        <time>2018-02-18T08:46:35Z</time>
      </trkpt>
      <trkpt lat="49.08363" lon="2.02067">
        <ele>79.17</ele>
        <time>2018-02-18T08:46:36Z</time>
      </trkpt>
      <trkpt lat="49.08371" lon="2.02073">
        <ele>79.47</ele>
        <time>2018-02-18T08:46:44Z</time>
      </trkpt>
      <trkpt lat="49.08389" lon="2.02082">
        <ele>78.97</ele>
        <time>2018-02-18T08:47:02Z</time>
      </trkpt>
      <trkpt lat="49.08405" lon="2.02091">
        <ele>79.48</ele>
        <time>2018-02-18T08:47:19Z</time>
      </trkpt>
      <trkpt lat="49.08408" lon="2.02094">
        <ele>79.72</ele>
        <time>2018-02-18T08:47:24Z</time>
      </trkpt>
      <trkpt lat="49.08409" lon="2.02094">
        <ele>79.61</ele>
        <time>2018-02-18T08:47:25Z</time>
      </trkpt>
      <trkpt lat="49.08411" lon="2.02095">
        <ele>79.86</ele>
        <time>2018-02-18T08:47:26Z</time>
      </trkpt>
      <trkpt lat="49.08412" lon="2.02095">
        <ele>79.96</ele>
        <time>2018-02-18T08:47:27Z</time>
      </trkpt>
      <trkpt lat="49.08414" lon="2.02096">
        <ele>79.84</ele>
        <time>2018-02-18T08:47:28Z</time>
      </trkpt>
      <trkpt lat="49.08415" lon="2.02096">
        <ele>79.25</ele>
        <time>2018-02-18T08:47:29Z</time>
      </trkpt>
      <trkpt lat="49.08416" lon="2.02097">
        <ele>79.4</ele>
        <time>2018-02-18T08:47:30Z</time>
      </trkpt>
      <trkpt lat="49.08417" lon="2.02098">
        <ele>79.66</ele>
        <time>2018-02-18T08:47:31Z</time>
      </trkpt>
      <trkpt lat="49.08432" lon="2.02103">
        <ele>79.57</ele>
        <time>2018-02-18T08:47:45Z</time>
      </trkpt>
      <trkpt lat="49.08442" lon="2.02111">
        <ele>80.15</ele>
        <time>2018-02-18T08:47:57Z</time>
      </trkpt>
      <trkpt lat="49.08443" lon="2.02113">
        <ele>79.87</ele>
        <time>2018-02-18T08:47:58Z</time>
      </trkpt>
      <trkpt lat="49.08443" lon="2.02115">
        <ele>79.8</ele>
        <time>2018-02-18T08:47:59Z</time>
      </trkpt>
      <trkpt lat="49.08444" lon="2.02116">
        <ele>80.05</ele>
        <time>2018-02-18T08:48:00Z</time>
      </trkpt>
      <trkpt lat="49.08445" lon="2.02117">
        <ele>79.52</ele>
        <time>2018-02-18T08:48:01Z</time>
      </trkpt>
      <trkpt lat="49.08446" lon="2.02118">
        <ele>79.66</ele>
        <time>2018-02-18T08:48:02Z</time>
      </trkpt>
      <trkpt lat="49.08449" lon="2.02121">
        <ele>79.52</ele>
        <time>2018-02-18T08:48:05Z</time>
      </trkpt>
      <trkpt lat="49.0845" lon="2.02122">
        <ele>79.54</ele>
        <time>2018-02-18T08:48:06Z</time>
      </trkpt>
      <trkpt lat="49.08452" lon="2.02122">
        <ele>79.5</ele>
        <time>2018-02-18T08:48:07Z</time>
      </trkpt>
      <trkpt lat="49.08453" lon="2.02122">
        <ele>79.48</ele>
        <time>2018-02-18T08:48:08Z</time>
      </trkpt>
      <trkpt lat="49.08454" lon="2.02123">
        <ele>79.32</ele>
        <time>2018-02-18T08:48:09Z</time>
      </trkpt>
      <trkpt lat="49.08458" lon="2.02123">
        <ele>79.59</ele>
        <time>2018-02-18T08:48:13Z</time>
      </trkpt>
      <trkpt lat="49.08459" lon="2.02122">
        <ele>79.33</ele>
        <time>2018-02-18T08:48:14Z</time>
      </trkpt>
      <trkpt lat="49.08464" lon="2.02117">
        <ele>79.8</ele>
        <time>2018-02-18T08:48:20Z</time>
      </trkpt>
      <trkpt lat="49.08465" lon="2.02116">
        <ele>79.95</ele>
        <time>2018-02-18T08:48:21Z</time>
      </trkpt>
      <trkpt lat="49.08482" lon="2.02106">
        <ele>80.18</ele>
        <time>2018-02-18T08:48:36Z</time>
      </trkpt>
      <trkpt lat="49.085" lon="2.02098">
        <ele>80.74</ele>
        <time>2018-02-18T08:48:53Z</time>
      </trkpt>
      <trkpt lat="49.08508" lon="2.02096">
        <ele>80.49</ele>
        <time>2018-02-18T08:49:01Z</time>
      </trkpt>
      <trkpt lat="49.0851" lon="2.02095">
        <ele>80.4</ele>
        <time>2018-02-18T08:49:02Z</time>
      </trkpt>
      <trkpt lat="49.08531" lon="2.02092">
        <ele>80.92</ele>
        <time>2018-02-18T08:49:20Z</time>
      </trkpt>
      <trkpt lat="49.08548" lon="2.02091">
        <ele>81.24</ele>
        <time>2018-02-18T08:49:36Z</time>
      </trkpt>
      <trkpt lat="49.08567" lon="2.02092">
        <ele>81.51</ele>
        <time>2018-02-18T08:49:52Z</time>
      </trkpt>
      <trkpt lat="49.08591" lon="2.02101">
        <ele>81.84</ele>
        <time>2018-02-18T08:50:14Z</time>
      </trkpt>
      <trkpt lat="49.08611" lon="2.02111">
        <ele>82.15</ele>
        <time>2018-02-18T08:50:32Z</time>
      </trkpt>
      <trkpt lat="49.0863" lon="2.02124">
        <ele>82.69</ele>
        <time>2018-02-18T08:50:50Z</time>
      </trkpt>
      <trkpt lat="49.08647" lon="2.02138">
        <ele>82.76</ele>
        <time>2018-02-18T08:51:07Z</time>
      </trkpt>
      <trkpt lat="49.08663" lon="2.02155">
        <ele>83.49</ele>
        <time>2018-02-18T08:51:23Z</time>
      </trkpt>
      <trkpt lat="49.08678" lon="2.02174">
        <ele>83.49</ele>
        <time>2018-02-18T08:51:40Z</time>
      </trkpt>
      <trkpt lat="49.0869" lon="2.02193">
        <ele>83.89</ele>
        <time>2018-02-18T08:51:55Z</time>
      </trkpt>
      <trkpt lat="49.08705" lon="2.02216">
        <ele>83.9</ele>
        <time>2018-02-18T08:52:12Z</time>
      </trkpt>
      <trkpt lat="49.08718" lon="2.02236">
        <ele>84.32</ele>
        <time>2018-02-18T08:52:28Z</time>
      </trkpt>
      <trkpt lat="49.08726" lon="2.02242">
        <ele>83.81</ele>
        <time>2018-02-18T08:52:37Z</time>
      </trkpt>
      <trkpt lat="49.08728" lon="2.0224">
        <ele>83.95</ele>
        <time>2018-02-18T08:52:40Z</time>
      </trkpt>
      <trkpt lat="49.08738" lon="2.02215">
        <ele>84.45</ele>
        <time>2018-02-18T08:52:56Z</time>
      </trkpt>
      <trkpt lat="49.08747" lon="2.02184">
        <ele>84.12</ele>
        <time>2018-02-18T08:53:15Z</time>
      </trkpt>
      <trkpt lat="49.08748" lon="2.02181">
        <ele>85.13</ele>
        <time>2018-02-18T08:53:17Z</time>
      </trkpt>
      <trkpt lat="49.08759" lon="2.02155">
        <ele>84.58</ele>
        <time>2018-02-18T08:53:35Z</time>
      </trkpt>
      <trkpt lat="49.08769" lon="2.02131">
        <ele>85.32</ele>
        <time>2018-02-18T08:53:52Z</time>
      </trkpt>
      <trkpt lat="49.08783" lon="2.02103">
        <ele>85.04</ele>
        <time>2018-02-18T08:54:12Z</time>
      </trkpt>
      <trkpt lat="49.08796" lon="2.02078">
        <ele>84.94</ele>
        <time>2018-02-18T08:54:30Z</time>
      </trkpt>
      <trkpt lat="49.0881" lon="2.0206">
        <ele>85.32</ele>
        <time>2018-02-18T08:54:46Z</time>
      </trkpt>
      <trkpt lat="49.08813" lon="2.02057">
        <ele>85.12</ele>
        <time>2018-02-18T08:54:49Z</time>
      </trkpt>
      <trkpt lat="49.08814" lon="2.02056">
        <ele>85.32</ele>
        <time>2018-02-18T08:54:50Z</time>
      </trkpt>
      <trkpt lat="49.08815" lon="2.02054">
        <ele>85.15</ele>
        <time>2018-02-18T08:54:51Z</time>
      </trkpt>
      <trkpt lat="49.08816" lon="2.02053">
        <ele>85.02</ele>
        <time>2018-02-18T08:54:52Z</time>
      </trkpt>
      <trkpt lat="49.08816" lon="2.02052">
        <ele>85.03</ele>
        <time>2018-02-18T08:54:53Z</time>
      </trkpt>
      <trkpt lat="49.08831" lon="2.02033">
        <ele>85.06</ele>
        <time>2018-02-18T08:55:09Z</time>
      </trkpt>
      <trkpt lat="49.08837" lon="2.02026">
        <ele>84.73</ele>
        <time>2018-02-18T08:55:18Z</time>
      </trkpt>
      <trkpt lat="49.0884" lon="2.02022">
        <ele>85.11</ele>
        <time>2018-02-18T08:55:22Z</time>
      </trkpt>
      <trkpt lat="49.08841" lon="2.02021">
        <ele>85.28</ele>
        <time>2018-02-18T08:55:23Z</time>
      </trkpt>
      <trkpt lat="49.08856" lon="2.02008">
        <ele>85.89</ele>
        <time>2018-02-18T08:55:39Z</time>
      </trkpt>
      <trkpt lat="49.08871" lon="2.01998">
        <ele>85.65</ele>
        <time>2018-02-18T08:55:53Z</time>
      </trkpt>
      <trkpt lat="49.08874" lon="2.01994">
        <ele>85.88</ele>
        <time>2018-02-18T08:55:57Z</time>
      </trkpt>
      <trkpt lat="49.08883" lon="2.01988">
        <ele>86.24</ele>
        <time>2018-02-18T08:56:08Z</time>
      </trkpt>
      <trkpt lat="49.089" lon="2.01978">
        <ele>85.93</ele>
        <time>2018-02-18T08:56:25Z</time>
      </trkpt>
      <trkpt lat="49.08918" lon="2.0197">
        <ele>85.79</ele>
        <time>2018-02-18T08:56:41Z</time>
      </trkpt>
      <trkpt lat="49.08935" lon="2.01963">
        <ele>85.78</ele>
        <time>2018-02-18T08:56:56Z</time>
      </trkpt>
      <trkpt lat="49.08953" lon="2.01959">
        <ele>85.18</ele>
        <time>2018-02-18T08:57:12Z</time>
      </trkpt>
      <trkpt lat="49.08971" lon="2.01958">
        <ele>86.19</ele>
        <time>2018-02-18T08:57:30Z</time>
      </trkpt>
      <trkpt lat="49.08994" lon="2.01958">
        <ele>85.72</ele>
        <time>2018-02-18T08:57:50Z</time>
      </trkpt>
      <trkpt lat="49.09016" lon="2.01958">
        <ele>85.07</ele>
        <time>2018-02-18T08:58:10Z</time>
      </trkpt>
      <trkpt lat="49.09036" lon="2.01958">
        <ele>85.39</ele>
        <time>2018-02-18T08:58:27Z</time>
      </trkpt>
      <trkpt lat="49.09055" lon="2.01958">
        <ele>85</ele>
        <time>2018-02-18T08:58:44Z</time>
      </trkpt>
      <trkpt lat="49.09077" lon="2.01959">
        <ele>85.11</ele>
        <time>2018-02-18T08:59:02Z</time>
      </trkpt>
      <trkpt lat="49.09095" lon="2.01961">
        <ele>84.66</ele>
        <time>2018-02-18T08:59:19Z</time>
      </trkpt>
      <trkpt lat="49.09116" lon="2.01964">
        <ele>84.93</ele>
        <time>2018-02-18T08:59:38Z</time>
      </trkpt>
      <trkpt lat="49.09135" lon="2.01968">
        <ele>84.89</ele>
        <time>2018-02-18T08:59:54Z</time>
      </trkpt>
      <trkpt lat="49.09155" lon="2.0197">
        <ele>84.81</ele>
        <time>2018-02-18T09:00:11Z</time>
      </trkpt>
      <trkpt lat="49.09175" lon="2.01974">
        <ele>84.16</ele>
        <time>2018-02-18T09:00:29Z</time>
      </trkpt>
      <trkpt lat="49.09182" lon="2.01977">
        <ele>84.72</ele>
        <time>2018-02-18T09:00:35Z</time>
      </trkpt>
      <trkpt lat="49.09184" lon="2.01978">
        <ele>84.37</ele>
        <time>2018-02-18T09:00:36Z</time>
      </trkpt>
      <trkpt lat="49.09203" lon="2.01982">
        <ele>85.22</ele>
        <time>2018-02-18T09:00:52Z</time>
      </trkpt>
      <trkpt lat="49.09222" lon="2.01984">
        <ele>85.75</ele>
        <time>2018-02-18T09:01:08Z</time>
      </trkpt>
      <trkpt lat="49.09238" lon="2.01988">
        <ele>85.18</ele>
        <time>2018-02-18T09:01:21Z</time>
      </trkpt>
      <trkpt lat="49.09255" lon="2.01992">
        <ele>85.94</ele>
        <time>2018-02-18T09:01:35Z</time>
      </trkpt>
      <trkpt lat="49.09275" lon="2.01999">
        <ele>86.13</ele>
        <time>2018-02-18T09:01:52Z</time>
      </trkpt>
      <trkpt lat="49.09278" lon="2.02">
        <ele>85.92</ele>
        <time>2018-02-18T09:01:54Z</time>
      </trkpt>
      <trkpt lat="49.09279" lon="2.02001">
        <ele>85.97</ele>
        <time>2018-02-18T09:01:55Z</time>
      </trkpt>
      <trkpt lat="49.0928" lon="2.02001">
        <ele>86.03</ele>
        <time>2018-02-18T09:01:56Z</time>
      </trkpt>
      <trkpt lat="49.09297" lon="2.02008">
        <ele>86.71</ele>
        <time>2018-02-18T09:02:11Z</time>
      </trkpt>
      <trkpt lat="49.09314" lon="2.02014">
        <ele>86.48</ele>
        <time>2018-02-18T09:02:25Z</time>
      </trkpt>
      <trkpt lat="49.09337" lon="2.02023">
        <ele>86.72</ele>
        <time>2018-02-18T09:02:44Z</time>
      </trkpt>
      <trkpt lat="49.09357" lon="2.0203">
        <ele>86.92</ele>
        <time>2018-02-18T09:03:02Z</time>
      </trkpt>
      <trkpt lat="49.09378" lon="2.02036">
        <ele>86.81</ele>
        <time>2018-02-18T09:03:18Z</time>
      </trkpt>
      <trkpt lat="49.094" lon="2.02042">
        <ele>87.58</ele>
        <time>2018-02-18T09:03:38Z</time>
      </trkpt>
      <trkpt lat="49.09419" lon="2.02048">
        <ele>87.27</ele>
        <time>2018-02-18T09:03:55Z</time>
      </trkpt>
      <trkpt lat="49.09421" lon="2.02049">
        <ele>87.65</ele>
        <time>2018-02-18T09:03:57Z</time>
      </trkpt>
      <trkpt lat="49.09422" lon="2.02049">
        <ele>87.67</ele>
        <time>2018-02-18T09:03:58Z</time>
      </trkpt>
      <trkpt lat="49.09442" lon="2.02056">
        <ele>88.47</ele>
        <time>2018-02-18T09:04:15Z</time>
      </trkpt>
      <trkpt lat="49.09462" lon="2.02063">
        <ele>87.66</ele>
        <time>2018-02-18T09:04:32Z</time>
      </trkpt>
      <trkpt lat="49.09476" lon="2.02071">
        <ele>88.02</ele>
        <time>2018-02-18T09:04:46Z</time>
      </trkpt>
      <trkpt lat="49.09492" lon="2.0208">
        <ele>88.47</ele>
        <time>2018-02-18T09:05:03Z</time>
      </trkpt>
      <trkpt lat="49.09495" lon="2.02081">
        <ele>88.57</ele>
        <time>2018-02-18T09:05:23Z</time>
      </trkpt>
      <trkpt lat="49.09498" lon="2.02082">
        <ele>88.95</ele>
        <time>2018-02-18T09:05:43Z</time>
      </trkpt>
      <trkpt lat="49.09499" lon="2.02083">
        <ele>89.04</ele>
        <time>2018-02-18T09:05:44Z</time>
      </trkpt>
      <trkpt lat="49.095" lon="2.02084">
        <ele>89.29</ele>
        <time>2018-02-18T09:05:45Z</time>
      </trkpt>
      <trkpt lat="49.09501" lon="2.02085">
        <ele>89.02</ele>
        <time>2018-02-18T09:05:46Z</time>
      </trkpt>
      <trkpt lat="49.09502" lon="2.02086">
        <ele>88.81</ele>
        <time>2018-02-18T09:05:47Z</time>
      </trkpt>
      <trkpt lat="49.09518" lon="2.02097">
        <ele>88.74</ele>
        <time>2018-02-18T09:06:03Z</time>
      </trkpt>
      <trkpt lat="49.09522" lon="2.02102">
        <ele>88.8</ele>
        <time>2018-02-18T09:06:08Z</time>
      </trkpt>
      <trkpt lat="49.09543" lon="2.02112">
        <ele>89.52</ele>
        <time>2018-02-18T09:06:27Z</time>
      </trkpt>
      <trkpt lat="49.09554" lon="2.02115">
        <ele>88.84</ele>
        <time>2018-02-18T09:06:36Z</time>
      </trkpt>
      <trkpt lat="49.09571" lon="2.02125">
        <ele>89.34</ele>
        <time>2018-02-18T09:06:52Z</time>
      </trkpt>
      <trkpt lat="49.09587" lon="2.02137">
        <ele>89.86</ele>
        <time>2018-02-18T09:07:07Z</time>
      </trkpt>
      <trkpt lat="49.09589" lon="2.02138">
        <ele>89.65</ele>
        <time>2018-02-18T09:07:09Z</time>
      </trkpt>
      <trkpt lat="49.09609" lon="2.02153">
        <ele>90.09</ele>
        <time>2018-02-18T09:07:27Z</time>
      </trkpt>
      <trkpt lat="49.09625" lon="2.02165">
        <ele>89.69</ele>
        <time>2018-02-18T09:07:43Z</time>
      </trkpt>
      <trkpt lat="49.09643" lon="2.02175">
        <ele>89.57</ele>
        <time>2018-02-18T09:08:00Z</time>
      </trkpt>
      <trkpt lat="49.09664" lon="2.02186">
        <ele>89.68</ele>
        <time>2018-02-18T09:08:18Z</time>
      </trkpt>
      <trkpt lat="49.09681" lon="2.02196">
        <ele>90.15</ele>
        <time>2018-02-18T09:08:33Z</time>
      </trkpt>
      <trkpt lat="49.09694" lon="2.02202">
        <ele>89.58</ele>
        <time>2018-02-18T09:08:45Z</time>
      </trkpt>
      <trkpt lat="49.09712" lon="2.02211">
        <ele>89.99</ele>
        <time>2018-02-18T09:09:02Z</time>
      </trkpt>
      <trkpt lat="49.09722" lon="2.02215">
        <ele>89.9</ele>
        <time>2018-02-18T09:09:10Z</time>
      </trkpt>
      <trkpt lat="49.0974" lon="2.02223">
        <ele>89.64</ele>
        <time>2018-02-18T09:09:27Z</time>
      </trkpt>
      <trkpt lat="49.09755" lon="2.02229">
        <ele>89.64</ele>
        <time>2018-02-18T09:09:42Z</time>
      </trkpt>
      <trkpt lat="49.09774" lon="2.02236">
        <ele>89.44</ele>
        <time>2018-02-18T09:09:57Z</time>
      </trkpt>
      <trkpt lat="49.0979" lon="2.02241">
        <ele>89.34</ele>
        <time>2018-02-18T09:10:12Z</time>
      </trkpt>
      <trkpt lat="49.09812" lon="2.02247">
        <ele>89.19</ele>
        <time>2018-02-18T09:10:31Z</time>
      </trkpt>
      <trkpt lat="49.09833" lon="2.02255">
        <ele>88.12</ele>
        <time>2018-02-18T09:10:49Z</time>
      </trkpt>
      <trkpt lat="49.09852" lon="2.02261">
        <ele>87.6</ele>
        <time>2018-02-18T09:11:06Z</time>
      </trkpt>
      <trkpt lat="49.09872" lon="2.02264">
        <ele>87.22</ele>
        <time>2018-02-18T09:11:23Z</time>
      </trkpt>
      <trkpt lat="49.09888" lon="2.02266">
        <ele>87.53</ele>
        <time>2018-02-18T09:11:38Z</time>
      </trkpt>
      <trkpt lat="49.09906" lon="2.02269">
        <ele>87.12</ele>
        <time>2018-02-18T09:11:53Z</time>
      </trkpt>
      <trkpt lat="49.09923" lon="2.02271">
        <ele>86.94</ele>
        <time>2018-02-18T09:12:07Z</time>
      </trkpt>
      <trkpt lat="49.09944" lon="2.02275">
        <ele>86.48</ele>
        <time>2018-02-18T09:12:26Z</time>
      </trkpt>
      <trkpt lat="49.09962" lon="2.02276">
        <ele>86.81</ele>
        <time>2018-02-18T09:12:40Z</time>
      </trkpt>
      <trkpt lat="49.09983" lon="2.02279">
        <ele>86.21</ele>
        <time>2018-02-18T09:12:57Z</time>
      </trkpt>
      <trkpt lat="49.09987" lon="2.02279">
        <ele>86.56</ele>
        <time>2018-02-18T09:13:01Z</time>
      </trkpt>
      <trkpt lat="49.09989" lon="2.02279">
        <ele>85.96</ele>
        <time>2018-02-18T09:13:02Z</time>
      </trkpt>
      <trkpt lat="49.0999" lon="2.02279">
        <ele>86.44</ele>
        <time>2018-02-18T09:13:03Z</time>
      </trkpt>
      <trkpt lat="49.1001" lon="2.02283">
        <ele>86.59</ele>
        <time>2018-02-18T09:13:21Z</time>
      </trkpt>
      <trkpt lat="49.10012" lon="2.02283">
        <ele>86.65</ele>
        <time>2018-02-18T09:13:23Z</time>
      </trkpt>
      <trkpt lat="49.10013" lon="2.02283">
        <ele>86.26</ele>
        <time>2018-02-18T09:13:24Z</time>
      </trkpt>
      <trkpt lat="49.10015" lon="2.02283">
        <ele>86.79</ele>
        <time>2018-02-18T09:13:25Z</time>
      </trkpt>
      <trkpt lat="49.1003" lon="2.02285">
        <ele>86.51</ele>
        <time>2018-02-18T09:13:39Z</time>
      </trkpt>
      <trkpt lat="49.10046" lon="2.02288">
        <ele>86.66</ele>
        <time>2018-02-18T09:13:53Z</time>
      </trkpt>
      <trkpt lat="49.10047" lon="2.02288">
        <ele>86.65</ele>
        <time>2018-02-18T09:13:54Z</time>
      </trkpt>
      <trkpt lat="49.10048" lon="2.02288">
        <ele>86.67</ele>
        <time>2018-02-18T09:13:55Z</time>
      </trkpt>
      <trkpt lat="49.1007" lon="2.0229">
        <ele>87.09</ele>
        <time>2018-02-18T09:14:13Z</time>
      </trkpt>
      <trkpt lat="49.10088" lon="2.02292">
        <ele>86.77</ele>
        <time>2018-02-18T09:14:28Z</time>
      </trkpt>
      <trkpt lat="49.10106" lon="2.02295">
        <ele>87.06</ele>
        <time>2018-02-18T09:14:43Z</time>
      </trkpt>
      <trkpt lat="49.10125" lon="2.02297">
        <ele>86.74</ele>
        <time>2018-02-18T09:14:59Z</time>
      </trkpt>
      <trkpt lat="49.10126" lon="2.02297">
        <ele>87.33</ele>
        <time>2018-02-18T09:15:00Z</time>
      </trkpt>
      <trkpt lat="49.10147" lon="2.02301">
        <ele>87.55</ele>
        <time>2018-02-18T09:15:18Z</time>
      </trkpt>
      <trkpt lat="49.10154" lon="2.02301">
        <ele>86.92</ele>
        <time>2018-02-18T09:15:24Z</time>
      </trkpt>
      <trkpt lat="49.10155" lon="2.02302">
        <ele>87.1</ele>
        <time>2018-02-18T09:15:25Z</time>
      </trkpt>
      <trkpt lat="49.10156" lon="2.02302">
        <ele>87.43</ele>
        <time>2018-02-18T09:15:26Z</time>
      </trkpt>
      <trkpt lat="49.10157" lon="2.02302">
        <ele>87.2</ele>
        <time>2018-02-18T09:15:27Z</time>
      </trkpt>
      <trkpt lat="49.10173" lon="2.02303">
        <ele>87.28</ele>
        <time>2018-02-18T09:15:41Z</time>
      </trkpt>
      <trkpt lat="49.10196" lon="2.02306">
        <ele>86.93</ele>
        <time>2018-02-18T09:16:00Z</time>
      </trkpt>
      <trkpt lat="49.10218" lon="2.02309">
        <ele>87.14</ele>
        <time>2018-02-18T09:16:18Z</time>
      </trkpt>
      <trkpt lat="49.1024" lon="2.02312">
        <ele>86.35</ele>
        <time>2018-02-18T09:16:36Z</time>
      </trkpt>
      <trkpt lat="49.10261" lon="2.02314">
        <ele>86.81</ele>
        <time>2018-02-18T09:16:53Z</time>
      </trkpt>
      <trkpt lat="49.10273" lon="2.02317">
        <ele>86.56</ele>
        <time>2018-02-18T09:17:04Z</time>
      </trkpt>
      <trkpt lat="49.10274" lon="2.02317">
        <ele>86.55</ele>
        <time>2018-02-18T09:17:05Z</time>
      </trkpt>
      <trkpt lat="49.10286" lon="2.02318">
        <ele>86.96</ele>
        <time>2018-02-18T09:17:16Z</time>
      </trkpt>
      <trkpt lat="49.10287" lon="2.02318">
        <ele>87.19</ele>
        <time>2018-02-18T09:17:17Z</time>
      </trkpt>
      <trkpt lat="49.10309" lon="2.02321">
        <ele>87.03</ele>
        <time>2018-02-18T09:17:36Z</time>
      </trkpt>
      <trkpt lat="49.10326" lon="2.02325">
        <ele>86.59</ele>
        <time>2018-02-18T09:17:52Z</time>
      </trkpt>
      <trkpt lat="49.10342" lon="2.02327">
        <ele>86.8</ele>
        <time>2018-02-18T09:18:07Z</time>
      </trkpt>
      <trkpt lat="49.10358" lon="2.02329">
        <ele>87.01</ele>
        <time>2018-02-18T09:18:21Z</time>
      </trkpt>
      <trkpt lat="49.10373" lon="2.02333">
        <ele>86.99</ele>
        <time>2018-02-18T09:18:35Z</time>
      </trkpt>
      <trkpt lat="49.10377" lon="2.02334">
        <ele>87.71</ele>
        <time>2018-02-18T09:18:39Z</time>
      </trkpt>
      <trkpt lat="49.10378" lon="2.02336">
        <ele>87.29</ele>
        <time>2018-02-18T09:18:40Z</time>
      </trkpt>
      <trkpt lat="49.10379" lon="2.02337">
        <ele>86.83</ele>
        <time>2018-02-18T09:18:41Z</time>
      </trkpt>
      <trkpt lat="49.1038" lon="2.02338">
        <ele>87.01</ele>
        <time>2018-02-18T09:18:43Z</time>
      </trkpt>
      <trkpt lat="49.10388" lon="2.0234">
        <ele>87.06</ele>
        <time>2018-02-18T09:18:50Z</time>
      </trkpt>
      <trkpt lat="49.1039" lon="2.0234">
        <ele>86.58</ele>
        <time>2018-02-18T09:18:51Z</time>
      </trkpt>
      <trkpt lat="49.10406" lon="2.02344">
        <ele>87.41</ele>
        <time>2018-02-18T09:19:06Z</time>
      </trkpt>
      <trkpt lat="49.10425" lon="2.0235">
        <ele>87.2</ele>
        <time>2018-02-18T09:19:23Z</time>
      </trkpt>
      <trkpt lat="49.10443" lon="2.02358">
        <ele>87.22</ele>
        <time>2018-02-18T09:19:40Z</time>
      </trkpt>
      <trkpt lat="49.10462" lon="2.02365">
        <ele>87.58</ele>
        <time>2018-02-18T09:19:57Z</time>
      </trkpt>
      <trkpt lat="49.10481" lon="2.02373">
        <ele>88.34</ele>
        <time>2018-02-18T09:20:13Z</time>
      </trkpt>
      <trkpt lat="49.10499" lon="2.02379">
        <ele>88.55</ele>
        <time>2018-02-18T09:20:29Z</time>
      </trkpt>
      <trkpt lat="49.10518" lon="2.02386">
        <ele>89.08</ele>
        <time>2018-02-18T09:20:46Z</time>
      </trkpt>
      <trkpt lat="49.10541" lon="2.02393">
        <ele>89.81</ele>
        <time>2018-02-18T09:21:05Z</time>
      </trkpt>
      <trkpt lat="49.10556" lon="2.024">
        <ele>89.65</ele>
        <time>2018-02-18T09:21:19Z</time>
      </trkpt>
      <trkpt lat="49.10577" lon="2.02409">
        <ele>88.89</ele>
        <time>2018-02-18T09:21:37Z</time>
      </trkpt>
      <trkpt lat="49.10599" lon="2.02418">
        <ele>89.53</ele>
        <time>2018-02-18T09:21:56Z</time>
      </trkpt>
      <trkpt lat="49.10616" lon="2.02429">
        <ele>89.93</ele>
        <time>2018-02-18T09:22:12Z</time>
      </trkpt>
      <trkpt lat="49.10633" lon="2.02436">
        <ele>89.99</ele>
        <time>2018-02-18T09:22:27Z</time>
      </trkpt>
      <trkpt lat="49.10654" lon="2.02442">
        <ele>90.73</ele>
        <time>2018-02-18T09:22:44Z</time>
      </trkpt>
      <trkpt lat="49.10671" lon="2.02445">
        <ele>90.98</ele>
        <time>2018-02-18T09:22:59Z</time>
      </trkpt>
      <trkpt lat="49.10689" lon="2.02447">
        <ele>91.17</ele>
        <time>2018-02-18T09:23:15Z</time>
      </trkpt>
      <trkpt lat="49.10701" lon="2.02448">
        <ele>91.46</ele>
        <time>2018-02-18T09:23:30Z</time>
      </trkpt>
      <trkpt lat="49.107" lon="2.02447">
        <ele>91.66</ele>
        <time>2018-02-18T09:23:31Z</time>
      </trkpt>
      <trkpt lat="49.10698" lon="2.02447">
        <ele>91.54</ele>
        <time>2018-02-18T09:23:32Z</time>
      </trkpt>
      <trkpt lat="49.10697" lon="2.02446">
        <ele>91.65</ele>
        <time>2018-02-18T09:23:33Z</time>
      </trkpt>
      <trkpt lat="49.10697" lon="2.02445">
        <ele>90.98</ele>
        <time>2018-02-18T09:23:34Z</time>
      </trkpt>
      <trkpt lat="49.10696" lon="2.02444">
        <ele>91.14</ele>
        <time>2018-02-18T09:23:35Z</time>
      </trkpt>
      <trkpt lat="49.10695" lon="2.02443">
        <ele>91.39</ele>
        <time>2018-02-18T09:23:36Z</time>
      </trkpt>
      <trkpt lat="49.10696" lon="2.02438">
        <ele>91.09</ele>
        <time>2018-02-18T09:23:39Z</time>
      </trkpt>
      <trkpt lat="49.10699" lon="2.02416">
        <ele>92</ele>
        <time>2018-02-18T09:23:54Z</time>
      </trkpt>
      <trkpt lat="49.10704" lon="2.02399">
        <ele>92.45</ele>
        <time>2018-02-18T09:24:12Z</time>
      </trkpt>
      <trkpt lat="49.10705" lon="2.02392">
        <ele>91.98</ele>
        <time>2018-02-18T09:24:18Z</time>
      </trkpt>
      <trkpt lat="49.10706" lon="2.0239">
        <ele>91.53</ele>
        <time>2018-02-18T09:24:19Z</time>
      </trkpt>
      <trkpt lat="49.10706" lon="2.02389">
        <ele>92.08</ele>
        <time>2018-02-18T09:24:20Z</time>
      </trkpt>
      <trkpt lat="49.10707" lon="2.02384">
        <ele>92.61</ele>
        <time>2018-02-18T09:24:23Z</time>
      </trkpt>
      <trkpt lat="49.10708" lon="2.02383">
        <ele>92.5</ele>
        <time>2018-02-18T09:24:24Z</time>
      </trkpt>
      <trkpt lat="49.10708" lon="2.02382">
        <ele>92.03</ele>
        <time>2018-02-18T09:24:25Z</time>
      </trkpt>
      <trkpt lat="49.10709" lon="2.0238">
        <ele>92.74</ele>
        <time>2018-02-18T09:24:26Z</time>
      </trkpt>
      <trkpt lat="49.10709" lon="2.02378">
        <ele>92.25</ele>
        <time>2018-02-18T09:24:27Z</time>
      </trkpt>
      <trkpt lat="49.1071" lon="2.02365">
        <ele>91.74</ele>
        <time>2018-02-18T09:24:40Z</time>
      </trkpt>
      <trkpt lat="49.10715" lon="2.02348">
        <ele>91.65</ele>
        <time>2018-02-18T09:24:53Z</time>
      </trkpt>
      <trkpt lat="49.1072" lon="2.02329">
        <ele>92.43</ele>
        <time>2018-02-18T09:25:05Z</time>
      </trkpt>
      <trkpt lat="49.10721" lon="2.02328">
        <ele>91.98</ele>
        <time>2018-02-18T09:25:06Z</time>
      </trkpt>
      <trkpt lat="49.10728" lon="2.02305">
        <ele>92.2</ele>
        <time>2018-02-18T09:25:22Z</time>
      </trkpt>
      <trkpt lat="49.10733" lon="2.02287">
        <ele>93.07</ele>
        <time>2018-02-18T09:25:36Z</time>
      </trkpt>
      <trkpt lat="49.10738" lon="2.02269">
        <ele>92.7</ele>
        <time>2018-02-18T09:25:50Z</time>
      </trkpt>
      <trkpt lat="49.10745" lon="2.02246">
        <ele>93.49</ele>
        <time>2018-02-18T09:26:04Z</time>
      </trkpt>
      <trkpt lat="49.10746" lon="2.02245">
        <ele>93.28</ele>
        <time>2018-02-18T09:26:05Z</time>
      </trkpt>
      <trkpt lat="49.10746" lon="2.02241">
        <ele>93.17</ele>
        <time>2018-02-18T09:26:07Z</time>
      </trkpt>
      <trkpt lat="49.10751" lon="2.02228">
        <ele>93.47</ele>
        <time>2018-02-18T09:26:20Z</time>
      </trkpt>
      <trkpt lat="49.10752" lon="2.02222">
        <ele>93.35</ele>
        <time>2018-02-18T09:26:24Z</time>
      </trkpt>
      <trkpt lat="49.10752" lon="2.02221">
        <ele>93.51</ele>
        <time>2018-02-18T09:26:25Z</time>
      </trkpt>
      <trkpt lat="49.10755" lon="2.02212">
        <ele>93.23</ele>
        <time>2018-02-18T09:26:33Z</time>
      </trkpt>
      <trkpt lat="49.10756" lon="2.02207">
        <ele>94.22</ele>
        <time>2018-02-18T09:26:37Z</time>
      </trkpt>
      <trkpt lat="49.10763" lon="2.02188">
        <ele>93.79</ele>
        <time>2018-02-18T09:26:51Z</time>
      </trkpt>
      <trkpt lat="49.10769" lon="2.02167">
        <ele>94.37</ele>
        <time>2018-02-18T09:27:07Z</time>
      </trkpt>
      <trkpt lat="49.10773" lon="2.02157">
        <ele>94.61</ele>
        <time>2018-02-18T09:27:16Z</time>
      </trkpt>
      <trkpt lat="49.10774" lon="2.02154">
        <ele>94.78</ele>
        <time>2018-02-18T09:27:18Z</time>
      </trkpt>
      <trkpt lat="49.10776" lon="2.02148">
        <ele>94.54</ele>
        <time>2018-02-18T09:27:22Z</time>
      </trkpt>
      <trkpt lat="49.10782" lon="2.02128">
        <ele>94.21</ele>
        <time>2018-02-18T09:27:36Z</time>
      </trkpt>
      <trkpt lat="49.1079" lon="2.02109">
        <ele>94.81</ele>
        <time>2018-02-18T09:27:50Z</time>
      </trkpt>
      <trkpt lat="49.10795" lon="2.02093">
        <ele>93.77</ele>
        <time>2018-02-18T09:28:01Z</time>
      </trkpt>
      <trkpt lat="49.10795" lon="2.02091">
        <ele>94.17</ele>
        <time>2018-02-18T09:28:02Z</time>
      </trkpt>
      <trkpt lat="49.10801" lon="2.02071">
        <ele>94.35</ele>
        <time>2018-02-18T09:28:16Z</time>
      </trkpt>
      <trkpt lat="49.10806" lon="2.02049">
        <ele>93.6</ele>
        <time>2018-02-18T09:28:30Z</time>
      </trkpt>
      <trkpt lat="49.10811" lon="2.02026">
        <ele>94.02</ele>
        <time>2018-02-18T09:28:45Z</time>
      </trkpt>
      <trkpt lat="49.10817" lon="2.01999">
        <ele>94.62</ele>
        <time>2018-02-18T09:29:03Z</time>
      </trkpt>
      <trkpt lat="49.1082" lon="2.01976">
        <ele>94.98</ele>
        <time>2018-02-18T09:29:17Z</time>
      </trkpt>
      <trkpt lat="49.10824" lon="2.01953">
        <ele>95.24</ele>
        <time>2018-02-18T09:29:32Z</time>
      </trkpt>
      <trkpt lat="49.10825" lon="2.01939">
        <ele>94.89</ele>
        <time>2018-02-18T09:29:44Z</time>
      </trkpt>
      <trkpt lat="49.10825" lon="2.01935">
        <ele>94.86</ele>
        <time>2018-02-18T09:29:47Z</time>
      </trkpt>
      <trkpt lat="49.10826" lon="2.01929">
        <ele>94.64</ele>
        <time>2018-02-18T09:29:51Z</time>
      </trkpt>
      <trkpt lat="49.1083" lon="2.01908">
        <ele>95.16</ele>
        <time>2018-02-18T09:30:05Z</time>
      </trkpt>
      <trkpt lat="49.10834" lon="2.01884">
        <ele>95.8</ele>
        <time>2018-02-18T09:30:21Z</time>
      </trkpt>
      <trkpt lat="49.10837" lon="2.01857">
        <ele>95.86</ele>
        <time>2018-02-18T09:30:37Z</time>
      </trkpt>
      <trkpt lat="49.10837" lon="2.01855">
        <ele>95.49</ele>
        <time>2018-02-18T09:30:38Z</time>
      </trkpt>
      <trkpt lat="49.10837" lon="2.01854">
        <ele>95.75</ele>
        <time>2018-02-18T09:30:39Z</time>
      </trkpt>
      <trkpt lat="49.10839" lon="2.0183">
        <ele>96.61</ele>
        <time>2018-02-18T09:30:55Z</time>
      </trkpt>
      <trkpt lat="49.10839" lon="2.01828">
        <ele>96.14</ele>
        <time>2018-02-18T09:30:56Z</time>
      </trkpt>
      <trkpt lat="49.10839" lon="2.01826">
        <ele>96.49</ele>
        <time>2018-02-18T09:30:57Z</time>
      </trkpt>
      <trkpt lat="49.1084" lon="2.01825">
        <ele>96.44</ele>
        <time>2018-02-18T09:30:58Z</time>
      </trkpt>
      <trkpt lat="49.10843" lon="2.01801">
        <ele>95.92</ele>
        <time>2018-02-18T09:31:12Z</time>
      </trkpt>
      <trkpt lat="49.10843" lon="2.01799">
        <ele>96.2</ele>
        <time>2018-02-18T09:31:13Z</time>
      </trkpt>
      <trkpt lat="49.10845" lon="2.01774">
        <ele>96.41</ele>
        <time>2018-02-18T09:31:30Z</time>
      </trkpt>
      <trkpt lat="49.10846" lon="2.01773">
        <ele>96.41</ele>
        <time>2018-02-18T09:31:31Z</time>
      </trkpt>
      <trkpt lat="49.10846" lon="2.01763">
        <ele>97.12</ele>
        <time>2018-02-18T09:31:43Z</time>
      </trkpt>
      <trkpt lat="49.10847" lon="2.01762">
        <ele>96.85</ele>
        <time>2018-02-18T09:31:44Z</time>
      </trkpt>
      <trkpt lat="49.10848" lon="2.0176">
        <ele>96.32</ele>
        <time>2018-02-18T09:31:45Z</time>
      </trkpt>
      <trkpt lat="49.10848" lon="2.01759">
        <ele>96.27</ele>
        <time>2018-02-18T09:31:46Z</time>
      </trkpt>
      <trkpt lat="49.10849" lon="2.01733">
        <ele>96.99</ele>
        <time>2018-02-18T09:32:02Z</time>
      </trkpt>
      <trkpt lat="49.1085" lon="2.01724">
        <ele>96.79</ele>
        <time>2018-02-18T09:32:07Z</time>
      </trkpt>
      <trkpt lat="49.1085" lon="2.01722">
        <ele>97.27</ele>
        <time>2018-02-18T09:32:08Z</time>
      </trkpt>
      <trkpt lat="49.1085" lon="2.01721">
        <ele>96.92</ele>
        <time>2018-02-18T09:32:09Z</time>
      </trkpt>
      <trkpt lat="49.10851" lon="2.017">
        <ele>96.73</ele>
        <time>2018-02-18T09:32:21Z</time>
      </trkpt>
      <trkpt lat="49.10852" lon="2.0169">
        <ele>97.64</ele>
        <time>2018-02-18T09:32:27Z</time>
      </trkpt>
      <trkpt lat="49.10852" lon="2.01688">
        <ele>97.47</ele>
        <time>2018-02-18T09:32:28Z</time>
      </trkpt>
      <trkpt lat="49.10853" lon="2.01662">
        <ele>98.35</ele>
        <time>2018-02-18T09:32:43Z</time>
      </trkpt>
      <trkpt lat="49.10855" lon="2.01639">
        <ele>98.59</ele>
        <time>2018-02-18T09:32:57Z</time>
      </trkpt>
      <trkpt lat="49.10859" lon="2.01611">
        <ele>98.2</ele>
        <time>2018-02-18T09:33:15Z</time>
      </trkpt>
      <trkpt lat="49.10864" lon="2.01582">
        <ele>99.51</ele>
        <time>2018-02-18T09:33:34Z</time>
      </trkpt>
      <trkpt lat="49.10867" lon="2.01571">
        <ele>100.42</ele>
        <time>2018-02-18T09:33:52Z</time>
      </trkpt>
      <trkpt lat="49.10868" lon="2.01562">
        <ele>99.97</ele>
        <time>2018-02-18T09:33:59Z</time>
      </trkpt>
      <trkpt lat="49.10869" lon="2.01561">
        <ele>100.14</ele>
        <time>2018-02-18T09:34:00Z</time>
      </trkpt>
      <trkpt lat="49.10874" lon="2.01535">
        <ele>101.1</ele>
        <time>2018-02-18T09:34:17Z</time>
      </trkpt>
      <trkpt lat="49.10879" lon="2.01509">
        <ele>101.42</ele>
        <time>2018-02-18T09:34:35Z</time>
      </trkpt>
      <trkpt lat="49.10884" lon="2.01488">
        <ele>101.56</ele>
        <time>2018-02-18T09:34:49Z</time>
      </trkpt>
      <trkpt lat="49.1089" lon="2.01463">
        <ele>102.79</ele>
        <time>2018-02-18T09:35:06Z</time>
      </trkpt>
      <trkpt lat="49.10896" lon="2.01432">
        <ele>102.73</ele>
        <time>2018-02-18T09:35:25Z</time>
      </trkpt>
      <trkpt lat="49.10901" lon="2.0141">
        <ele>103.94</ele>
        <time>2018-02-18T09:35:40Z</time>
      </trkpt>
      <trkpt lat="49.10902" lon="2.01398">
        <ele>103.38</ele>
        <time>2018-02-18T09:35:49Z</time>
      </trkpt>
      <trkpt lat="49.10903" lon="2.01396">
        <ele>103.3</ele>
        <time>2018-02-18T09:35:50Z</time>
      </trkpt>
      <trkpt lat="49.10907" lon="2.01374">
        <ele>104.19</ele>
        <time>2018-02-18T09:36:06Z</time>
      </trkpt>
      <trkpt lat="49.1091" lon="2.01363">
        <ele>104.6</ele>
        <time>2018-02-18T09:36:20Z</time>
      </trkpt>
      <trkpt lat="49.10914" lon="2.01352">
        <ele>104.84</ele>
        <time>2018-02-18T09:36:37Z</time>
      </trkpt>
      <trkpt lat="49.10916" lon="2.01342">
        <ele>104.6</ele>
        <time>2018-02-18T09:36:51Z</time>
      </trkpt>
      <trkpt lat="49.10923" lon="2.01322">
        <ele>105.42</ele>
        <time>2018-02-18T09:37:06Z</time>
      </trkpt>
      <trkpt lat="49.10933" lon="2.01304">
        <ele>105.48</ele>
        <time>2018-02-18T09:37:22Z</time>
      </trkpt>
      <trkpt lat="49.1094" lon="2.0129">
        <ele>105.55</ele>
        <time>2018-02-18T09:37:39Z</time>
      </trkpt>
      <trkpt lat="49.10947" lon="2.01279">
        <ele>105.4</ele>
        <time>2018-02-18T09:37:51Z</time>
      </trkpt>
      <trkpt lat="49.10957" lon="2.01271">
        <ele>105.22</ele>
        <time>2018-02-18T09:38:03Z</time>
      </trkpt>
      <trkpt lat="49.10958" lon="2.01271">
        <ele>105.22</ele>
        <time>2018-02-18T09:38:04Z</time>
      </trkpt>
      <trkpt lat="49.10959" lon="2.01271">
        <ele>105.21</ele>
        <time>2018-02-18T09:38:05Z</time>
      </trkpt>
      <trkpt lat="49.10969" lon="2.01264">
        <ele>105.98</ele>
        <time>2018-02-18T09:38:15Z</time>
      </trkpt>
      <trkpt lat="49.1097" lon="2.01262">
        <ele>106.29</ele>
        <time>2018-02-18T09:38:16Z</time>
      </trkpt>
      <trkpt lat="49.10971" lon="2.0126">
        <ele>106.09</ele>
        <time>2018-02-18T09:38:17Z</time>
      </trkpt>
      <trkpt lat="49.10972" lon="2.01258">
        <ele>106.22</ele>
        <time>2018-02-18T09:38:18Z</time>
      </trkpt>
      <trkpt lat="49.10974" lon="2.01256">
        <ele>105.48</ele>
        <time>2018-02-18T09:38:19Z</time>
      </trkpt>
      <trkpt lat="49.10984" lon="2.01236">
        <ele>106.2</ele>
        <time>2018-02-18T09:38:34Z</time>
      </trkpt>
      <trkpt lat="49.10994" lon="2.01221">
        <ele>105.99</ele>
        <time>2018-02-18T09:38:48Z</time>
      </trkpt>
      <trkpt lat="49.11003" lon="2.01204">
        <ele>106.49</ele>
        <time>2018-02-18T09:39:02Z</time>
      </trkpt>
      <trkpt lat="49.11005" lon="2.01201">
        <ele>106.52</ele>
        <time>2018-02-18T09:39:18Z</time>
      </trkpt>
      <trkpt lat="49.11005" lon="2.012">
        <ele>107.42</ele>
        <time>2018-02-18T09:39:41Z</time>
      </trkpt>
      <trkpt lat="49.11005" lon="2.012">
        <ele>106.92</ele>
        <time>2018-02-18T09:40:10Z</time>
      </trkpt>
      <trkpt lat="49.11003" lon="2.012">
        <ele>107.16</ele>
        <time>2018-02-18T09:40:41Z</time>
      </trkpt>
      <trkpt lat="49.11003" lon="2.01202">
        <ele>107.11</ele>
        <time>2018-02-18T09:41:03Z</time>
      </trkpt>
      <trkpt lat="49.11004" lon="2.01203">
        <ele>106.94</ele>
        <time>2018-02-18T09:41:24Z</time>
      </trkpt>
      <trkpt lat="49.11004" lon="2.01204">
        <ele>106.68</ele>
        <time>2018-02-18T09:41:50Z</time>
      </trkpt>
      <trkpt lat="49.11005" lon="2.01203">
        <ele>107.65</ele>
        <time>2018-02-18T09:42:18Z</time>
      </trkpt>
      <trkpt lat="49.11005" lon="2.01204">
        <ele>106.97</ele>
        <time>2018-02-18T09:42:44Z</time>
      </trkpt>
      <trkpt lat="49.11005" lon="2.01203">
        <ele>106.65</ele>
        <time>2018-02-18T09:43:05Z</time>
      </trkpt>
      <trkpt lat="49.11005" lon="2.01203">
        <ele>107.35</ele>
        <time>2018-02-18T09:43:29Z</time>
      </trkpt>
      <trkpt lat="49.11005" lon="2.01202">
        <ele>107.23</ele>
        <time>2018-02-18T09:43:51Z</time>
      </trkpt>
      <trkpt lat="49.11004" lon="2.01203">
        <ele>106.89</ele>
        <time>2018-02-18T09:44:12Z</time>
      </trkpt>
      <trkpt lat="49.11005" lon="2.01203">
        <ele>107.73</ele>
        <time>2018-02-18T09:44:33Z</time>
      </trkpt>
      <trkpt lat="49.11005" lon="2.01203">
        <ele>107.22</ele>
        <time>2018-02-18T09:45:01Z</time>
      </trkpt>
      <trkpt lat="49.11008" lon="2.01199">
        <ele>107.34</ele>
        <time>2018-02-18T09:45:23Z</time>
      </trkpt>
      <trkpt lat="49.11007" lon="2.01192">
        <ele>108.13</ele>
        <time>2018-02-18T09:45:39Z</time>
      </trkpt>
      <trkpt lat="49.11014" lon="2.01184">
        <ele>107.41</ele>
        <time>2018-02-18T09:45:52Z</time>
      </trkpt>
      <trkpt lat="49.11016" lon="2.01181">
        <ele>107.09</ele>
        <time>2018-02-18T09:45:55Z</time>
      </trkpt>
      <trkpt lat="49.11017" lon="2.0118">
        <ele>107.13</ele>
        <time>2018-02-18T09:45:56Z</time>
      </trkpt>
      <trkpt lat="49.11019" lon="2.01177">
        <ele>107.74</ele>
        <time>2018-02-18T09:45:59Z</time>
      </trkpt>
      <trkpt lat="49.1102" lon="2.01176">
        <ele>107.09</ele>
        <time>2018-02-18T09:46:00Z</time>
      </trkpt>
      <trkpt lat="49.1103" lon="2.01158">
        <ele>107.32</ele>
        <time>2018-02-18T09:46:14Z</time>
      </trkpt>
      <trkpt lat="49.11031" lon="2.01155">
        <ele>107.12</ele>
        <time>2018-02-18T09:46:16Z</time>
      </trkpt>
      <trkpt lat="49.11032" lon="2.01153">
        <ele>107.06</ele>
        <time>2018-02-18T09:46:17Z</time>
      </trkpt>
      <trkpt lat="49.11033" lon="2.01151">
        <ele>106.42</ele>
        <time>2018-02-18T09:46:18Z</time>
      </trkpt>
      <trkpt lat="49.11033" lon="2.0115">
        <ele>107.02</ele>
        <time>2018-02-18T09:46:19Z</time>
      </trkpt>
      <trkpt lat="49.11034" lon="2.01148">
        <ele>107.16</ele>
        <time>2018-02-18T09:46:20Z</time>
      </trkpt>
      <trkpt lat="49.11035" lon="2.01146">
        <ele>106.5</ele>
        <time>2018-02-18T09:46:21Z</time>
      </trkpt>
      <trkpt lat="49.11036" lon="2.01145">
        <ele>106.45</ele>
        <time>2018-02-18T09:46:22Z</time>
      </trkpt>
      <trkpt lat="49.11036" lon="2.01143">
        <ele>106.87</ele>
        <time>2018-02-18T09:46:23Z</time>
      </trkpt>
      <trkpt lat="49.11041" lon="2.01133">
        <ele>106.66</ele>
        <time>2018-02-18T09:46:33Z</time>
      </trkpt>
      <trkpt lat="49.11042" lon="2.01131">
        <ele>106.06</ele>
        <time>2018-02-18T09:46:34Z</time>
      </trkpt>
      <trkpt lat="49.11051" lon="2.01113">
        <ele>106.3</ele>
        <time>2018-02-18T09:46:48Z</time>
      </trkpt>
      <trkpt lat="49.11059" lon="2.011">
        <ele>106.02</ele>
        <time>2018-02-18T09:46:58Z</time>
      </trkpt>
      <trkpt lat="49.1107" lon="2.01079">
        <ele>105.3</ele>
        <time>2018-02-18T09:47:14Z</time>
      </trkpt>
      <trkpt lat="49.11081" lon="2.01059">
        <ele>104.96</ele>
        <time>2018-02-18T09:47:29Z</time>
      </trkpt>
      <trkpt lat="49.11082" lon="2.01058">
        <ele>105</ele>
        <time>2018-02-18T09:47:30Z</time>
      </trkpt>
      <trkpt lat="49.11082" lon="2.01057">
        <ele>105.35</ele>
        <time>2018-02-18T09:47:31Z</time>
      </trkpt>
      <trkpt lat="49.11093" lon="2.01038">
        <ele>104.42</ele>
        <time>2018-02-18T09:47:45Z</time>
      </trkpt>
      <trkpt lat="49.11105" lon="2.01016">
        <ele>104.5</ele>
        <time>2018-02-18T09:48:02Z</time>
      </trkpt>
      <trkpt lat="49.11116" lon="2.00998">
        <ele>104.73</ele>
        <time>2018-02-18T09:48:17Z</time>
      </trkpt>
      <trkpt lat="49.11117" lon="2.00997">
        <ele>104.19</ele>
        <time>2018-02-18T09:48:18Z</time>
      </trkpt>
      <trkpt lat="49.11118" lon="2.00996">
        <ele>103.72</ele>
        <time>2018-02-18T09:48:19Z</time>
      </trkpt>
      <trkpt lat="49.11119" lon="2.00995">
        <ele>104.2</ele>
        <time>2018-02-18T09:48:20Z</time>
      </trkpt>
      <trkpt lat="49.11132" lon="2.00973">
        <ele>103.25</ele>
        <time>2018-02-18T09:48:38Z</time>
      </trkpt>
      <trkpt lat="49.11144" lon="2.00954">
        <ele>102.36</ele>
        <time>2018-02-18T09:48:54Z</time>
      </trkpt>
      <trkpt lat="49.11155" lon="2.00935">
        <ele>101.7</ele>
        <time>2018-02-18T09:49:10Z</time>
      </trkpt>
      <trkpt lat="49.11162" lon="2.00925">
        <ele>101.63</ele>
        <time>2018-02-18T09:49:21Z</time>
      </trkpt>
      <trkpt lat="49.11169" lon="2.00912">
        <ele>101.58</ele>
        <time>2018-02-18T09:49:36Z</time>
      </trkpt>
      <trkpt lat="49.11178" lon="2.00898">
        <ele>100.77</ele>
        <time>2018-02-18T09:49:50Z</time>
      </trkpt>
      <trkpt lat="49.11184" lon="2.00887">
        <ele>101.62</ele>
        <time>2018-02-18T09:50:00Z</time>
      </trkpt>
      <trkpt lat="49.11184" lon="2.00886">
        <ele>101.64</ele>
        <time>2018-02-18T09:50:01Z</time>
      </trkpt>
      <trkpt lat="49.11186" lon="2.00882">
        <ele>101.36</ele>
        <time>2018-02-18T09:50:04Z</time>
      </trkpt>
      <trkpt lat="49.11187" lon="2.00881">
        <ele>101.19</ele>
        <time>2018-02-18T09:50:05Z</time>
      </trkpt>
      <trkpt lat="49.11196" lon="2.0086">
        <ele>101.72</ele>
        <time>2018-02-18T09:50:21Z</time>
      </trkpt>
      <trkpt lat="49.11204" lon="2.00845">
        <ele>101.35</ele>
        <time>2018-02-18T09:50:35Z</time>
      </trkpt>
      <trkpt lat="49.11211" lon="2.00827">
        <ele>101.2</ele>
        <time>2018-02-18T09:50:50Z</time>
      </trkpt>
      <trkpt lat="49.11219" lon="2.00809">
        <ele>101.48</ele>
        <time>2018-02-18T09:51:04Z</time>
      </trkpt>
      <trkpt lat="49.11219" lon="2.00807">
        <ele>101.55</ele>
        <time>2018-02-18T09:51:05Z</time>
      </trkpt>
      <trkpt lat="49.11225" lon="2.00789">
        <ele>101.47</ele>
        <time>2018-02-18T09:51:18Z</time>
      </trkpt>
      <trkpt lat="49.11231" lon="2.0077">
        <ele>101.08</ele>
        <time>2018-02-18T09:51:32Z</time>
      </trkpt>
      <trkpt lat="49.11236" lon="2.00747">
        <ele>101.27</ele>
        <time>2018-02-18T09:51:48Z</time>
      </trkpt>
      <trkpt lat="49.11239" lon="2.00732">
        <ele>101.6</ele>
        <time>2018-02-18T09:51:59Z</time>
      </trkpt>
      <trkpt lat="49.1124" lon="2.00722">
        <ele>101.33</ele>
        <time>2018-02-18T09:52:07Z</time>
      </trkpt>
      <trkpt lat="49.11241" lon="2.0072">
        <ele>101.41</ele>
        <time>2018-02-18T09:52:08Z</time>
      </trkpt>
      <trkpt lat="49.11241" lon="2.00719">
        <ele>101.83</ele>
        <time>2018-02-18T09:52:09Z</time>
      </trkpt>
      <trkpt lat="49.11245" lon="2.00697">
        <ele>101.98</ele>
        <time>2018-02-18T09:52:24Z</time>
      </trkpt>
      <trkpt lat="49.11249" lon="2.00681">
        <ele>102.1</ele>
        <time>2018-02-18T09:52:34Z</time>
      </trkpt>
      <trkpt lat="49.11254" lon="2.00652">
        <ele>102.12</ele>
        <time>2018-02-18T09:52:53Z</time>
      </trkpt>
      <trkpt lat="49.11259" lon="2.00628">
        <ele>102.76</ele>
        <time>2018-02-18T09:53:09Z</time>
      </trkpt>
      <trkpt lat="49.11264" lon="2.00603">
        <ele>103.08</ele>
        <time>2018-02-18T09:53:26Z</time>
      </trkpt>
      <trkpt lat="49.11269" lon="2.00582">
        <ele>102.61</ele>
        <time>2018-02-18T09:53:40Z</time>
      </trkpt>
      <trkpt lat="49.11273" lon="2.00555">
        <ele>103.6</ele>
        <time>2018-02-18T09:53:58Z</time>
      </trkpt>
      <trkpt lat="49.11276" lon="2.00535">
        <ele>103.5</ele>
        <time>2018-02-18T09:54:15Z</time>
      </trkpt>
      <trkpt lat="49.11279" lon="2.00514">
        <ele>104.18</ele>
        <time>2018-02-18T09:54:31Z</time>
      </trkpt>
      <trkpt lat="49.11279" lon="2.00509">
        <ele>104.27</ele>
        <time>2018-02-18T09:54:34Z</time>
      </trkpt>
      <trkpt lat="49.1128" lon="2.00493">
        <ele>104.12</ele>
        <time>2018-02-18T09:54:48Z</time>
      </trkpt>
      <trkpt lat="49.11281" lon="2.00489">
        <ele>104.32</ele>
        <time>2018-02-18T09:55:10Z</time>
      </trkpt>
      <trkpt lat="49.11283" lon="2.00491">
        <ele>104.55</ele>
        <time>2018-02-18T09:55:33Z</time>
      </trkpt>
      <trkpt lat="49.11282" lon="2.00491">
        <ele>104.73</ele>
        <time>2018-02-18T09:56:04Z</time>
      </trkpt>
      <trkpt lat="49.11282" lon="2.00491">
        <ele>103.99</ele>
        <time>2018-02-18T09:56:26Z</time>
      </trkpt>
      <trkpt lat="49.11282" lon="2.00487">
        <ele>104.27</ele>
        <time>2018-02-18T09:56:57Z</time>
      </trkpt>
      <trkpt lat="49.11284" lon="2.00482">
        <ele>105.07</ele>
        <time>2018-02-18T09:57:14Z</time>
      </trkpt>
      <trkpt lat="49.11284" lon="2.00476">
        <ele>105.07</ele>
        <time>2018-02-18T09:57:33Z</time>
      </trkpt>
      <trkpt lat="49.11283" lon="2.00469">
        <ele>104.52</ele>
        <time>2018-02-18T09:57:38Z</time>
      </trkpt>
      <trkpt lat="49.11285" lon="2.00454">
        <ele>104.75</ele>
        <time>2018-02-18T09:57:51Z</time>
      </trkpt>
      <trkpt lat="49.11286" lon="2.00447">
        <ele>105.01</ele>
        <time>2018-02-18T09:57:56Z</time>
      </trkpt>
      <trkpt lat="49.11286" lon="2.00419">
        <ele>104.19</ele>
        <time>2018-02-18T09:58:10Z</time>
      </trkpt>
      <trkpt lat="49.11287" lon="2.00407">
        <ele>104.81</ele>
        <time>2018-02-18T09:58:18Z</time>
      </trkpt>
      <trkpt lat="49.11288" lon="2.00385">
        <ele>105.61</ele>
        <time>2018-02-18T09:58:31Z</time>
      </trkpt>
      <trkpt lat="49.11289" lon="2.00362">
        <ele>105.85</ele>
        <time>2018-02-18T09:58:45Z</time>
      </trkpt>
      <trkpt lat="49.11292" lon="2.00338">
        <ele>106.57</ele>
        <time>2018-02-18T09:59:00Z</time>
      </trkpt>
      <trkpt lat="49.11295" lon="2.00311">
        <ele>107.09</ele>
        <time>2018-02-18T09:59:17Z</time>
      </trkpt>
      <trkpt lat="49.11298" lon="2.00288">
        <ele>107.77</ele>
        <time>2018-02-18T09:59:31Z</time>
      </trkpt>
      <trkpt lat="49.113" lon="2.00274">
        <ele>108.09</ele>
        <time>2018-02-18T09:59:39Z</time>
      </trkpt>
      <trkpt lat="49.11302" lon="2.00256">
        <ele>109.11</ele>
        <time>2018-02-18T09:59:52Z</time>
      </trkpt>
      <trkpt lat="49.11306" lon="2.00232">
        <ele>109.33</ele>
        <time>2018-02-18T10:00:07Z</time>
      </trkpt>
      <trkpt lat="49.11311" lon="2.0021">
        <ele>110.22</ele>
        <time>2018-02-18T10:00:22Z</time>
      </trkpt>
      <trkpt lat="49.11316" lon="2.00194">
        <ele>111.32</ele>
        <time>2018-02-18T10:00:34Z</time>
      </trkpt>
      <trkpt lat="49.11323" lon="2.00169">
        <ele>112.1</ele>
        <time>2018-02-18T10:00:50Z</time>
      </trkpt>
      <trkpt lat="49.11328" lon="2.0015">
        <ele>112.1</ele>
        <time>2018-02-18T10:01:04Z</time>
      </trkpt>
      <trkpt lat="49.11329" lon="2.00146">
        <ele>113.11</ele>
        <time>2018-02-18T10:01:07Z</time>
      </trkpt>
      <trkpt lat="49.11335" lon="2.00133">
        <ele>113.47</ele>
        <time>2018-02-18T10:01:19Z</time>
      </trkpt>
      <trkpt lat="49.11336" lon="2.00132">
        <ele>113.76</ele>
        <time>2018-02-18T10:01:20Z</time>
      </trkpt>
      <trkpt lat="49.11338" lon="2.00125">
        <ele>113.62</ele>
        <time>2018-02-18T10:01:25Z</time>
      </trkpt>
      <trkpt lat="49.11346" lon="2.00107">
        <ele>114.33</ele>
        <time>2018-02-18T10:01:39Z</time>
      </trkpt>
      <trkpt lat="49.11355" lon="2.0009">
        <ele>115.24</ele>
        <time>2018-02-18T10:01:53Z</time>
      </trkpt>
      <trkpt lat="49.11361" lon="2.00083">
        <ele>115.5</ele>
        <time>2018-02-18T10:02:04Z</time>
      </trkpt>
      <trkpt lat="49.11372" lon="2.00069">
        <ele>116</ele>
        <time>2018-02-18T10:02:20Z</time>
      </trkpt>
      <trkpt lat="49.1138" lon="2.00051">
        <ele>116.67</ele>
        <time>2018-02-18T10:02:35Z</time>
      </trkpt>
      <trkpt lat="49.11384" lon="2.00045">
        <ele>116.75</ele>
        <time>2018-02-18T10:02:40Z</time>
      </trkpt>
      <trkpt lat="49.11385" lon="2.00043">
        <ele>116.64</ele>
        <time>2018-02-18T10:02:41Z</time>
      </trkpt>
      <trkpt lat="49.11389" lon="2.00026">
        <ele>115.88</ele>
        <time>2018-02-18T10:02:52Z</time>
      </trkpt>
      <trkpt lat="49.11393" lon="2.00015">
        <ele>115.12</ele>
        <time>2018-02-18T10:03:01Z</time>
      </trkpt>
      <trkpt lat="49.11394" lon="2.00013">
        <ele>115.16</ele>
        <time>2018-02-18T10:03:02Z</time>
      </trkpt>
      <trkpt lat="49.114" lon="1.99996">
        <ele>114.64</ele>
        <time>2018-02-18T10:03:15Z</time>
      </trkpt>
      <trkpt lat="49.11406" lon="1.99982">
        <ele>115.1</ele>
        <time>2018-02-18T10:03:31Z</time>
      </trkpt>
      <trkpt lat="49.11406" lon="1.99981">
        <ele>114.48</ele>
        <time>2018-02-18T10:03:32Z</time>
      </trkpt>
      <trkpt lat="49.11409" lon="1.99978">
        <ele>114.61</ele>
        <time>2018-02-18T10:03:35Z</time>
      </trkpt>
      <trkpt lat="49.11419" lon="1.99962">
        <ele>115.6</ele>
        <time>2018-02-18T10:03:50Z</time>
      </trkpt>
      <trkpt lat="49.11421" lon="1.99959">
        <ele>115.14</ele>
        <time>2018-02-18T10:03:53Z</time>
      </trkpt>
      <trkpt lat="49.11422" lon="1.99958">
        <ele>115.45</ele>
        <time>2018-02-18T10:03:54Z</time>
      </trkpt>
      <trkpt lat="49.11436" lon="1.99937">
        <ele>115.35</ele>
        <time>2018-02-18T10:04:11Z</time>
      </trkpt>
      <trkpt lat="49.11439" lon="1.99928">
        <ele>115.34</ele>
        <time>2018-02-18T10:04:18Z</time>
      </trkpt>
      <trkpt lat="49.11441" lon="1.99924">
        <ele>115.36</ele>
        <time>2018-02-18T10:04:31Z</time>
      </trkpt>
      <trkpt lat="49.11443" lon="1.99921">
        <ele>115.2</ele>
        <time>2018-02-18T10:04:34Z</time>
      </trkpt>
      <trkpt lat="49.11444" lon="1.99919">
        <ele>115.86</ele>
        <time>2018-02-18T10:04:35Z</time>
      </trkpt>
      <trkpt lat="49.11444" lon="1.99918">
        <ele>115.27</ele>
        <time>2018-02-18T10:04:36Z</time>
      </trkpt>
      <trkpt lat="49.11445" lon="1.99916">
        <ele>115.64</ele>
        <time>2018-02-18T10:04:37Z</time>
      </trkpt>
      <trkpt lat="49.11446" lon="1.99915">
        <ele>115.64</ele>
        <time>2018-02-18T10:04:38Z</time>
      </trkpt>
      <trkpt lat="49.11447" lon="1.99913">
        <ele>115.46</ele>
        <time>2018-02-18T10:04:39Z</time>
      </trkpt>
      <trkpt lat="49.11447" lon="1.99911">
        <ele>115.47</ele>
        <time>2018-02-18T10:04:40Z</time>
      </trkpt>
      <trkpt lat="49.11448" lon="1.9991">
        <ele>115.3</ele>
        <time>2018-02-18T10:04:41Z</time>
      </trkpt>
      <trkpt lat="49.11449" lon="1.99908">
        <ele>115.24</ele>
        <time>2018-02-18T10:04:42Z</time>
      </trkpt>
      <trkpt lat="49.1145" lon="1.99906">
        <ele>115.36</ele>
        <time>2018-02-18T10:04:43Z</time>
      </trkpt>
      <trkpt lat="49.11458" lon="1.99889">
        <ele>114.84</ele>
        <time>2018-02-18T10:04:56Z</time>
      </trkpt>
      <trkpt lat="49.11464" lon="1.99874">
        <ele>114.41</ele>
        <time>2018-02-18T10:05:10Z</time>
      </trkpt>
      <trkpt lat="49.1147" lon="1.99863">
        <ele>114.93</ele>
        <time>2018-02-18T10:05:20Z</time>
      </trkpt>
      <trkpt lat="49.1148" lon="1.99847">
        <ele>113.84</ele>
        <time>2018-02-18T10:05:35Z</time>
      </trkpt>
      <trkpt lat="49.11489" lon="1.99832">
        <ele>113.81</ele>
        <time>2018-02-18T10:05:55Z</time>
      </trkpt>
      <trkpt lat="49.11495" lon="1.99822">
        <ele>114.18</ele>
        <time>2018-02-18T10:06:07Z</time>
      </trkpt>
      <trkpt lat="49.11504" lon="1.99811">
        <ele>114.47</ele>
        <time>2018-02-18T10:06:21Z</time>
      </trkpt>
      <trkpt lat="49.11507" lon="1.99808">
        <ele>114.1</ele>
        <time>2018-02-18T10:06:26Z</time>
      </trkpt>
      <trkpt lat="49.11514" lon="1.99795">
        <ele>113.89</ele>
        <time>2018-02-18T10:06:37Z</time>
      </trkpt>
      <trkpt lat="49.11522" lon="1.99782">
        <ele>113.93</ele>
        <time>2018-02-18T10:06:49Z</time>
      </trkpt>
      <trkpt lat="49.11523" lon="1.99781">
        <ele>114.48</ele>
        <time>2018-02-18T10:06:50Z</time>
      </trkpt>
      <trkpt lat="49.11524" lon="1.9978">
        <ele>113.76</ele>
        <time>2018-02-18T10:06:51Z</time>
      </trkpt>
      <trkpt lat="49.11525" lon="1.99779">
        <ele>113.7</ele>
        <time>2018-02-18T10:06:52Z</time>
      </trkpt>
      <trkpt lat="49.11534" lon="1.9976">
        <ele>113.84</ele>
        <time>2018-02-18T10:07:06Z</time>
      </trkpt>
      <trkpt lat="49.11545" lon="1.9974">
        <ele>114.28</ele>
        <time>2018-02-18T10:07:21Z</time>
      </trkpt>
      <trkpt lat="49.11556" lon="1.9972">
        <ele>114.54</ele>
        <time>2018-02-18T10:07:36Z</time>
      </trkpt>
      <trkpt lat="49.11568" lon="1.99699">
        <ele>114.3</ele>
        <time>2018-02-18T10:07:52Z</time>
      </trkpt>
      <trkpt lat="49.11576" lon="1.99684">
        <ele>114.01</ele>
        <time>2018-02-18T10:08:04Z</time>
      </trkpt>
      <trkpt lat="49.11576" lon="1.99683">
        <ele>114.46</ele>
        <time>2018-02-18T10:08:05Z</time>
      </trkpt>
      <trkpt lat="49.11586" lon="1.99664">
        <ele>114.39</ele>
        <time>2018-02-18T10:08:19Z</time>
      </trkpt>
      <trkpt lat="49.11592" lon="1.9965">
        <ele>114.32</ele>
        <time>2018-02-18T10:08:29Z</time>
      </trkpt>
      <trkpt lat="49.11605" lon="1.99625">
        <ele>114.7</ele>
        <time>2018-02-18T10:08:49Z</time>
      </trkpt>
      <trkpt lat="49.11607" lon="1.99619">
        <ele>114.54</ele>
        <time>2018-02-18T10:08:53Z</time>
      </trkpt>
      <trkpt lat="49.11608" lon="1.99618">
        <ele>114.52</ele>
        <time>2018-02-18T10:08:54Z</time>
      </trkpt>
      <trkpt lat="49.11609" lon="1.99617">
        <ele>114.45</ele>
        <time>2018-02-18T10:08:55Z</time>
      </trkpt>
      <trkpt lat="49.11609" lon="1.99615">
        <ele>114.44</ele>
        <time>2018-02-18T10:08:56Z</time>
      </trkpt>
      <trkpt lat="49.11618" lon="1.99594">
        <ele>114.42</ele>
        <time>2018-02-18T10:09:12Z</time>
      </trkpt>
      <trkpt lat="49.1162" lon="1.9959">
        <ele>114.7</ele>
        <time>2018-02-18T10:09:15Z</time>
      </trkpt>
      <trkpt lat="49.11621" lon="1.99589">
        <ele>114.48</ele>
        <time>2018-02-18T10:09:16Z</time>
      </trkpt>
      <trkpt lat="49.11632" lon="1.99567">
        <ele>114.63</ele>
        <time>2018-02-18T10:09:33Z</time>
      </trkpt>
      <trkpt lat="49.11642" lon="1.99548">
        <ele>114.83</ele>
        <time>2018-02-18T10:09:47Z</time>
      </trkpt>
      <trkpt lat="49.11647" lon="1.99538">
        <ele>114.96</ele>
        <time>2018-02-18T10:09:55Z</time>
      </trkpt>
      <trkpt lat="49.11651" lon="1.99533">
        <ele>114.76</ele>
        <time>2018-02-18T10:09:59Z</time>
      </trkpt>
      <trkpt lat="49.11656" lon="1.99525">
        <ele>114.44</ele>
        <time>2018-02-18T10:10:06Z</time>
      </trkpt>
      <trkpt lat="49.11657" lon="1.99523">
        <ele>114.59</ele>
        <time>2018-02-18T10:10:08Z</time>
      </trkpt>
      <trkpt lat="49.11658" lon="1.99521">
        <ele>114.35</ele>
        <time>2018-02-18T10:10:09Z</time>
      </trkpt>
      <trkpt lat="49.11669" lon="1.99504">
        <ele>114.91</ele>
        <time>2018-02-18T10:10:25Z</time>
      </trkpt>
      <trkpt lat="49.1168" lon="1.9949">
        <ele>114.62</ele>
        <time>2018-02-18T10:10:38Z</time>
      </trkpt>
      <trkpt lat="49.11691" lon="1.99478">
        <ele>114.42</ele>
        <time>2018-02-18T10:10:53Z</time>
      </trkpt>
      <trkpt lat="49.11692" lon="1.99477">
        <ele>114.34</ele>
        <time>2018-02-18T10:10:54Z</time>
      </trkpt>
      <trkpt lat="49.11702" lon="1.99461">
        <ele>114.23</ele>
        <time>2018-02-18T10:11:10Z</time>
      </trkpt>
      <trkpt lat="49.11703" lon="1.99459">
        <ele>114.1</ele>
        <time>2018-02-18T10:11:12Z</time>
      </trkpt>
      <trkpt lat="49.11707" lon="1.99454">
        <ele>114.52</ele>
        <time>2018-02-18T10:11:17Z</time>
      </trkpt>
      <trkpt lat="49.11716" lon="1.9944">
        <ele>114.03</ele>
        <time>2018-02-18T10:11:31Z</time>
      </trkpt>
      <trkpt lat="49.11717" lon="1.99438">
        <ele>114.08</ele>
        <time>2018-02-18T10:11:33Z</time>
      </trkpt>
      <trkpt lat="49.11718" lon="1.99437">
        <ele>114.08</ele>
        <time>2018-02-18T10:11:34Z</time>
      </trkpt>
      <trkpt lat="49.11725" lon="1.99425">
        <ele>113.87</ele>
        <time>2018-02-18T10:11:45Z</time>
      </trkpt>
      <trkpt lat="49.11735" lon="1.99411">
        <ele>112.74</ele>
        <time>2018-02-18T10:11:59Z</time>
      </trkpt>
      <trkpt lat="49.11747" lon="1.99401">
        <ele>112.43</ele>
        <time>2018-02-18T10:12:13Z</time>
      </trkpt>
      <trkpt lat="49.11748" lon="1.994">
        <ele>112.42</ele>
        <time>2018-02-18T10:12:14Z</time>
      </trkpt>
      <trkpt lat="49.11749" lon="1.99399">
        <ele>112.29</ele>
        <time>2018-02-18T10:12:15Z</time>
      </trkpt>
      <trkpt lat="49.1175" lon="1.99398">
        <ele>112.05</ele>
        <time>2018-02-18T10:12:16Z</time>
      </trkpt>
      <trkpt lat="49.11764" lon="1.99385">
        <ele>112.06</ele>
        <time>2018-02-18T10:12:32Z</time>
      </trkpt>
      <trkpt lat="49.11776" lon="1.99374">
        <ele>110.92</ele>
        <time>2018-02-18T10:12:46Z</time>
      </trkpt>
      <trkpt lat="49.11786" lon="1.99365">
        <ele>111.19</ele>
        <time>2018-02-18T10:13:02Z</time>
      </trkpt>
      <trkpt lat="49.11799" lon="1.99359">
        <ele>111.63</ele>
        <time>2018-02-18T10:13:16Z</time>
      </trkpt>
      <trkpt lat="49.11802" lon="1.99356">
        <ele>112.03</ele>
        <time>2018-02-18T10:13:19Z</time>
      </trkpt>
      <trkpt lat="49.11813" lon="1.99348">
        <ele>111.38</ele>
        <time>2018-02-18T10:13:30Z</time>
      </trkpt>
      <trkpt lat="49.11814" lon="1.99348">
        <ele>111.66</ele>
        <time>2018-02-18T10:13:31Z</time>
      </trkpt>
      <trkpt lat="49.11815" lon="1.99347">
        <ele>111.14</ele>
        <time>2018-02-18T10:13:32Z</time>
      </trkpt>
      <trkpt lat="49.11816" lon="1.99347">
        <ele>111.63</ele>
        <time>2018-02-18T10:13:33Z</time>
      </trkpt>
      <trkpt lat="49.11817" lon="1.99346">
        <ele>111.54</ele>
        <time>2018-02-18T10:13:34Z</time>
      </trkpt>
      <trkpt lat="49.11825" lon="1.9934">
        <ele>111.88</ele>
        <time>2018-02-18T10:13:41Z</time>
      </trkpt>
      <trkpt lat="49.11826" lon="1.9934">
        <ele>111.62</ele>
        <time>2018-02-18T10:13:42Z</time>
      </trkpt>
      <trkpt lat="49.11841" lon="1.99329">
        <ele>111.95</ele>
        <time>2018-02-18T10:13:57Z</time>
      </trkpt>
      <trkpt lat="49.11851" lon="1.99322">
        <ele>112.09</ele>
        <time>2018-02-18T10:14:08Z</time>
      </trkpt>
      <trkpt lat="49.11853" lon="1.99321">
        <ele>112.55</ele>
        <time>2018-02-18T10:14:10Z</time>
      </trkpt>
      <trkpt lat="49.11857" lon="1.99317">
        <ele>111.83</ele>
        <time>2018-02-18T10:14:15Z</time>
      </trkpt>
      <trkpt lat="49.11859" lon="1.99316">
        <ele>112.51</ele>
        <time>2018-02-18T10:14:17Z</time>
      </trkpt>
      <trkpt lat="49.11877" lon="1.99303">
        <ele>113.23</ele>
        <time>2018-02-18T10:14:35Z</time>
      </trkpt>
      <trkpt lat="49.11879" lon="1.99302">
        <ele>113.15</ele>
        <time>2018-02-18T10:14:37Z</time>
      </trkpt>
      <trkpt lat="49.11881" lon="1.99301">
        <ele>112.28</ele>
        <time>2018-02-18T10:14:39Z</time>
      </trkpt>
      <trkpt lat="49.11882" lon="1.993">
        <ele>112.42</ele>
        <time>2018-02-18T10:14:40Z</time>
      </trkpt>
      <trkpt lat="49.11899" lon="1.9929">
        <ele>113.06</ele>
        <time>2018-02-18T10:14:55Z</time>
      </trkpt>
      <trkpt lat="49.11902" lon="1.99288">
        <ele>113.24</ele>
        <time>2018-02-18T10:14:58Z</time>
      </trkpt>
      <trkpt lat="49.11903" lon="1.99288">
        <ele>112.71</ele>
        <time>2018-02-18T10:14:59Z</time>
      </trkpt>
      <trkpt lat="49.11905" lon="1.99287">
        <ele>112.59</ele>
        <time>2018-02-18T10:15:00Z</time>
      </trkpt>
      <trkpt lat="49.11911" lon="1.99283">
        <ele>113.48</ele>
        <time>2018-02-18T10:15:05Z</time>
      </trkpt>
      <trkpt lat="49.11912" lon="1.99283">
        <ele>113.41</ele>
        <time>2018-02-18T10:15:06Z</time>
      </trkpt>
      <trkpt lat="49.11913" lon="1.99282">
        <ele>112.64</ele>
        <time>2018-02-18T10:15:07Z</time>
      </trkpt>
      <trkpt lat="49.11914" lon="1.99282">
        <ele>113.05</ele>
        <time>2018-02-18T10:15:08Z</time>
      </trkpt>
      <trkpt lat="49.11915" lon="1.99282">
        <ele>112.69</ele>
        <time>2018-02-18T10:15:09Z</time>
      </trkpt>
      <trkpt lat="49.11928" lon="1.99274">
        <ele>112.72</ele>
        <time>2018-02-18T10:15:24Z</time>
      </trkpt>
      <trkpt lat="49.11944" lon="1.99264">
        <ele>114.53</ele>
        <time>2018-02-18T10:15:41Z</time>
      </trkpt>
      <trkpt lat="49.11954" lon="1.99258">
        <ele>114.72</ele>
        <time>2018-02-18T10:15:52Z</time>
      </trkpt>
      <trkpt lat="49.11955" lon="1.99257">
        <ele>114.35</ele>
        <time>2018-02-18T10:15:53Z</time>
      </trkpt>
      <trkpt lat="49.11956" lon="1.99257">
        <ele>114.24</ele>
        <time>2018-02-18T10:15:54Z</time>
      </trkpt>
      <trkpt lat="49.11957" lon="1.99256">
        <ele>114.39</ele>
        <time>2018-02-18T10:15:55Z</time>
      </trkpt>
      <trkpt lat="49.11959" lon="1.99256">
        <ele>114.44</ele>
        <time>2018-02-18T10:15:56Z</time>
      </trkpt>
      <trkpt lat="49.1196" lon="1.99255">
        <ele>114.66</ele>
        <time>2018-02-18T10:15:57Z</time>
      </trkpt>
      <trkpt lat="49.11963" lon="1.99254">
        <ele>114.73</ele>
        <time>2018-02-18T10:16:00Z</time>
      </trkpt>
      <trkpt lat="49.11976" lon="1.99248">
        <ele>115.38</ele>
        <time>2018-02-18T10:16:15Z</time>
      </trkpt>
      <trkpt lat="49.11989" lon="1.99241">
        <ele>116.15</ele>
        <time>2018-02-18T10:16:29Z</time>
      </trkpt>
      <trkpt lat="49.1199" lon="1.99241">
        <ele>115.41</ele>
        <time>2018-02-18T10:16:30Z</time>
      </trkpt>
      <trkpt lat="49.11992" lon="1.99239">
        <ele>115.33</ele>
        <time>2018-02-18T10:16:33Z</time>
      </trkpt>
      <trkpt lat="49.12006" lon="1.99232">
        <ele>116.15</ele>
        <time>2018-02-18T10:16:48Z</time>
      </trkpt>
      <trkpt lat="49.1201" lon="1.9923">
        <ele>116.03</ele>
        <time>2018-02-18T10:16:51Z</time>
      </trkpt>
      <trkpt lat="49.12024" lon="1.99222">
        <ele>115.64</ele>
        <time>2018-02-18T10:17:05Z</time>
      </trkpt>
      <trkpt lat="49.12031" lon="1.99216">
        <ele>115.71</ele>
        <time>2018-02-18T10:17:13Z</time>
      </trkpt>
      <trkpt lat="49.12045" lon="1.992">
        <ele>115.8</ele>
        <time>2018-02-18T10:17:29Z</time>
      </trkpt>
      <trkpt lat="49.12052" lon="1.99191">
        <ele>115.82</ele>
        <time>2018-02-18T10:17:38Z</time>
      </trkpt>
      <trkpt lat="49.12066" lon="1.99175">
        <ele>115.97</ele>
        <time>2018-02-18T10:17:54Z</time>
      </trkpt>
      <trkpt lat="49.12067" lon="1.99174">
        <ele>115.98</ele>
        <time>2018-02-18T10:17:56Z</time>
      </trkpt>
      <trkpt lat="49.12077" lon="1.99168">
        <ele>115.71</ele>
        <time>2018-02-18T10:18:11Z</time>
      </trkpt>
      <trkpt lat="49.12082" lon="1.99166">
        <ele>115.4</ele>
        <time>2018-02-18T10:18:31Z</time>
      </trkpt>
      <trkpt lat="49.12084" lon="1.99166">
        <ele>114.86</ele>
        <time>2018-02-18T10:19:05Z</time>
      </trkpt>
      <trkpt lat="49.12084" lon="1.99168">
        <ele>114.93</ele>
        <time>2018-02-18T10:19:27Z</time>
      </trkpt>
      <trkpt lat="49.12082" lon="1.99168">
        <ele>114.64</ele>
        <time>2018-02-18T10:19:58Z</time>
      </trkpt>
      <trkpt lat="49.12082" lon="1.99168">
        <ele>114.56</ele>
        <time>2018-02-18T10:20:25Z</time>
      </trkpt>
      <trkpt lat="49.12083" lon="1.99169">
        <ele>115.03</ele>
        <time>2018-02-18T10:20:41Z</time>
      </trkpt>
      <trkpt lat="49.12082" lon="1.99168">
        <ele>114.87</ele>
        <time>2018-02-18T10:21:11Z</time>
      </trkpt>
      <trkpt lat="49.12082" lon="1.99169">
        <ele>114.28</ele>
        <time>2018-02-18T10:21:36Z</time>
      </trkpt>
      <trkpt lat="49.12081" lon="1.99169">
        <ele>114.49</ele>
        <time>2018-02-18T10:22:05Z</time>
      </trkpt>
      <trkpt lat="49.12082" lon="1.99165">
        <ele>114.55</ele>
        <time>2018-02-18T10:22:27Z</time>
      </trkpt>
      <trkpt lat="49.12085" lon="1.99169">
        <ele>114.63</ele>
        <time>2018-02-18T10:22:35Z</time>
      </trkpt>
      <trkpt lat="49.12094" lon="1.9918">
        <ele>115.08</ele>
        <time>2018-02-18T10:22:48Z</time>
      </trkpt>
      <trkpt lat="49.12105" lon="1.99188">
        <ele>115.36</ele>
        <time>2018-02-18T10:23:04Z</time>
      </trkpt>
      <trkpt lat="49.12107" lon="1.99188">
        <ele>114.96</ele>
        <time>2018-02-18T10:23:07Z</time>
      </trkpt>
      <trkpt lat="49.12118" lon="1.9919">
        <ele>115.34</ele>
        <time>2018-02-18T10:23:20Z</time>
      </trkpt>
      <trkpt lat="49.1213" lon="1.99193">
        <ele>115.94</ele>
        <time>2018-02-18T10:23:33Z</time>
      </trkpt>
      <trkpt lat="49.12137" lon="1.99195">
        <ele>116.07</ele>
        <time>2018-02-18T10:23:40Z</time>
      </trkpt>
      <trkpt lat="49.1214" lon="1.99196">
        <ele>116.24</ele>
        <time>2018-02-18T10:23:43Z</time>
      </trkpt>
      <trkpt lat="49.12141" lon="1.99196">
        <ele>116.01</ele>
        <time>2018-02-18T10:23:44Z</time>
      </trkpt>
      <trkpt lat="49.12144" lon="1.99196">
        <ele>116.5</ele>
        <time>2018-02-18T10:23:46Z</time>
      </trkpt>
      <trkpt lat="49.12145" lon="1.99197">
        <ele>116.05</ele>
        <time>2018-02-18T10:23:47Z</time>
      </trkpt>
      <trkpt lat="49.12146" lon="1.99197">
        <ele>115.86</ele>
        <time>2018-02-18T10:23:48Z</time>
      </trkpt>
      <trkpt lat="49.12147" lon="1.99197">
        <ele>116.6</ele>
        <time>2018-02-18T10:23:49Z</time>
      </trkpt>
      <trkpt lat="49.12162" lon="1.992">
        <ele>116.76</ele>
        <time>2018-02-18T10:24:04Z</time>
      </trkpt>
      <trkpt lat="49.12176" lon="1.99203">
        <ele>117.36</ele>
        <time>2018-02-18T10:24:17Z</time>
      </trkpt>
      <trkpt lat="49.12191" lon="1.99208">
        <ele>117.34</ele>
        <time>2018-02-18T10:24:32Z</time>
      </trkpt>
      <trkpt lat="49.12206" lon="1.99213">
        <ele>117.52</ele>
        <time>2018-02-18T10:24:46Z</time>
      </trkpt>
      <trkpt lat="49.12221" lon="1.99221">
        <ele>118.27</ele>
        <time>2018-02-18T10:25:01Z</time>
      </trkpt>
      <trkpt lat="49.12234" lon="1.9923">
        <ele>118.6</ele>
        <time>2018-02-18T10:25:15Z</time>
      </trkpt>
      <trkpt lat="49.12251" lon="1.99242">
        <ele>119.31</ele>
        <time>2018-02-18T10:25:32Z</time>
      </trkpt>
      <trkpt lat="49.12265" lon="1.99253">
        <ele>120.18</ele>
        <time>2018-02-18T10:25:47Z</time>
      </trkpt>
      <trkpt lat="49.12279" lon="1.99269">
        <ele>121.35</ele>
        <time>2018-02-18T10:26:04Z</time>
      </trkpt>
      <trkpt lat="49.12289" lon="1.99283">
        <ele>121.41</ele>
        <time>2018-02-18T10:26:17Z</time>
      </trkpt>
      <trkpt lat="49.123" lon="1.99301">
        <ele>123.26</ele>
        <time>2018-02-18T10:26:33Z</time>
      </trkpt>
      <trkpt lat="49.1231" lon="1.9932">
        <ele>124.52</ele>
        <time>2018-02-18T10:26:48Z</time>
      </trkpt>
      <trkpt lat="49.12319" lon="1.99337">
        <ele>125.81</ele>
        <time>2018-02-18T10:27:05Z</time>
      </trkpt>
      <trkpt lat="49.1233" lon="1.99357">
        <ele>127.17</ele>
        <time>2018-02-18T10:27:23Z</time>
      </trkpt>
      <trkpt lat="49.12335" lon="1.99382">
        <ele>128.85</ele>
        <time>2018-02-18T10:27:41Z</time>
      </trkpt>
      <trkpt lat="49.12337" lon="1.99388">
        <ele>128.77</ele>
        <time>2018-02-18T10:27:45Z</time>
      </trkpt>
      <trkpt lat="49.1234" lon="1.99392">
        <ele>129.39</ele>
        <time>2018-02-18T10:27:48Z</time>
      </trkpt>
      <trkpt lat="49.12341" lon="1.99394">
        <ele>129.18</ele>
        <time>2018-02-18T10:27:49Z</time>
      </trkpt>
      <trkpt lat="49.12345" lon="1.99412">
        <ele>130.08</ele>
        <time>2018-02-18T10:27:59Z</time>
      </trkpt>
      <trkpt lat="49.12346" lon="1.99418">
        <ele>130</ele>
        <time>2018-02-18T10:28:03Z</time>
      </trkpt>
      <trkpt lat="49.1235" lon="1.99434">
        <ele>131.54</ele>
        <time>2018-02-18T10:28:15Z</time>
      </trkpt>
      <trkpt lat="49.12353" lon="1.99444">
        <ele>131.89</ele>
        <time>2018-02-18T10:28:22Z</time>
      </trkpt>
      <trkpt lat="49.12359" lon="1.99458">
        <ele>132.99</ele>
        <time>2018-02-18T10:28:34Z</time>
      </trkpt>
      <trkpt lat="49.12367" lon="1.99473">
        <ele>134.84</ele>
        <time>2018-02-18T10:28:48Z</time>
      </trkpt>
      <trkpt lat="49.12378" lon="1.99486">
        <ele>135.95</ele>
        <time>2018-02-18T10:29:02Z</time>
      </trkpt>
      <trkpt lat="49.12382" lon="1.99489">
        <ele>135.15</ele>
        <time>2018-02-18T10:29:06Z</time>
      </trkpt>
      <trkpt lat="49.12391" lon="1.99495">
        <ele>136.66</ele>
        <time>2018-02-18T10:29:14Z</time>
      </trkpt>
      <trkpt lat="49.12401" lon="1.99513">
        <ele>136.96</ele>
        <time>2018-02-18T10:29:27Z</time>
      </trkpt>
      <trkpt lat="49.12418" lon="1.99521">
        <ele>136.71</ele>
        <time>2018-02-18T10:29:41Z</time>
      </trkpt>
      <trkpt lat="49.12437" lon="1.99536">
        <ele>136.79</ele>
        <time>2018-02-18T10:29:59Z</time>
      </trkpt>
      <trkpt lat="49.12454" lon="1.99546">
        <ele>136.73</ele>
        <time>2018-02-18T10:30:15Z</time>
      </trkpt>
      <trkpt lat="49.12469" lon="1.99559">
        <ele>136.74</ele>
        <time>2018-02-18T10:30:30Z</time>
      </trkpt>
      <trkpt lat="49.12488" lon="1.99567">
        <ele>137.14</ele>
        <time>2018-02-18T10:30:47Z</time>
      </trkpt>
      <trkpt lat="49.12504" lon="1.99578">
        <ele>137.92</ele>
        <time>2018-02-18T10:31:03Z</time>
      </trkpt>
      <trkpt lat="49.12512" lon="1.99584">
        <ele>138.19</ele>
        <time>2018-02-18T10:31:10Z</time>
      </trkpt>
      <trkpt lat="49.12513" lon="1.99585">
        <ele>137.92</ele>
        <time>2018-02-18T10:31:11Z</time>
      </trkpt>
      <trkpt lat="49.12523" lon="1.99589">
        <ele>138.42</ele>
        <time>2018-02-18T10:31:23Z</time>
      </trkpt>
      <trkpt lat="49.12527" lon="1.99591">
        <ele>139.37</ele>
        <time>2018-02-18T10:31:28Z</time>
      </trkpt>
      <trkpt lat="49.12529" lon="1.99592">
        <ele>139.13</ele>
        <time>2018-02-18T10:31:29Z</time>
      </trkpt>
      <trkpt lat="49.12534" lon="1.99596">
        <ele>139.74</ele>
        <time>2018-02-18T10:31:35Z</time>
      </trkpt>
      <trkpt lat="49.12547" lon="1.99605">
        <ele>140.72</ele>
        <time>2018-02-18T10:31:48Z</time>
      </trkpt>
      <trkpt lat="49.12562" lon="1.99617">
        <ele>142.8</ele>
        <time>2018-02-18T10:32:04Z</time>
      </trkpt>
      <trkpt lat="49.12563" lon="1.99625">
        <ele>142.76</ele>
        <time>2018-02-18T10:32:25Z</time>
      </trkpt>
      <trkpt lat="49.12562" lon="1.99628">
        <ele>143</ele>
        <time>2018-02-18T10:32:52Z</time>
      </trkpt>
      <trkpt lat="49.12568" lon="1.99633">
        <ele>143.3</ele>
        <time>2018-02-18T10:33:02Z</time>
      </trkpt>
      <trkpt lat="49.12571" lon="1.99642">
        <ele>144.06</ele>
        <time>2018-02-18T10:33:09Z</time>
      </trkpt>
      <trkpt lat="49.12574" lon="1.99662">
        <ele>145.42</ele>
        <time>2018-02-18T10:33:21Z</time>
      </trkpt>
      <trkpt lat="49.12574" lon="1.99663">
        <ele>145.22</ele>
        <time>2018-02-18T10:33:22Z</time>
      </trkpt>
      <trkpt lat="49.12576" lon="1.9967">
        <ele>146.21</ele>
        <time>2018-02-18T10:33:28Z</time>
      </trkpt>
      <trkpt lat="49.12576" lon="1.99672">
        <ele>146.33</ele>
        <time>2018-02-18T10:33:29Z</time>
      </trkpt>
      <trkpt lat="49.12575" lon="1.99674">
        <ele>146.94</ele>
        <time>2018-02-18T10:33:30Z</time>
      </trkpt>
      <trkpt lat="49.12571" lon="1.99703">
        <ele>148.7</ele>
        <time>2018-02-18T10:33:45Z</time>
      </trkpt>
      <trkpt lat="49.12571" lon="1.99705">
        <ele>148.31</ele>
        <time>2018-02-18T10:33:46Z</time>
      </trkpt>
      <trkpt lat="49.12566" lon="1.9973">
        <ele>148.97</ele>
        <time>2018-02-18T10:34:01Z</time>
      </trkpt>
      <trkpt lat="49.12564" lon="1.99749">
        <ele>149.64</ele>
        <time>2018-02-18T10:34:13Z</time>
      </trkpt>
      <trkpt lat="49.1256" lon="1.99767">
        <ele>150.3</ele>
        <time>2018-02-18T10:34:26Z</time>
      </trkpt>
      <trkpt lat="49.1256" lon="1.99769">
        <ele>150.58</ele>
        <time>2018-02-18T10:34:27Z</time>
      </trkpt>
      <trkpt lat="49.12557" lon="1.99787">
        <ele>150.5</ele>
        <time>2018-02-18T10:34:41Z</time>
      </trkpt>
      <trkpt lat="49.12554" lon="1.99795">
        <ele>150.28</ele>
        <time>2018-02-18T10:34:47Z</time>
      </trkpt>
      <trkpt lat="49.12548" lon="1.9981">
        <ele>151.05</ele>
        <time>2018-02-18T10:34:57Z</time>
      </trkpt>
      <trkpt lat="49.12539" lon="1.99839">
        <ele>151.23</ele>
        <time>2018-02-18T10:35:18Z</time>
      </trkpt>
      <trkpt lat="49.12529" lon="1.99867">
        <ele>151.17</ele>
        <time>2018-02-18T10:35:40Z</time>
      </trkpt>
      <trkpt lat="49.12529" lon="1.99878">
        <ele>151.37</ele>
        <time>2018-02-18T10:35:59Z</time>
      </trkpt>
      <trkpt lat="49.12529" lon="1.99886">
        <ele>151.23</ele>
        <time>2018-02-18T10:36:18Z</time>
      </trkpt>
      <trkpt lat="49.1253" lon="1.99893">
        <ele>151.26</ele>
        <time>2018-02-18T10:36:45Z</time>
      </trkpt>
      <trkpt lat="49.12533" lon="1.99909">
        <ele>153.78</ele>
        <time>2018-02-18T10:37:05Z</time>
      </trkpt>
      <trkpt lat="49.12539" lon="1.99935">
        <ele>153.35</ele>
        <time>2018-02-18T10:37:27Z</time>
      </trkpt>
      <trkpt lat="49.12545" lon="1.99963">
        <ele>152.87</ele>
        <time>2018-02-18T10:37:44Z</time>
      </trkpt>
      <trkpt lat="49.1255" lon="1.99974">
        <ele>152.87</ele>
        <time>2018-02-18T10:37:55Z</time>
      </trkpt>
      <trkpt lat="49.12551" lon="1.99975">
        <ele>152.81</ele>
        <time>2018-02-18T10:37:56Z</time>
      </trkpt>
      <trkpt lat="49.12552" lon="1.99979">
        <ele>152.61</ele>
        <time>2018-02-18T10:37:58Z</time>
      </trkpt>
      <trkpt lat="49.12559" lon="1.99999">
        <ele>152.19</ele>
        <time>2018-02-18T10:38:12Z</time>
      </trkpt>
      <trkpt lat="49.12558" lon="2.00008">
        <ele>152.66</ele>
        <time>2018-02-18T10:38:17Z</time>
      </trkpt>
      <trkpt lat="49.12559" lon="2.00021">
        <ele>152.04</ele>
        <time>2018-02-18T10:38:34Z</time>
      </trkpt>
      <trkpt lat="49.12559" lon="2.00026">
        <ele>152</ele>
        <time>2018-02-18T10:38:40Z</time>
      </trkpt>
      <trkpt lat="49.12559" lon="2.00037">
        <ele>152.3</ele>
        <time>2018-02-18T10:38:46Z</time>
      </trkpt>
      <trkpt lat="49.12555" lon="2.00046">
        <ele>151.43</ele>
        <time>2018-02-18T10:38:52Z</time>
      </trkpt>
      <trkpt lat="49.12541" lon="2.00061">
        <ele>152.57</ele>
        <time>2018-02-18T10:39:09Z</time>
      </trkpt>
      <trkpt lat="49.12536" lon="2.00066">
        <ele>152.5</ele>
        <time>2018-02-18T10:39:15Z</time>
      </trkpt>
      <trkpt lat="49.12524" lon="2.00078">
        <ele>152.85</ele>
        <time>2018-02-18T10:39:33Z</time>
      </trkpt>
      <trkpt lat="49.12521" lon="2.00082">
        <ele>152.66</ele>
        <time>2018-02-18T10:39:38Z</time>
      </trkpt>
      <trkpt lat="49.1251" lon="2.00097">
        <ele>153.48</ele>
        <time>2018-02-18T10:39:54Z</time>
      </trkpt>
      <trkpt lat="49.12505" lon="2.00112">
        <ele>152.78</ele>
        <time>2018-02-18T10:40:11Z</time>
      </trkpt>
      <trkpt lat="49.12502" lon="2.00135">
        <ele>154.08</ele>
        <time>2018-02-18T10:40:32Z</time>
      </trkpt>
      <trkpt lat="49.12504" lon="2.00158">
        <ele>152.78</ele>
        <time>2018-02-18T10:40:48Z</time>
      </trkpt>
      <trkpt lat="49.1251" lon="2.00161">
        <ele>152.4</ele>
        <time>2018-02-18T10:41:02Z</time>
      </trkpt>
      <trkpt lat="49.12513" lon="2.0016">
        <ele>152.23</ele>
        <time>2018-02-18T10:41:06Z</time>
      </trkpt>
      <trkpt lat="49.12527" lon="2.00153">
        <ele>150.97</ele>
        <time>2018-02-18T10:41:20Z</time>
      </trkpt>
      <trkpt lat="49.12544" lon="2.00144">
        <ele>150.33</ele>
        <time>2018-02-18T10:41:37Z</time>
      </trkpt>
      <trkpt lat="49.12552" lon="2.00143">
        <ele>149.26</ele>
        <time>2018-02-18T10:41:44Z</time>
      </trkpt>
      <trkpt lat="49.12573" lon="2.00149">
        <ele>148.23</ele>
        <time>2018-02-18T10:42:03Z</time>
      </trkpt>
      <trkpt lat="49.1259" lon="2.00155">
        <ele>147.34</ele>
        <time>2018-02-18T10:42:22Z</time>
      </trkpt>
      <trkpt lat="49.12651" lon="2.00224">
        <ele>137.67</ele>
        <time>2018-02-18T10:43:51Z</time>
      </trkpt>
      <trkpt lat="49.12663" lon="2.00239">
        <ele>136.92</ele>
        <time>2018-02-18T10:44:06Z</time>
      </trkpt>
      <trkpt lat="49.12665" lon="2.0024">
        <ele>136.41</ele>
        <time>2018-02-18T10:44:08Z</time>
      </trkpt>
      <trkpt lat="49.12676" lon="2.00253">
        <ele>134.46</ele>
        <time>2018-02-18T10:44:25Z</time>
      </trkpt>
      <trkpt lat="49.1269" lon="2.0027">
        <ele>133.41</ele>
        <time>2018-02-18T10:44:45Z</time>
      </trkpt>
      <trkpt lat="49.12699" lon="2.00281">
        <ele>131.3</ele>
        <time>2018-02-18T10:44:56Z</time>
      </trkpt>
      <trkpt lat="49.12708" lon="2.00293">
        <ele>129.72</ele>
        <time>2018-02-18T10:45:10Z</time>
      </trkpt>
      <trkpt lat="49.12719" lon="2.00303">
        <ele>128.26</ele>
        <time>2018-02-18T10:45:25Z</time>
      </trkpt>
      <trkpt lat="49.1273" lon="2.00314">
        <ele>127.34</ele>
        <time>2018-02-18T10:45:39Z</time>
      </trkpt>
      <trkpt lat="49.1274" lon="2.00326">
        <ele>126.19</ele>
        <time>2018-02-18T10:45:53Z</time>
      </trkpt>
      <trkpt lat="49.12746" lon="2.00334">
        <ele>126.24</ele>
        <time>2018-02-18T10:46:00Z</time>
      </trkpt>
      <trkpt lat="49.12749" lon="2.0034">
        <ele>125.71</ele>
        <time>2018-02-18T10:46:05Z</time>
      </trkpt>
      <trkpt lat="49.12754" lon="2.00347">
        <ele>125.38</ele>
        <time>2018-02-18T10:46:11Z</time>
      </trkpt>
      <trkpt lat="49.12764" lon="2.00371">
        <ele>124.76</ele>
        <time>2018-02-18T10:46:30Z</time>
      </trkpt>
      <trkpt lat="49.12772" lon="2.00393">
        <ele>124.63</ele>
        <time>2018-02-18T10:46:45Z</time>
      </trkpt>
      <trkpt lat="49.12775" lon="2.00405">
        <ele>124.32</ele>
        <time>2018-02-18T10:46:52Z</time>
      </trkpt>
      <trkpt lat="49.12781" lon="2.00429">
        <ele>123.43</ele>
        <time>2018-02-18T10:47:07Z</time>
      </trkpt>
      <trkpt lat="49.12784" lon="2.00458">
        <ele>123.14</ele>
        <time>2018-02-18T10:47:24Z</time>
      </trkpt>
      <trkpt lat="49.12787" lon="2.00487">
        <ele>122.48</ele>
        <time>2018-02-18T10:47:42Z</time>
      </trkpt>
      <trkpt lat="49.12789" lon="2.00498">
        <ele>122.66</ele>
        <time>2018-02-18T10:47:49Z</time>
      </trkpt>
      <trkpt lat="49.12791" lon="2.00507">
        <ele>122.19</ele>
        <time>2018-02-18T10:47:55Z</time>
      </trkpt>
      <trkpt lat="49.12792" lon="2.00521">
        <ele>121.89</ele>
        <time>2018-02-18T10:48:04Z</time>
      </trkpt>
      <trkpt lat="49.12795" lon="2.00531">
        <ele>121.09</ele>
        <time>2018-02-18T10:48:11Z</time>
      </trkpt>
      <trkpt lat="49.12796" lon="2.00535">
        <ele>122.71</ele>
        <time>2018-02-18T10:48:14Z</time>
      </trkpt>
      <trkpt lat="49.12799" lon="2.00541">
        <ele>122.12</ele>
        <time>2018-02-18T10:48:18Z</time>
      </trkpt>
      <trkpt lat="49.12807" lon="2.00561">
        <ele>122.06</ele>
        <time>2018-02-18T10:48:32Z</time>
      </trkpt>
      <trkpt lat="49.12815" lon="2.00582">
        <ele>121.33</ele>
        <time>2018-02-18T10:48:46Z</time>
      </trkpt>
      <trkpt lat="49.12825" lon="2.00604">
        <ele>120.93</ele>
        <time>2018-02-18T10:49:01Z</time>
      </trkpt>
      <trkpt lat="49.12836" lon="2.00626">
        <ele>120.22</ele>
        <time>2018-02-18T10:49:17Z</time>
      </trkpt>
      <trkpt lat="49.12849" lon="2.00648">
        <ele>119.96</ele>
        <time>2018-02-18T10:49:33Z</time>
      </trkpt>
      <trkpt lat="49.1286" lon="2.00668">
        <ele>119.96</ele>
        <time>2018-02-18T10:49:48Z</time>
      </trkpt>
      <trkpt lat="49.12863" lon="2.00673">
        <ele>120.27</ele>
        <time>2018-02-18T10:49:52Z</time>
      </trkpt>
      <trkpt lat="49.12877" lon="2.00694">
        <ele>119.76</ele>
        <time>2018-02-18T10:50:08Z</time>
      </trkpt>
      <trkpt lat="49.12891" lon="2.00715">
        <ele>119.71</ele>
        <time>2018-02-18T10:50:24Z</time>
      </trkpt>
      <trkpt lat="49.12897" lon="2.00725">
        <ele>119.03</ele>
        <time>2018-02-18T10:50:33Z</time>
      </trkpt>
      <trkpt lat="49.12909" lon="2.00744">
        <ele>119.11</ele>
        <time>2018-02-18T10:50:48Z</time>
      </trkpt>
      <trkpt lat="49.12922" lon="2.00766">
        <ele>118.86</ele>
        <time>2018-02-18T10:51:05Z</time>
      </trkpt>
      <trkpt lat="49.12939" lon="2.00792">
        <ele>118.41</ele>
        <time>2018-02-18T10:51:25Z</time>
      </trkpt>
      <trkpt lat="49.12941" lon="2.00796">
        <ele>118.12</ele>
        <time>2018-02-18T10:51:28Z</time>
      </trkpt>
      <trkpt lat="49.12955" lon="2.00816">
        <ele>118.61</ele>
        <time>2018-02-18T10:51:45Z</time>
      </trkpt>
      <trkpt lat="49.12965" lon="2.00833">
        <ele>118.34</ele>
        <time>2018-02-18T10:51:58Z</time>
      </trkpt>
      <trkpt lat="49.12967" lon="2.00839">
        <ele>118.35</ele>
        <time>2018-02-18T10:52:02Z</time>
      </trkpt>
      <trkpt lat="49.12981" lon="2.0086">
        <ele>117.79</ele>
        <time>2018-02-18T10:52:21Z</time>
      </trkpt>
      <trkpt lat="49.12993" lon="2.00876">
        <ele>117.79</ele>
        <time>2018-02-18T10:52:36Z</time>
      </trkpt>
      <trkpt lat="49.12993" lon="2.00882">
        <ele>118.07</ele>
        <time>2018-02-18T10:52:46Z</time>
      </trkpt>
      <trkpt lat="49.12994" lon="2.00884">
        <ele>117.9</ele>
        <time>2018-02-18T10:53:10Z</time>
      </trkpt>
      <trkpt lat="49.12997" lon="2.00886">
        <ele>117.53</ele>
        <time>2018-02-18T10:53:38Z</time>
      </trkpt>
      <trkpt lat="49.13004" lon="2.00893">
        <ele>118.56</ele>
        <time>2018-02-18T10:53:50Z</time>
      </trkpt>
      <trkpt lat="49.13018" lon="2.00915">
        <ele>117.64</ele>
        <time>2018-02-18T10:54:07Z</time>
      </trkpt>
      <trkpt lat="49.1302" lon="2.0092">
        <ele>117.79</ele>
        <time>2018-02-18T10:54:12Z</time>
      </trkpt>
      <trkpt lat="49.13021" lon="2.00925">
        <ele>118.67</ele>
        <time>2018-02-18T10:54:15Z</time>
      </trkpt>
      <trkpt lat="49.13032" lon="2.00943">
        <ele>118.38</ele>
        <time>2018-02-18T10:54:29Z</time>
      </trkpt>
      <trkpt lat="49.13046" lon="2.00965">
        <ele>119.17</ele>
        <time>2018-02-18T10:54:46Z</time>
      </trkpt>
      <trkpt lat="49.13058" lon="2.00982">
        <ele>117.96</ele>
        <time>2018-02-18T10:55:02Z</time>
      </trkpt>
      <trkpt lat="49.1307" lon="2.01001">
        <ele>117.91</ele>
        <time>2018-02-18T10:55:18Z</time>
      </trkpt>
      <trkpt lat="49.1308" lon="2.01018">
        <ele>118.11</ele>
        <time>2018-02-18T10:55:32Z</time>
      </trkpt>
      <trkpt lat="49.13093" lon="2.01038">
        <ele>118.51</ele>
        <time>2018-02-18T10:55:48Z</time>
      </trkpt>
      <trkpt lat="49.13098" lon="2.01046">
        <ele>118.13</ele>
        <time>2018-02-18T10:55:55Z</time>
      </trkpt>
      <trkpt lat="49.13111" lon="2.01068">
        <ele>118.61</ele>
        <time>2018-02-18T10:56:12Z</time>
      </trkpt>
      <trkpt lat="49.13122" lon="2.01085">
        <ele>117.69</ele>
        <time>2018-02-18T10:56:26Z</time>
      </trkpt>
      <trkpt lat="49.13124" lon="2.01089">
        <ele>117.32</ele>
        <time>2018-02-18T10:56:43Z</time>
      </trkpt>
      <trkpt lat="49.13131" lon="2.01096">
        <ele>117.95</ele>
        <time>2018-02-18T10:56:54Z</time>
      </trkpt>
      <trkpt lat="49.13144" lon="2.01115">
        <ele>117.66</ele>
        <time>2018-02-18T10:57:09Z</time>
      </trkpt>
      <trkpt lat="49.13159" lon="2.01137">
        <ele>118.56</ele>
        <time>2018-02-18T10:57:26Z</time>
      </trkpt>
      <trkpt lat="49.13165" lon="2.01146">
        <ele>118.24</ele>
        <time>2018-02-18T10:57:33Z</time>
      </trkpt>
      <trkpt lat="49.13179" lon="2.01167">
        <ele>118.91</ele>
        <time>2018-02-18T10:57:51Z</time>
      </trkpt>
      <trkpt lat="49.13192" lon="2.01185">
        <ele>118.89</ele>
        <time>2018-02-18T10:58:06Z</time>
      </trkpt>
      <trkpt lat="49.13197" lon="2.01192">
        <ele>118.3</ele>
        <time>2018-02-18T10:58:12Z</time>
      </trkpt>
      <trkpt lat="49.13211" lon="2.01205">
        <ele>119.16</ele>
        <time>2018-02-18T10:58:26Z</time>
      </trkpt>
      <trkpt lat="49.13227" lon="2.01214">
        <ele>118.29</ele>
        <time>2018-02-18T10:58:41Z</time>
      </trkpt>
      <trkpt lat="49.13229" lon="2.01215">
        <ele>118.74</ele>
        <time>2018-02-18T10:58:43Z</time>
      </trkpt>
      <trkpt lat="49.13249" lon="2.01227">
        <ele>119.01</ele>
        <time>2018-02-18T10:59:01Z</time>
      </trkpt>
      <trkpt lat="49.13266" lon="2.01235">
        <ele>118.49</ele>
        <time>2018-02-18T10:59:17Z</time>
      </trkpt>
      <trkpt lat="49.13276" lon="2.01239">
        <ele>119.45</ele>
        <time>2018-02-18T10:59:26Z</time>
      </trkpt>
      <trkpt lat="49.13289" lon="2.01247">
        <ele>118.98</ele>
        <time>2018-02-18T10:59:40Z</time>
      </trkpt>
      <trkpt lat="49.13306" lon="2.01257">
        <ele>119.47</ele>
        <time>2018-02-18T10:59:56Z</time>
      </trkpt>
      <trkpt lat="49.1331" lon="2.0126">
        <ele>119.38</ele>
        <time>2018-02-18T11:00:01Z</time>
      </trkpt>
      <trkpt lat="49.13325" lon="2.01269">
        <ele>119.4</ele>
        <time>2018-02-18T11:00:15Z</time>
      </trkpt>
      <trkpt lat="49.13341" lon="2.01279">
        <ele>119.79</ele>
        <time>2018-02-18T11:00:31Z</time>
      </trkpt>
      <trkpt lat="49.13349" lon="2.01283">
        <ele>118.91</ele>
        <time>2018-02-18T11:00:45Z</time>
      </trkpt>
      <trkpt lat="49.13351" lon="2.01288">
        <ele>120.13</ele>
        <time>2018-02-18T11:00:58Z</time>
      </trkpt>
      <trkpt lat="49.13351" lon="2.01287">
        <ele>120.52</ele>
        <time>2018-02-18T11:01:13Z</time>
      </trkpt>
      <trkpt lat="49.13349" lon="2.01286">
        <ele>120.56</ele>
        <time>2018-02-18T11:01:36Z</time>
      </trkpt>
      <trkpt lat="49.13351" lon="2.01283">
        <ele>119.65</ele>
        <time>2018-02-18T11:01:56Z</time>
      </trkpt>
      <trkpt lat="49.13354" lon="2.01276">
        <ele>119.49</ele>
        <time>2018-02-18T11:02:05Z</time>
      </trkpt>
      <trkpt lat="49.13355" lon="2.01273">
        <ele>120.07</ele>
        <time>2018-02-18T11:02:07Z</time>
      </trkpt>
      <trkpt lat="49.13356" lon="2.01269">
        <ele>120.09</ele>
        <time>2018-02-18T11:02:10Z</time>
      </trkpt>
      <trkpt lat="49.13363" lon="2.01247">
        <ele>119.57</ele>
        <time>2018-02-18T11:02:25Z</time>
      </trkpt>
      <trkpt lat="49.13369" lon="2.01227">
        <ele>118.74</ele>
        <time>2018-02-18T11:02:41Z</time>
      </trkpt>
      <trkpt lat="49.13377" lon="2.01207">
        <ele>116.86</ele>
        <time>2018-02-18T11:02:55Z</time>
      </trkpt>
      <trkpt lat="49.13386" lon="2.01176">
        <ele>115.37</ele>
        <time>2018-02-18T11:03:15Z</time>
      </trkpt>
      <trkpt lat="49.13388" lon="2.01172">
        <ele>115.39</ele>
        <time>2018-02-18T11:03:18Z</time>
      </trkpt>
      <trkpt lat="49.13397" lon="2.01145">
        <ele>114.58</ele>
        <time>2018-02-18T11:03:36Z</time>
      </trkpt>
      <trkpt lat="49.13407" lon="2.01117">
        <ele>114.25</ele>
        <time>2018-02-18T11:03:55Z</time>
      </trkpt>
      <trkpt lat="49.13413" lon="2.01096">
        <ele>113.39</ele>
        <time>2018-02-18T11:04:10Z</time>
      </trkpt>
      <trkpt lat="49.13417" lon="2.01082">
        <ele>112.87</ele>
        <time>2018-02-18T11:04:19Z</time>
      </trkpt>
      <trkpt lat="49.13423" lon="2.01062">
        <ele>111.67</ele>
        <time>2018-02-18T11:04:33Z</time>
      </trkpt>
      <trkpt lat="49.13428" lon="2.01045">
        <ele>111.25</ele>
        <time>2018-02-18T11:04:44Z</time>
      </trkpt>
      <trkpt lat="49.13433" lon="2.0103">
        <ele>110.72</ele>
        <time>2018-02-18T11:04:53Z</time>
      </trkpt>
      <trkpt lat="49.13441" lon="2.01008">
        <ele>109.8</ele>
        <time>2018-02-18T11:05:07Z</time>
      </trkpt>
      <trkpt lat="49.13444" lon="2.00997">
        <ele>109.38</ele>
        <time>2018-02-18T11:05:14Z</time>
      </trkpt>
      <trkpt lat="49.13448" lon="2.00985">
        <ele>109.02</ele>
        <time>2018-02-18T11:05:22Z</time>
      </trkpt>
      <trkpt lat="49.13451" lon="2.00978">
        <ele>108.75</ele>
        <time>2018-02-18T11:05:28Z</time>
      </trkpt>
      <trkpt lat="49.13455" lon="2.00966">
        <ele>108.63</ele>
        <time>2018-02-18T11:05:35Z</time>
      </trkpt>
      <trkpt lat="49.13457" lon="2.00957">
        <ele>108.24</ele>
        <time>2018-02-18T11:05:40Z</time>
      </trkpt>
      <trkpt lat="49.13469" lon="2.00926">
        <ele>107.37</ele>
        <time>2018-02-18T11:05:59Z</time>
      </trkpt>
      <trkpt lat="49.13476" lon="2.00898">
        <ele>107.03</ele>
        <time>2018-02-18T11:06:15Z</time>
      </trkpt>
      <trkpt lat="49.13482" lon="2.00883">
        <ele>107.54</ele>
        <time>2018-02-18T11:06:25Z</time>
      </trkpt>
      <trkpt lat="49.13484" lon="2.00877">
        <ele>107.53</ele>
        <time>2018-02-18T11:06:29Z</time>
      </trkpt>
      <trkpt lat="49.13491" lon="2.00855">
        <ele>107.24</ele>
        <time>2018-02-18T11:06:44Z</time>
      </trkpt>
      <trkpt lat="49.13493" lon="2.00844">
        <ele>107.06</ele>
        <time>2018-02-18T11:06:52Z</time>
      </trkpt>
      <trkpt lat="49.13495" lon="2.00838">
        <ele>107.02</ele>
        <time>2018-02-18T11:06:56Z</time>
      </trkpt>
      <trkpt lat="49.13496" lon="2.00835">
        <ele>107.19</ele>
        <time>2018-02-18T11:06:58Z</time>
      </trkpt>
      <trkpt lat="49.13504" lon="2.00809">
        <ele>107.2</ele>
        <time>2018-02-18T11:07:15Z</time>
      </trkpt>
      <trkpt lat="49.13507" lon="2.008">
        <ele>106.8</ele>
        <time>2018-02-18T11:07:21Z</time>
      </trkpt>
      <trkpt lat="49.13513" lon="2.00782">
        <ele>107.1</ele>
        <time>2018-02-18T11:07:34Z</time>
      </trkpt>
      <trkpt lat="49.13517" lon="2.0077">
        <ele>107.29</ele>
        <time>2018-02-18T11:07:43Z</time>
      </trkpt>
      <trkpt lat="49.13524" lon="2.00752">
        <ele>107.34</ele>
        <time>2018-02-18T11:07:56Z</time>
      </trkpt>
      <trkpt lat="49.13531" lon="2.00732">
        <ele>107.22</ele>
        <time>2018-02-18T11:08:10Z</time>
      </trkpt>
      <trkpt lat="49.13531" lon="2.0073">
        <ele>107.37</ele>
        <time>2018-02-18T11:08:11Z</time>
      </trkpt>
      <trkpt lat="49.13539" lon="2.00707">
        <ele>107.47</ele>
        <time>2018-02-18T11:08:27Z</time>
      </trkpt>
      <trkpt lat="49.13541" lon="2.00701">
        <ele>107.4</ele>
        <time>2018-02-18T11:08:31Z</time>
      </trkpt>
      <trkpt lat="49.13541" lon="2.00698">
        <ele>107.77</ele>
        <time>2018-02-18T11:08:33Z</time>
      </trkpt>
      <trkpt lat="49.13546" lon="2.00685">
        <ele>107.59</ele>
        <time>2018-02-18T11:08:42Z</time>
      </trkpt>
      <trkpt lat="49.13548" lon="2.00678">
        <ele>107.47</ele>
        <time>2018-02-18T11:08:47Z</time>
      </trkpt>
      <trkpt lat="49.13556" lon="2.00656">
        <ele>107.97</ele>
        <time>2018-02-18T11:09:03Z</time>
      </trkpt>
      <trkpt lat="49.13568" lon="2.00648">
        <ele>108.22</ele>
        <time>2018-02-18T11:09:17Z</time>
      </trkpt>
      <trkpt lat="49.13569" lon="2.00648">
        <ele>108.17</ele>
        <time>2018-02-18T11:09:18Z</time>
      </trkpt>
      <trkpt lat="49.13583" lon="2.00658">
        <ele>108.19</ele>
        <time>2018-02-18T11:09:33Z</time>
      </trkpt>
      <trkpt lat="49.13595" lon="2.00668">
        <ele>108.19</ele>
        <time>2018-02-18T11:09:46Z</time>
      </trkpt>
      <trkpt lat="49.13607" lon="2.00679">
        <ele>107.63</ele>
        <time>2018-02-18T11:10:00Z</time>
      </trkpt>
      <trkpt lat="49.13619" lon="2.00689">
        <ele>107.1</ele>
        <time>2018-02-18T11:10:13Z</time>
      </trkpt>
      <trkpt lat="49.1363" lon="2.00698">
        <ele>107.31</ele>
        <time>2018-02-18T11:10:26Z</time>
      </trkpt>
      <trkpt lat="49.13644" lon="2.00709">
        <ele>106.74</ele>
        <time>2018-02-18T11:10:40Z</time>
      </trkpt>
      <trkpt lat="49.13656" lon="2.00718">
        <ele>105.99</ele>
        <time>2018-02-18T11:10:52Z</time>
      </trkpt>
      <trkpt lat="49.1367" lon="2.00729">
        <ele>106.02</ele>
        <time>2018-02-18T11:11:07Z</time>
      </trkpt>
      <trkpt lat="49.13687" lon="2.00741">
        <ele>105.65</ele>
        <time>2018-02-18T11:11:23Z</time>
      </trkpt>
      <trkpt lat="49.13702" lon="2.00752">
        <ele>105.46</ele>
        <time>2018-02-18T11:11:39Z</time>
      </trkpt>
      <trkpt lat="49.13716" lon="2.00763">
        <ele>105.3</ele>
        <time>2018-02-18T11:11:54Z</time>
      </trkpt>
      <trkpt lat="49.13729" lon="2.00772">
        <ele>106.67</ele>
        <time>2018-02-18T11:12:07Z</time>
      </trkpt>
      <trkpt lat="49.13742" lon="2.00781">
        <ele>107.24</ele>
        <time>2018-02-18T11:12:21Z</time>
      </trkpt>
      <trkpt lat="49.13754" lon="2.00791">
        <ele>107.66</ele>
        <time>2018-02-18T11:12:33Z</time>
      </trkpt>
      <trkpt lat="49.13768" lon="2.00801">
        <ele>107.77</ele>
        <time>2018-02-18T11:12:47Z</time>
      </trkpt>
      <trkpt lat="49.13782" lon="2.0081">
        <ele>108.38</ele>
        <time>2018-02-18T11:13:00Z</time>
      </trkpt>
      <trkpt lat="49.13787" lon="2.0081">
        <ele>108.42</ele>
        <time>2018-02-18T11:13:05Z</time>
      </trkpt>
      <trkpt lat="49.13791" lon="2.00807">
        <ele>107.75</ele>
        <time>2018-02-18T11:13:09Z</time>
      </trkpt>
      <trkpt lat="49.13801" lon="2.00781">
        <ele>107.19</ele>
        <time>2018-02-18T11:13:27Z</time>
      </trkpt>
      <trkpt lat="49.13809" lon="2.00756">
        <ele>106.04</ele>
        <time>2018-02-18T11:13:44Z</time>
      </trkpt>
      <trkpt lat="49.13817" lon="2.00727">
        <ele>105.27</ele>
        <time>2018-02-18T11:14:02Z</time>
      </trkpt>
      <trkpt lat="49.13824" lon="2.00702">
        <ele>105.02</ele>
        <time>2018-02-18T11:14:19Z</time>
      </trkpt>
      <trkpt lat="49.13829" lon="2.0069">
        <ele>104.33</ele>
        <time>2018-02-18T11:14:29Z</time>
      </trkpt>
      <trkpt lat="49.13839" lon="2.00665">
        <ele>104.06</ele>
        <time>2018-02-18T11:14:46Z</time>
      </trkpt>
      <trkpt lat="49.13839" lon="2.00663">
        <ele>104.44</ele>
        <time>2018-02-18T11:14:48Z</time>
      </trkpt>
      <trkpt lat="49.13847" lon="2.00653">
        <ele>103.47</ele>
        <time>2018-02-18T11:15:03Z</time>
      </trkpt>
      <trkpt lat="49.13846" lon="2.00661">
        <ele>103.87</ele>
        <time>2018-02-18T11:15:23Z</time>
      </trkpt>
      <trkpt lat="49.13853" lon="2.00665">
        <ele>103.75</ele>
        <time>2018-02-18T11:15:54Z</time>
      </trkpt>
      <trkpt lat="49.13848" lon="2.00664">
        <ele>103.79</ele>
        <time>2018-02-18T11:16:20Z</time>
      </trkpt>
      <trkpt lat="49.13847" lon="2.00664">
        <ele>104.34</ele>
        <time>2018-02-18T11:16:42Z</time>
      </trkpt>
      <trkpt lat="49.13854" lon="2.00662">
        <ele>104.18</ele>
        <time>2018-02-18T11:17:07Z</time>
      </trkpt>
      <trkpt lat="49.13859" lon="2.00633">
        <ele>104.55</ele>
        <time>2018-02-18T11:17:30Z</time>
      </trkpt>
      <trkpt lat="49.1386" lon="2.00625">
        <ele>104.51</ele>
        <time>2018-02-18T11:17:35Z</time>
      </trkpt>
      <trkpt lat="49.13867" lon="2.00614">
        <ele>103.96</ele>
        <time>2018-02-18T11:17:50Z</time>
      </trkpt>
      <trkpt lat="49.13876" lon="2.00606">
        <ele>103.76</ele>
        <time>2018-02-18T11:18:08Z</time>
      </trkpt>
      <trkpt lat="49.13879" lon="2.00605">
        <ele>104.41</ele>
        <time>2018-02-18T11:18:11Z</time>
      </trkpt>
      <trkpt lat="49.13896" lon="2.00595">
        <ele>104.68</ele>
        <time>2018-02-18T11:18:30Z</time>
      </trkpt>
      <trkpt lat="49.13912" lon="2.00588">
        <ele>104.78</ele>
        <time>2018-02-18T11:18:47Z</time>
      </trkpt>
      <trkpt lat="49.13924" lon="2.00583">
        <ele>105.03</ele>
        <time>2018-02-18T11:19:05Z</time>
      </trkpt>
      <trkpt lat="49.13944" lon="2.00572">
        <ele>105.48</ele>
        <time>2018-02-18T11:19:23Z</time>
      </trkpt>
      <trkpt lat="49.13965" lon="2.00563">
        <ele>104.7</ele>
        <time>2018-02-18T11:19:44Z</time>
      </trkpt>
      <trkpt lat="49.13986" lon="2.00556">
        <ele>105.75</ele>
        <time>2018-02-18T11:20:01Z</time>
      </trkpt>
      <trkpt lat="49.14003" lon="2.00551">
        <ele>107.34</ele>
        <time>2018-02-18T11:20:17Z</time>
      </trkpt>
      <trkpt lat="49.14023" lon="2.00544">
        <ele>109.02</ele>
        <time>2018-02-18T11:20:36Z</time>
      </trkpt>
      <trkpt lat="49.14041" lon="2.00544">
        <ele>110.11</ele>
        <time>2018-02-18T11:20:53Z</time>
      </trkpt>
      <trkpt lat="49.14046" lon="2.00549">
        <ele>109.44</ele>
        <time>2018-02-18T11:21:13Z</time>
      </trkpt>
      <trkpt lat="49.14049" lon="2.00553">
        <ele>109.77</ele>
        <time>2018-02-18T11:21:43Z</time>
      </trkpt>
      <trkpt lat="49.1405" lon="2.00569">
        <ele>109.49</ele>
        <time>2018-02-18T11:21:59Z</time>
      </trkpt>
      <trkpt lat="49.14047" lon="2.00586">
        <ele>109.43</ele>
        <time>2018-02-18T11:22:10Z</time>
      </trkpt>
      <trkpt lat="49.14044" lon="2.00613">
        <ele>109.84</ele>
        <time>2018-02-18T11:22:29Z</time>
      </trkpt>
      <trkpt lat="49.14035" lon="2.0065">
        <ele>109.59</ele>
        <time>2018-02-18T11:22:49Z</time>
      </trkpt>
      <trkpt lat="49.14028" lon="2.0069">
        <ele>109.52</ele>
        <time>2018-02-18T11:23:10Z</time>
      </trkpt>
      <trkpt lat="49.14024" lon="2.00715">
        <ele>109.97</ele>
        <time>2018-02-18T11:23:32Z</time>
      </trkpt>
      <trkpt lat="49.14019" lon="2.00744">
        <ele>109.58</ele>
        <time>2018-02-18T11:23:51Z</time>
      </trkpt>
      <trkpt lat="49.14013" lon="2.00772">
        <ele>109.2</ele>
        <time>2018-02-18T11:24:09Z</time>
      </trkpt>
      <trkpt lat="49.14009" lon="2.00811">
        <ele>109</ele>
        <time>2018-02-18T11:24:27Z</time>
      </trkpt>
      <trkpt lat="49.14005" lon="2.00828">
        <ele>108.83</ele>
        <time>2018-02-18T11:24:41Z</time>
      </trkpt>
      <trkpt lat="49.14002" lon="2.00829">
        <ele>108.81</ele>
        <time>2018-02-18T11:25:07Z</time>
      </trkpt>
      <trkpt lat="49.14002" lon="2.00823">
        <ele>107.82</ele>
        <time>2018-02-18T11:25:26Z</time>
      </trkpt>
      <trkpt lat="49.14008" lon="2.00829">
        <ele>108.31</ele>
        <time>2018-02-18T11:25:54Z</time>
      </trkpt>
      <trkpt lat="49.14025" lon="2.00843">
        <ele>108.97</ele>
        <time>2018-02-18T11:26:14Z</time>
      </trkpt>
      <trkpt lat="49.14037" lon="2.00863">
        <ele>109.16</ele>
        <time>2018-02-18T11:26:30Z</time>
      </trkpt>
      <trkpt lat="49.14047" lon="2.00878">
        <ele>109.18</ele>
        <time>2018-02-18T11:26:45Z</time>
      </trkpt>
      <trkpt lat="49.1406" lon="2.00899">
        <ele>109.05</ele>
        <time>2018-02-18T11:27:03Z</time>
      </trkpt>
      <trkpt lat="49.14074" lon="2.00917">
        <ele>110.17</ele>
        <time>2018-02-18T11:27:23Z</time>
      </trkpt>
      <trkpt lat="49.14082" lon="2.00931">
        <ele>110.17</ele>
        <time>2018-02-18T11:27:39Z</time>
      </trkpt>
      <trkpt lat="49.14088" lon="2.00936">
        <ele>110.26</ele>
        <time>2018-02-18T11:28:03Z</time>
      </trkpt>
      <trkpt lat="49.14102" lon="2.00957">
        <ele>110.16</ele>
        <time>2018-02-18T11:28:20Z</time>
      </trkpt>
      <trkpt lat="49.14109" lon="2.00965">
        <ele>110.1</ele>
        <time>2018-02-18T11:28:29Z</time>
      </trkpt>
      <trkpt lat="49.14118" lon="2.00975">
        <ele>110.31</ele>
        <time>2018-02-18T11:28:44Z</time>
      </trkpt>
      <trkpt lat="49.14118" lon="2.00973">
        <ele>109.35</ele>
        <time>2018-02-18T11:29:07Z</time>
      </trkpt>
      <trkpt lat="49.1413" lon="2.00973">
        <ele>110.04</ele>
        <time>2018-02-18T11:29:31Z</time>
      </trkpt>
      <trkpt lat="49.14142" lon="2.00981">
        <ele>110.72</ele>
        <time>2018-02-18T11:29:49Z</time>
      </trkpt>
      <trkpt lat="49.14153" lon="2.00983">
        <ele>111.5</ele>
        <time>2018-02-18T11:30:06Z</time>
      </trkpt>
      <trkpt lat="49.14161" lon="2.00986">
        <ele>111.52</ele>
        <time>2018-02-18T11:30:27Z</time>
      </trkpt>
      <trkpt lat="49.14178" lon="2.00985">
        <ele>112.09</ele>
        <time>2018-02-18T11:30:46Z</time>
      </trkpt>
      <trkpt lat="49.14186" lon="2.00972">
        <ele>113.43</ele>
        <time>2018-02-18T11:31:03Z</time>
      </trkpt>
      <trkpt lat="49.14197" lon="2.00955">
        <ele>114.7</ele>
        <time>2018-02-18T11:31:24Z</time>
      </trkpt>
      <trkpt lat="49.14206" lon="2.00938">
        <ele>115.34</ele>
        <time>2018-02-18T11:31:45Z</time>
      </trkpt>
      <trkpt lat="49.14217" lon="2.00919">
        <ele>116.74</ele>
        <time>2018-02-18T11:32:03Z</time>
      </trkpt>
      <trkpt lat="49.14217" lon="2.0091">
        <ele>116.8</ele>
        <time>2018-02-18T11:32:27Z</time>
      </trkpt>
      <trkpt lat="49.14225" lon="2.00901">
        <ele>116.66</ele>
        <time>2018-02-18T11:32:46Z</time>
      </trkpt>
      <trkpt lat="49.14239" lon="2.00882">
        <ele>117.75</ele>
        <time>2018-02-18T11:33:06Z</time>
      </trkpt>
      <trkpt lat="49.14247" lon="2.00866">
        <ele>118.24</ele>
        <time>2018-02-18T11:33:20Z</time>
      </trkpt>
      <trkpt lat="49.14257" lon="2.00851">
        <ele>118.38</ele>
        <time>2018-02-18T11:33:40Z</time>
      </trkpt>
      <trkpt lat="49.14269" lon="2.00831">
        <ele>118.97</ele>
        <time>2018-02-18T11:34:00Z</time>
      </trkpt>
      <trkpt lat="49.14278" lon="2.00811">
        <ele>120.17</ele>
        <time>2018-02-18T11:34:20Z</time>
      </trkpt>
      <trkpt lat="49.1428" lon="2.0081">
        <ele>120.46</ele>
        <time>2018-02-18T11:34:23Z</time>
      </trkpt>
      <trkpt lat="49.14288" lon="2.008">
        <ele>121.43</ele>
        <time>2018-02-18T11:34:38Z</time>
      </trkpt>
      <trkpt lat="49.14295" lon="2.00786">
        <ele>121.6</ele>
        <time>2018-02-18T11:34:58Z</time>
      </trkpt>
      <trkpt lat="49.143" lon="2.00776">
        <ele>121.77</ele>
        <time>2018-02-18T11:35:18Z</time>
      </trkpt>
      <trkpt lat="49.14298" lon="2.00777">
        <ele>121.75</ele>
        <time>2018-02-18T11:35:38Z</time>
      </trkpt>
      <trkpt lat="49.14299" lon="2.00779">
        <ele>121.99</ele>
        <time>2018-02-18T11:35:57Z</time>
      </trkpt>
      <trkpt lat="49.14303" lon="2.00772">
        <ele>121.61</ele>
        <time>2018-02-18T11:36:19Z</time>
      </trkpt>
      <trkpt lat="49.14308" lon="2.00763">
        <ele>122.52</ele>
        <time>2018-02-18T11:36:41Z</time>
      </trkpt>
      <trkpt lat="49.14313" lon="2.00759">
        <ele>122.97</ele>
        <time>2018-02-18T11:37:00Z</time>
      </trkpt>
      <trkpt lat="49.14318" lon="2.0075">
        <ele>123.51</ele>
        <time>2018-02-18T11:37:19Z</time>
      </trkpt>
      <trkpt lat="49.14329" lon="2.00748">
        <ele>124.45</ele>
        <time>2018-02-18T11:37:40Z</time>
      </trkpt>
      <trkpt lat="49.14332" lon="2.00748">
        <ele>124.92</ele>
        <time>2018-02-18T11:37:57Z</time>
      </trkpt>
      <trkpt lat="49.14339" lon="2.00754">
        <ele>125.69</ele>
        <time>2018-02-18T11:38:17Z</time>
      </trkpt>
      <trkpt lat="49.14352" lon="2.00765">
        <ele>126.87</ele>
        <time>2018-02-18T11:38:37Z</time>
      </trkpt>
      <trkpt lat="49.1436" lon="2.00774">
        <ele>128.15</ele>
        <time>2018-02-18T11:38:57Z</time>
      </trkpt>
      <trkpt lat="49.14363" lon="2.0078">
        <ele>129.48</ele>
        <time>2018-02-18T11:39:26Z</time>
      </trkpt>
      <trkpt lat="49.1437" lon="2.00784">
        <ele>130.3</ele>
        <time>2018-02-18T11:39:37Z</time>
      </trkpt>
      <trkpt lat="49.14386" lon="2.00794">
        <ele>133.28</ele>
        <time>2018-02-18T11:39:58Z</time>
      </trkpt>
      <trkpt lat="49.144" lon="2.008">
        <ele>135.18</ele>
        <time>2018-02-18T11:40:17Z</time>
      </trkpt>
      <trkpt lat="49.1441" lon="2.00809">
        <ele>136.09</ele>
        <time>2018-02-18T11:40:38Z</time>
      </trkpt>
      <trkpt lat="49.14421" lon="2.00816">
        <ele>137.56</ele>
        <time>2018-02-18T11:41:00Z</time>
      </trkpt>
      <trkpt lat="49.14432" lon="2.0083">
        <ele>140.23</ele>
        <time>2018-02-18T11:41:21Z</time>
      </trkpt>
      <trkpt lat="49.14441" lon="2.0084">
        <ele>141.27</ele>
        <time>2018-02-18T11:41:39Z</time>
      </trkpt>
      <trkpt lat="49.14449" lon="2.00852">
        <ele>142.87</ele>
        <time>2018-02-18T11:41:54Z</time>
      </trkpt>
      <trkpt lat="49.14465" lon="2.0086">
        <ele>143.94</ele>
        <time>2018-02-18T11:42:12Z</time>
      </trkpt>
      <trkpt lat="49.14482" lon="2.00873">
        <ele>145.89</ele>
        <time>2018-02-18T11:42:33Z</time>
      </trkpt>
      <trkpt lat="49.14497" lon="2.00891">
        <ele>146.1</ele>
        <time>2018-02-18T11:42:50Z</time>
      </trkpt>
      <trkpt lat="49.14512" lon="2.00902">
        <ele>147.51</ele>
        <time>2018-02-18T11:43:10Z</time>
      </trkpt>
      <trkpt lat="49.14513" lon="2.00902">
        <ele>147.49</ele>
        <time>2018-02-18T11:43:11Z</time>
      </trkpt>
      <trkpt lat="49.14523" lon="2.00903">
        <ele>148.84</ele>
        <time>2018-02-18T11:43:32Z</time>
      </trkpt>
      <trkpt lat="49.14532" lon="2.00916">
        <ele>149.38</ele>
        <time>2018-02-18T11:43:51Z</time>
      </trkpt>
      <trkpt lat="49.14552" lon="2.00932">
        <ele>150.79</ele>
        <time>2018-02-18T11:44:12Z</time>
      </trkpt>
      <trkpt lat="49.14568" lon="2.00945">
        <ele>151.61</ele>
        <time>2018-02-18T11:44:30Z</time>
      </trkpt>
      <trkpt lat="49.14584" lon="2.00959">
        <ele>151.11</ele>
        <time>2018-02-18T11:44:47Z</time>
      </trkpt>
      <trkpt lat="49.14594" lon="2.00963">
        <ele>151.83</ele>
        <time>2018-02-18T11:45:07Z</time>
      </trkpt>
      <trkpt lat="49.14594" lon="2.00958">
        <ele>153.43</ele>
        <time>2018-02-18T11:49:09Z</time>
      </trkpt>
      <trkpt lat="49.14596" lon="2.00953">
        <ele>153.18</ele>
        <time>2018-02-18T11:49:37Z</time>
      </trkpt>
      <trkpt lat="49.14603" lon="2.00937">
        <ele>151.9</ele>
        <time>2018-02-18T11:49:54Z</time>
      </trkpt>
      <trkpt lat="49.14611" lon="2.0091">
        <ele>151.05</ele>
        <time>2018-02-18T11:50:13Z</time>
      </trkpt>
      <trkpt lat="49.14626" lon="2.00879">
        <ele>149.78</ele>
        <time>2018-02-18T11:50:35Z</time>
      </trkpt>
      <trkpt lat="49.1463" lon="2.00865">
        <ele>149</ele>
        <time>2018-02-18T11:50:43Z</time>
      </trkpt>
      <trkpt lat="49.14638" lon="2.00841">
        <ele>147.66</ele>
        <time>2018-02-18T11:50:59Z</time>
      </trkpt>
      <trkpt lat="49.14643" lon="2.00832">
        <ele>147.17</ele>
        <time>2018-02-18T11:51:07Z</time>
      </trkpt>
      <trkpt lat="49.14644" lon="2.0082">
        <ele>147.4</ele>
        <time>2018-02-18T11:51:17Z</time>
      </trkpt>
      <trkpt lat="49.1465" lon="2.008">
        <ele>147.27</ele>
        <time>2018-02-18T11:51:31Z</time>
      </trkpt>
      <trkpt lat="49.14651" lon="2.00799">
        <ele>147.54</ele>
        <time>2018-02-18T11:51:32Z</time>
      </trkpt>
      <trkpt lat="49.14661" lon="2.00779">
        <ele>147.53</ele>
        <time>2018-02-18T11:51:49Z</time>
      </trkpt>
      <trkpt lat="49.14669" lon="2.0076">
        <ele>146.83</ele>
        <time>2018-02-18T11:52:00Z</time>
      </trkpt>
      <trkpt lat="49.14679" lon="2.00736">
        <ele>146.24</ele>
        <time>2018-02-18T11:52:19Z</time>
      </trkpt>
      <trkpt lat="49.14689" lon="2.00709">
        <ele>146.16</ele>
        <time>2018-02-18T11:52:39Z</time>
      </trkpt>
      <trkpt lat="49.14699" lon="2.00679">
        <ele>147.04</ele>
        <time>2018-02-18T11:53:01Z</time>
      </trkpt>
      <trkpt lat="49.14703" lon="2.00671">
        <ele>146.79</ele>
        <time>2018-02-18T11:53:06Z</time>
      </trkpt>
      <trkpt lat="49.14711" lon="2.00649">
        <ele>146.45</ele>
        <time>2018-02-18T11:53:22Z</time>
      </trkpt>
      <trkpt lat="49.14717" lon="2.0063">
        <ele>146.3</ele>
        <time>2018-02-18T11:53:38Z</time>
      </trkpt>
      <trkpt lat="49.14725" lon="2.00612">
        <ele>146.18</ele>
        <time>2018-02-18T11:53:51Z</time>
      </trkpt>
      <trkpt lat="49.14732" lon="2.00587">
        <ele>144.95</ele>
        <time>2018-02-18T11:54:12Z</time>
      </trkpt>
      <trkpt lat="49.14733" lon="2.00584">
        <ele>145.59</ele>
        <time>2018-02-18T11:54:39Z</time>
      </trkpt>
      <trkpt lat="49.14733" lon="2.00596">
        <ele>146.91</ele>
        <time>2018-02-18T11:55:06Z</time>
      </trkpt>
      <trkpt lat="49.1474" lon="2.00612">
        <ele>148.27</ele>
        <time>2018-02-18T11:55:22Z</time>
      </trkpt>
      <trkpt lat="49.14751" lon="2.00633">
        <ele>149.83</ele>
        <time>2018-02-18T11:55:43Z</time>
      </trkpt>
      <trkpt lat="49.14762" lon="2.00658">
        <ele>152.46</ele>
        <time>2018-02-18T11:56:03Z</time>
      </trkpt>
      <trkpt lat="49.14768" lon="2.00668">
        <ele>153.45</ele>
        <time>2018-02-18T11:56:17Z</time>
      </trkpt>
      <trkpt lat="49.14777" lon="2.00658">
        <ele>151.96</ele>
        <time>2018-02-18T11:56:37Z</time>
      </trkpt>
      <trkpt lat="49.14781" lon="2.00644">
        <ele>151.57</ele>
        <time>2018-02-18T11:56:47Z</time>
      </trkpt>
      <trkpt lat="49.14789" lon="2.00621">
        <ele>150.24</ele>
        <time>2018-02-18T11:57:06Z</time>
      </trkpt>
      <trkpt lat="49.14796" lon="2.00595">
        <ele>149.72</ele>
        <time>2018-02-18T11:57:22Z</time>
      </trkpt>
      <trkpt lat="49.14804" lon="2.00563">
        <ele>148.97</ele>
        <time>2018-02-18T11:57:38Z</time>
      </trkpt>
      <trkpt lat="49.14805" lon="2.00558">
        <ele>148.69</ele>
        <time>2018-02-18T11:57:41Z</time>
      </trkpt>
      <trkpt lat="49.14808" lon="2.00538">
        <ele>148.71</ele>
        <time>2018-02-18T11:57:53Z</time>
      </trkpt>
      <trkpt lat="49.14811" lon="2.00514">
        <ele>147.9</ele>
        <time>2018-02-18T11:58:06Z</time>
      </trkpt>
      <trkpt lat="49.14814" lon="2.00485">
        <ele>146.38</ele>
        <time>2018-02-18T11:58:28Z</time>
      </trkpt>
      <trkpt lat="49.14818" lon="2.00455">
        <ele>144.9</ele>
        <time>2018-02-18T11:58:48Z</time>
      </trkpt>
      <trkpt lat="49.14822" lon="2.00415">
        <ele>144.53</ele>
        <time>2018-02-18T11:59:07Z</time>
      </trkpt>
      <trkpt lat="49.14825" lon="2.00386">
        <ele>144.28</ele>
        <time>2018-02-18T11:59:25Z</time>
      </trkpt>
      <trkpt lat="49.14826" lon="2.00381">
        <ele>144.51</ele>
        <time>2018-02-18T11:59:29Z</time>
      </trkpt>
      <trkpt lat="49.14827" lon="2.00362">
        <ele>145</ele>
        <time>2018-02-18T11:59:50Z</time>
      </trkpt>
      <trkpt lat="49.14832" lon="2.0033">
        <ele>145.75</ele>
        <time>2018-02-18T12:00:08Z</time>
      </trkpt>
      <trkpt lat="49.14833" lon="2.00305">
        <ele>145.5</ele>
        <time>2018-02-18T12:00:28Z</time>
      </trkpt>
      <trkpt lat="49.14831" lon="2.0027">
        <ele>146.46</ele>
        <time>2018-02-18T12:00:50Z</time>
      </trkpt>
      <trkpt lat="49.14827" lon="2.00241">
        <ele>146.61</ele>
        <time>2018-02-18T12:01:09Z</time>
      </trkpt>
      <trkpt lat="49.14826" lon="2.00235">
        <ele>146.44</ele>
        <time>2018-02-18T12:01:15Z</time>
      </trkpt>
      <trkpt lat="49.14823" lon="2.00221">
        <ele>146.59</ele>
        <time>2018-02-18T12:01:23Z</time>
      </trkpt>
      <trkpt lat="49.1482" lon="2.00209">
        <ele>147.09</ele>
        <time>2018-02-18T12:01:30Z</time>
      </trkpt>
      <trkpt lat="49.14821" lon="2.00184">
        <ele>148.36</ele>
        <time>2018-02-18T12:01:49Z</time>
      </trkpt>
      <trkpt lat="49.14819" lon="2.00151">
        <ele>149.43</ele>
        <time>2018-02-18T12:02:09Z</time>
      </trkpt>
      <trkpt lat="49.14818" lon="2.00118">
        <ele>149.55</ele>
        <time>2018-02-18T12:02:28Z</time>
      </trkpt>
      <trkpt lat="49.14818" lon="2.00111">
        <ele>149</ele>
        <time>2018-02-18T12:02:32Z</time>
      </trkpt>
      <trkpt lat="49.14819" lon="2.00092">
        <ele>150.12</ele>
        <time>2018-02-18T12:02:51Z</time>
      </trkpt>
      <trkpt lat="49.14829" lon="2.00059">
        <ele>151.13</ele>
        <time>2018-02-18T12:03:11Z</time>
      </trkpt>
      <trkpt lat="49.14842" lon="2.00028">
        <ele>152.44</ele>
        <time>2018-02-18T12:03:32Z</time>
      </trkpt>
      <trkpt lat="49.14851" lon="2.00007">
        <ele>153.33</ele>
        <time>2018-02-18T12:03:53Z</time>
      </trkpt>
      <trkpt lat="49.14859" lon="1.99982">
        <ele>152.78</ele>
        <time>2018-02-18T12:04:11Z</time>
      </trkpt>
      <trkpt lat="49.14869" lon="1.99949">
        <ele>153.06</ele>
        <time>2018-02-18T12:04:31Z</time>
      </trkpt>
      <trkpt lat="49.14879" lon="1.99921">
        <ele>154.38</ele>
        <time>2018-02-18T12:04:51Z</time>
      </trkpt>
      <trkpt lat="49.14888" lon="1.99897">
        <ele>151.93</ele>
        <time>2018-02-18T12:05:11Z</time>
      </trkpt>
      <trkpt lat="49.14896" lon="1.99871">
        <ele>151.44</ele>
        <time>2018-02-18T12:05:29Z</time>
      </trkpt>
      <trkpt lat="49.14898" lon="1.99835">
        <ele>148.61</ele>
        <time>2018-02-18T12:05:44Z</time>
      </trkpt>
      <trkpt lat="49.14899" lon="1.99829">
        <ele>147.9</ele>
        <time>2018-02-18T12:05:51Z</time>
      </trkpt>
      <trkpt lat="49.14898" lon="1.99816">
        <ele>147.83</ele>
        <time>2018-02-18T12:06:02Z</time>
      </trkpt>
      <trkpt lat="49.14898" lon="1.99788">
        <ele>146.43</ele>
        <time>2018-02-18T12:06:21Z</time>
      </trkpt>
      <trkpt lat="49.14897" lon="1.99778">
        <ele>146.25</ele>
        <time>2018-02-18T12:06:29Z</time>
      </trkpt>
      <trkpt lat="49.14893" lon="1.99741">
        <ele>146.52</ele>
        <time>2018-02-18T12:06:51Z</time>
      </trkpt>
      <trkpt lat="49.14882" lon="1.99701">
        <ele>145.27</ele>
        <time>2018-02-18T12:07:10Z</time>
      </trkpt>
      <trkpt lat="49.14871" lon="1.99669">
        <ele>144.99</ele>
        <time>2018-02-18T12:07:30Z</time>
      </trkpt>
      <trkpt lat="49.14863" lon="1.99648">
        <ele>145.38</ele>
        <time>2018-02-18T12:07:46Z</time>
      </trkpt>
      <trkpt lat="49.14862" lon="1.99645">
        <ele>144.85</ele>
        <time>2018-02-18T12:07:48Z</time>
      </trkpt>
      <trkpt lat="49.14858" lon="1.99636">
        <ele>145.18</ele>
        <time>2018-02-18T12:07:59Z</time>
      </trkpt>
      <trkpt lat="49.14857" lon="1.99632">
        <ele>145.6</ele>
        <time>2018-02-18T12:08:01Z</time>
      </trkpt>
      <trkpt lat="49.14847" lon="1.99606">
        <ele>145.62</ele>
        <time>2018-02-18T12:08:23Z</time>
      </trkpt>
      <trkpt lat="49.14842" lon="1.99585">
        <ele>146.17</ele>
        <time>2018-02-18T12:08:45Z</time>
      </trkpt>
      <trkpt lat="49.14838" lon="1.99569">
        <ele>146.7</ele>
        <time>2018-02-18T12:09:07Z</time>
      </trkpt>
      <trkpt lat="49.14827" lon="1.99545">
        <ele>147.81</ele>
        <time>2018-02-18T12:09:25Z</time>
      </trkpt>
      <trkpt lat="49.14818" lon="1.99525">
        <ele>148.63</ele>
        <time>2018-02-18T12:09:42Z</time>
      </trkpt>
      <trkpt lat="49.14813" lon="1.99507">
        <ele>148.22</ele>
        <time>2018-02-18T12:09:53Z</time>
      </trkpt>
      <trkpt lat="49.14806" lon="1.99485">
        <ele>148.67</ele>
        <time>2018-02-18T12:10:13Z</time>
      </trkpt>
      <trkpt lat="49.14792" lon="1.99461">
        <ele>148.91</ele>
        <time>2018-02-18T12:10:31Z</time>
      </trkpt>
      <trkpt lat="49.14784" lon="1.9943">
        <ele>147.81</ele>
        <time>2018-02-18T12:10:52Z</time>
      </trkpt>
      <trkpt lat="49.14776" lon="1.9939">
        <ele>148.07</ele>
        <time>2018-02-18T12:11:13Z</time>
      </trkpt>
      <trkpt lat="49.14775" lon="1.99386">
        <ele>148.08</ele>
        <time>2018-02-18T12:11:14Z</time>
      </trkpt>
      <trkpt lat="49.14773" lon="1.99372">
        <ele>147.93</ele>
        <time>2018-02-18T12:11:21Z</time>
      </trkpt>
      <trkpt lat="49.14772" lon="1.99356">
        <ele>147.79</ele>
        <time>2018-02-18T12:11:28Z</time>
      </trkpt>
      <trkpt lat="49.14771" lon="1.99337">
        <ele>147.17</ele>
        <time>2018-02-18T12:11:37Z</time>
      </trkpt>
      <trkpt lat="49.14773" lon="1.99315">
        <ele>148.16</ele>
        <time>2018-02-18T12:11:53Z</time>
      </trkpt>
      <trkpt lat="49.14775" lon="1.99308">
        <ele>147.33</ele>
        <time>2018-02-18T12:12:09Z</time>
      </trkpt>
      <trkpt lat="49.14777" lon="1.99301">
        <ele>147.54</ele>
        <time>2018-02-18T12:12:14Z</time>
      </trkpt>
      <trkpt lat="49.1478" lon="1.99296">
        <ele>147.73</ele>
        <time>2018-02-18T12:12:18Z</time>
      </trkpt>
      <trkpt lat="49.14787" lon="1.99275">
        <ele>148.42</ele>
        <time>2018-02-18T12:12:32Z</time>
      </trkpt>
      <trkpt lat="49.14792" lon="1.99267">
        <ele>148.42</ele>
        <time>2018-02-18T12:12:39Z</time>
      </trkpt>
      <trkpt lat="49.14799" lon="1.99241">
        <ele>147.86</ele>
        <time>2018-02-18T12:12:56Z</time>
      </trkpt>
      <trkpt lat="49.14806" lon="1.99218">
        <ele>145.31</ele>
        <time>2018-02-18T12:13:14Z</time>
      </trkpt>
      <trkpt lat="49.14807" lon="1.99193">
        <ele>144.72</ele>
        <time>2018-02-18T12:13:29Z</time>
      </trkpt>
      <trkpt lat="49.14809" lon="1.9916">
        <ele>144.12</ele>
        <time>2018-02-18T12:13:51Z</time>
      </trkpt>
      <trkpt lat="49.14812" lon="1.99146">
        <ele>144.1</ele>
        <time>2018-02-18T12:14:03Z</time>
      </trkpt>
      <trkpt lat="49.1481" lon="1.9912">
        <ele>143.87</ele>
        <time>2018-02-18T12:14:21Z</time>
      </trkpt>
      <trkpt lat="49.14802" lon="1.99115">
        <ele>152.21</ele>
        <time>2018-02-18T13:01:50Z</time>
      </trkpt>
      <trkpt lat="49.14796" lon="1.99115">
        <ele>152.65</ele>
        <time>2018-02-18T13:02:08Z</time>
      </trkpt>
      <trkpt lat="49.14795" lon="1.99125">
        <ele>151.13</ele>
        <time>2018-02-18T13:02:15Z</time>
      </trkpt>
      <trkpt lat="49.14782" lon="1.9914">
        <ele>149.98</ele>
        <time>2018-02-18T13:02:29Z</time>
      </trkpt>
      <trkpt lat="49.14775" lon="1.99139">
        <ele>149.3</ele>
        <time>2018-02-18T13:02:35Z</time>
      </trkpt>
      <trkpt lat="49.14769" lon="1.99136">
        <ele>148.97</ele>
        <time>2018-02-18T13:02:40Z</time>
      </trkpt>
      <trkpt lat="49.1476" lon="1.99121">
        <ele>146.56</ele>
        <time>2018-02-18T13:02:59Z</time>
      </trkpt>
      <trkpt lat="49.14751" lon="1.99101">
        <ele>144.63</ele>
        <time>2018-02-18T13:03:19Z</time>
      </trkpt>
      <trkpt lat="49.14748" lon="1.99089">
        <ele>144.13</ele>
        <time>2018-02-18T13:03:30Z</time>
      </trkpt>
      <trkpt lat="49.14735" lon="1.99069">
        <ele>142.56</ele>
        <time>2018-02-18T13:03:52Z</time>
      </trkpt>
      <trkpt lat="49.14721" lon="1.99046">
        <ele>140.34</ele>
        <time>2018-02-18T13:04:13Z</time>
      </trkpt>
      <trkpt lat="49.14708" lon="1.99024">
        <ele>138.56</ele>
        <time>2018-02-18T13:04:31Z</time>
      </trkpt>
      <trkpt lat="49.14707" lon="1.99022">
        <ele>138.43</ele>
        <time>2018-02-18T13:04:33Z</time>
      </trkpt>
      <trkpt lat="49.14697" lon="1.99005">
        <ele>137.21</ele>
        <time>2018-02-18T13:04:54Z</time>
      </trkpt>
      <trkpt lat="49.14691" lon="1.99">
        <ele>136.59</ele>
        <time>2018-02-18T13:05:01Z</time>
      </trkpt>
      <trkpt lat="49.14686" lon="1.98992">
        <ele>136.39</ele>
        <time>2018-02-18T13:05:12Z</time>
      </trkpt>
      <trkpt lat="49.14684" lon="1.9899">
        <ele>135.84</ele>
        <time>2018-02-18T13:05:14Z</time>
      </trkpt>
      <trkpt lat="49.1467" lon="1.9897">
        <ele>133.57</ele>
        <time>2018-02-18T13:05:33Z</time>
      </trkpt>
      <trkpt lat="49.14668" lon="1.98967">
        <ele>133.88</ele>
        <time>2018-02-18T13:05:36Z</time>
      </trkpt>
      <trkpt lat="49.1466" lon="1.9896">
        <ele>133.31</ele>
        <time>2018-02-18T13:05:44Z</time>
      </trkpt>
      <trkpt lat="49.14652" lon="1.98944">
        <ele>131.83</ele>
        <time>2018-02-18T13:05:58Z</time>
      </trkpt>
      <trkpt lat="49.14649" lon="1.98936">
        <ele>132.16</ele>
        <time>2018-02-18T13:06:02Z</time>
      </trkpt>
      <trkpt lat="49.14633" lon="1.98916">
        <ele>129.79</ele>
        <time>2018-02-18T13:06:18Z</time>
      </trkpt>
      <trkpt lat="49.14632" lon="1.98916">
        <ele>129.66</ele>
        <time>2018-02-18T13:06:21Z</time>
      </trkpt>
      <trkpt lat="49.14627" lon="1.98902">
        <ele>129.59</ele>
        <time>2018-02-18T13:06:42Z</time>
      </trkpt>
      <trkpt lat="49.14627" lon="1.989">
        <ele>129.87</ele>
        <time>2018-02-18T13:07:00Z</time>
      </trkpt>
      <trkpt lat="49.14625" lon="1.98896">
        <ele>129.28</ele>
        <time>2018-02-18T13:07:20Z</time>
      </trkpt>
      <trkpt lat="49.14616" lon="1.98887">
        <ele>128.31</ele>
        <time>2018-02-18T13:07:38Z</time>
      </trkpt>
      <trkpt lat="49.14614" lon="1.98866">
        <ele>127.46</ele>
        <time>2018-02-18T13:07:51Z</time>
      </trkpt>
      <trkpt lat="49.14605" lon="1.98852">
        <ele>125.99</ele>
        <time>2018-02-18T13:08:01Z</time>
      </trkpt>
      <trkpt lat="49.14597" lon="1.98832">
        <ele>125.45</ele>
        <time>2018-02-18T13:08:15Z</time>
      </trkpt>
      <trkpt lat="49.14587" lon="1.9881">
        <ele>124.33</ele>
        <time>2018-02-18T13:08:30Z</time>
      </trkpt>
      <trkpt lat="49.14577" lon="1.98798">
        <ele>124.09</ele>
        <time>2018-02-18T13:08:42Z</time>
      </trkpt>
      <trkpt lat="49.14576" lon="1.98795">
        <ele>124.25</ele>
        <time>2018-02-18T13:08:44Z</time>
      </trkpt>
      <trkpt lat="49.14572" lon="1.98789">
        <ele>123.99</ele>
        <time>2018-02-18T13:08:48Z</time>
      </trkpt>
      <trkpt lat="49.1457" lon="1.98783">
        <ele>123.41</ele>
        <time>2018-02-18T13:08:52Z</time>
      </trkpt>
      <trkpt lat="49.14562" lon="1.98771">
        <ele>122.2</ele>
        <time>2018-02-18T13:09:02Z</time>
      </trkpt>
      <trkpt lat="49.14558" lon="1.98748">
        <ele>122.1</ele>
        <time>2018-02-18T13:09:13Z</time>
      </trkpt>
      <trkpt lat="49.14546" lon="1.98733">
        <ele>121.32</ele>
        <time>2018-02-18T13:09:26Z</time>
      </trkpt>
      <trkpt lat="49.14538" lon="1.98717">
        <ele>120.26</ele>
        <time>2018-02-18T13:09:40Z</time>
      </trkpt>
      <trkpt lat="49.14536" lon="1.98709">
        <ele>120.1</ele>
        <time>2018-02-18T13:09:45Z</time>
      </trkpt>
      <trkpt lat="49.14524" lon="1.98687">
        <ele>120.47</ele>
        <time>2018-02-18T13:10:02Z</time>
      </trkpt>
      <trkpt lat="49.14514" lon="1.98672">
        <ele>120.31</ele>
        <time>2018-02-18T13:10:18Z</time>
      </trkpt>
      <trkpt lat="49.14515" lon="1.98669">
        <ele>120.23</ele>
        <time>2018-02-18T13:10:49Z</time>
      </trkpt>
      <trkpt lat="49.14509" lon="1.98654">
        <ele>120.37</ele>
        <time>2018-02-18T13:11:09Z</time>
      </trkpt>
      <trkpt lat="49.14502" lon="1.98638">
        <ele>119.28</ele>
        <time>2018-02-18T13:11:22Z</time>
      </trkpt>
      <trkpt lat="49.14499" lon="1.98623">
        <ele>119.63</ele>
        <time>2018-02-18T13:11:32Z</time>
      </trkpt>
      <trkpt lat="49.14493" lon="1.98609">
        <ele>119.3</ele>
        <time>2018-02-18T13:11:42Z</time>
      </trkpt>
      <trkpt lat="49.14492" lon="1.98604">
        <ele>119.32</ele>
        <time>2018-02-18T13:11:45Z</time>
      </trkpt>
      <trkpt lat="49.14487" lon="1.98584">
        <ele>118.61</ele>
        <time>2018-02-18T13:11:57Z</time>
      </trkpt>
      <trkpt lat="49.14483" lon="1.98565">
        <ele>117.77</ele>
        <time>2018-02-18T13:12:12Z</time>
      </trkpt>
      <trkpt lat="49.14488" lon="1.98546">
        <ele>117.61</ele>
        <time>2018-02-18T13:12:24Z</time>
      </trkpt>
      <trkpt lat="49.14493" lon="1.98525">
        <ele>116.94</ele>
        <time>2018-02-18T13:12:44Z</time>
      </trkpt>
      <trkpt lat="49.14494" lon="1.98522">
        <ele>117.02</ele>
        <time>2018-02-18T13:12:46Z</time>
      </trkpt>
      <trkpt lat="49.14497" lon="1.98515">
        <ele>117.16</ele>
        <time>2018-02-18T13:12:51Z</time>
      </trkpt>
      <trkpt lat="49.145" lon="1.9851">
        <ele>116.9</ele>
        <time>2018-02-18T13:12:56Z</time>
      </trkpt>
      <trkpt lat="49.14514" lon="1.98498">
        <ele>116.66</ele>
        <time>2018-02-18T13:13:14Z</time>
      </trkpt>
      <trkpt lat="49.1453" lon="1.98483">
        <ele>115.41</ele>
        <time>2018-02-18T13:13:30Z</time>
      </trkpt>
      <trkpt lat="49.14539" lon="1.98483">
        <ele>115.59</ele>
        <time>2018-02-18T13:13:40Z</time>
      </trkpt>
      <trkpt lat="49.14545" lon="1.98481">
        <ele>115.53</ele>
        <time>2018-02-18T13:13:44Z</time>
      </trkpt>
      <trkpt lat="49.1456" lon="1.98476">
        <ele>115.44</ele>
        <time>2018-02-18T13:13:57Z</time>
      </trkpt>
      <trkpt lat="49.14569" lon="1.98478">
        <ele>114.73</ele>
        <time>2018-02-18T13:14:11Z</time>
      </trkpt>
      <trkpt lat="49.14582" lon="1.98465">
        <ele>114.12</ele>
        <time>2018-02-18T13:14:35Z</time>
      </trkpt>
      <trkpt lat="49.14597" lon="1.98442">
        <ele>112.92</ele>
        <time>2018-02-18T13:14:56Z</time>
      </trkpt>
      <trkpt lat="49.14609" lon="1.98414">
        <ele>112.6</ele>
        <time>2018-02-18T13:15:16Z</time>
      </trkpt>
      <trkpt lat="49.14618" lon="1.98389">
        <ele>111.65</ele>
        <time>2018-02-18T13:15:34Z</time>
      </trkpt>
      <trkpt lat="49.14618" lon="1.98374">
        <ele>111.89</ele>
        <time>2018-02-18T13:15:51Z</time>
      </trkpt>
      <trkpt lat="49.14616" lon="1.98361">
        <ele>111.29</ele>
        <time>2018-02-18T13:16:02Z</time>
      </trkpt>
      <trkpt lat="49.14604" lon="1.98333">
        <ele>111.46</ele>
        <time>2018-02-18T13:16:21Z</time>
      </trkpt>
      <trkpt lat="49.14595" lon="1.98315">
        <ele>110.72</ele>
        <time>2018-02-18T13:16:34Z</time>
      </trkpt>
      <trkpt lat="49.14595" lon="1.98313">
        <ele>110.92</ele>
        <time>2018-02-18T13:16:35Z</time>
      </trkpt>
      <trkpt lat="49.14589" lon="1.9831">
        <ele>110.25</ele>
        <time>2018-02-18T13:16:40Z</time>
      </trkpt>
      <trkpt lat="49.14585" lon="1.98307">
        <ele>110.91</ele>
        <time>2018-02-18T13:16:43Z</time>
      </trkpt>
      <trkpt lat="49.14577" lon="1.98296">
        <ele>111.07</ele>
        <time>2018-02-18T13:16:59Z</time>
      </trkpt>
      <trkpt lat="49.14574" lon="1.98293">
        <ele>111.08</ele>
        <time>2018-02-18T13:17:19Z</time>
      </trkpt>
      <trkpt lat="49.14571" lon="1.98295">
        <ele>111.23</ele>
        <time>2018-02-18T13:17:43Z</time>
      </trkpt>
      <trkpt lat="49.14565" lon="1.98289">
        <ele>111.02</ele>
        <time>2018-02-18T13:17:52Z</time>
      </trkpt>
      <trkpt lat="49.14546" lon="1.98274">
        <ele>111.06</ele>
        <time>2018-02-18T13:18:12Z</time>
      </trkpt>
      <trkpt lat="49.14541" lon="1.98272">
        <ele>111.4</ele>
        <time>2018-02-18T13:18:17Z</time>
      </trkpt>
      <trkpt lat="49.14531" lon="1.98276">
        <ele>112.33</ele>
        <time>2018-02-18T13:18:33Z</time>
      </trkpt>
      <trkpt lat="49.14529" lon="1.98274">
        <ele>110.78</ele>
        <time>2018-02-18T13:19:23Z</time>
      </trkpt>
      <trkpt lat="49.14529" lon="1.98274">
        <ele>112.44</ele>
        <time>2018-02-18T13:19:30Z</time>
      </trkpt>
      <trkpt lat="49.14523" lon="1.98279">
        <ele>112.2</ele>
        <time>2018-02-18T13:26:46Z</time>
      </trkpt>
      <trkpt lat="49.14505" lon="1.98284">
        <ele>111.92</ele>
        <time>2018-02-18T13:27:02Z</time>
      </trkpt>
      <trkpt lat="49.14494" lon="1.98299">
        <ele>112.39</ele>
        <time>2018-02-18T13:27:18Z</time>
      </trkpt>
      <trkpt lat="49.14483" lon="1.98303">
        <ele>111.61</ele>
        <time>2018-02-18T13:27:32Z</time>
      </trkpt>
      <trkpt lat="49.14477" lon="1.98299">
        <ele>111.29</ele>
        <time>2018-02-18T13:27:38Z</time>
      </trkpt>
      <trkpt lat="49.14469" lon="1.98286">
        <ele>109.66</ele>
        <time>2018-02-18T13:27:55Z</time>
      </trkpt>
      <trkpt lat="49.14457" lon="1.98263">
        <ele>108.64</ele>
        <time>2018-02-18T13:28:16Z</time>
      </trkpt>
      <trkpt lat="49.14448" lon="1.98233">
        <ele>108</ele>
        <time>2018-02-18T13:28:36Z</time>
      </trkpt>
      <trkpt lat="49.14438" lon="1.98213">
        <ele>107.3</ele>
        <time>2018-02-18T13:28:51Z</time>
      </trkpt>
      <trkpt lat="49.14431" lon="1.98186">
        <ele>106.18</ele>
        <time>2018-02-18T13:29:10Z</time>
      </trkpt>
      <trkpt lat="49.1443" lon="1.98174">
        <ele>105.76</ele>
        <time>2018-02-18T13:29:18Z</time>
      </trkpt>
      <trkpt lat="49.14402" lon="1.98143">
        <ele>106.03</ele>
        <time>2018-02-18T13:29:37Z</time>
      </trkpt>
      <trkpt lat="49.1439" lon="1.98115">
        <ele>105.38</ele>
        <time>2018-02-18T13:29:56Z</time>
      </trkpt>
      <trkpt lat="49.14388" lon="1.9811">
        <ele>104.06</ele>
        <time>2018-02-18T13:29:59Z</time>
      </trkpt>
      <trkpt lat="49.14388" lon="1.98109">
        <ele>104.49</ele>
        <time>2018-02-18T13:30:00Z</time>
      </trkpt>
      <trkpt lat="49.14384" lon="1.98101">
        <ele>104.52</ele>
        <time>2018-02-18T13:30:06Z</time>
      </trkpt>
      <trkpt lat="49.14374" lon="1.98081">
        <ele>103.56</ele>
        <time>2018-02-18T13:30:18Z</time>
      </trkpt>
      <trkpt lat="49.14363" lon="1.98059">
        <ele>103.79</ele>
        <time>2018-02-18T13:30:35Z</time>
      </trkpt>
      <trkpt lat="49.14358" lon="1.98051">
        <ele>102.96</ele>
        <time>2018-02-18T13:30:41Z</time>
      </trkpt>
      <trkpt lat="49.14346" lon="1.98027">
        <ele>102.37</ele>
        <time>2018-02-18T13:30:57Z</time>
      </trkpt>
      <trkpt lat="49.14342" lon="1.98017">
        <ele>102.27</ele>
        <time>2018-02-18T13:31:04Z</time>
      </trkpt>
      <trkpt lat="49.14334" lon="1.97998">
        <ele>101.68</ele>
        <time>2018-02-18T13:31:17Z</time>
      </trkpt>
      <trkpt lat="49.1433" lon="1.97989">
        <ele>101.24</ele>
        <time>2018-02-18T13:31:22Z</time>
      </trkpt>
      <trkpt lat="49.14327" lon="1.97983">
        <ele>100.99</ele>
        <time>2018-02-18T13:31:26Z</time>
      </trkpt>
      <trkpt lat="49.14325" lon="1.97974">
        <ele>100.53</ele>
        <time>2018-02-18T13:31:33Z</time>
      </trkpt>
      <trkpt lat="49.14317" lon="1.97956">
        <ele>100.13</ele>
        <time>2018-02-18T13:31:47Z</time>
      </trkpt>
      <trkpt lat="49.1431" lon="1.97945">
        <ele>99.39</ele>
        <time>2018-02-18T13:31:58Z</time>
      </trkpt>
      <trkpt lat="49.14309" lon="1.9794">
        <ele>99.78</ele>
        <time>2018-02-18T13:32:01Z</time>
      </trkpt>
      <trkpt lat="49.14295" lon="1.97907">
        <ele>98.7</ele>
        <time>2018-02-18T13:32:22Z</time>
      </trkpt>
      <trkpt lat="49.14287" lon="1.97871">
        <ele>98.49</ele>
        <time>2018-02-18T13:32:41Z</time>
      </trkpt>
      <trkpt lat="49.14287" lon="1.9787">
        <ele>98.15</ele>
        <time>2018-02-18T13:32:42Z</time>
      </trkpt>
      <trkpt lat="49.14283" lon="1.97856">
        <ele>97.87</ele>
        <time>2018-02-18T13:32:49Z</time>
      </trkpt>
      <trkpt lat="49.14279" lon="1.97839">
        <ele>97.26</ele>
        <time>2018-02-18T13:32:57Z</time>
      </trkpt>
      <trkpt lat="49.14275" lon="1.97817">
        <ele>96.84</ele>
        <time>2018-02-18T13:33:08Z</time>
      </trkpt>
      <trkpt lat="49.14272" lon="1.978">
        <ele>96.5</ele>
        <time>2018-02-18T13:33:17Z</time>
      </trkpt>
      <trkpt lat="49.14262" lon="1.97791">
        <ele>96.19</ele>
        <time>2018-02-18T13:33:29Z</time>
      </trkpt>
      <trkpt lat="49.14256" lon="1.97784">
        <ele>96.47</ele>
        <time>2018-02-18T13:33:36Z</time>
      </trkpt>
      <trkpt lat="49.14256" lon="1.97781">
        <ele>96.57</ele>
        <time>2018-02-18T13:33:38Z</time>
      </trkpt>
      <trkpt lat="49.14253" lon="1.97779">
        <ele>96.61</ele>
        <time>2018-02-18T13:33:41Z</time>
      </trkpt>
      <trkpt lat="49.14237" lon="1.97769">
        <ele>96.29</ele>
        <time>2018-02-18T13:33:58Z</time>
      </trkpt>
      <trkpt lat="49.14231" lon="1.97762">
        <ele>96.63</ele>
        <time>2018-02-18T13:34:05Z</time>
      </trkpt>
      <trkpt lat="49.14214" lon="1.9774">
        <ele>96.59</ele>
        <time>2018-02-18T13:34:23Z</time>
      </trkpt>
      <trkpt lat="49.14199" lon="1.97721">
        <ele>97.07</ele>
        <time>2018-02-18T13:34:39Z</time>
      </trkpt>
      <trkpt lat="49.14192" lon="1.97704">
        <ele>97.1</ele>
        <time>2018-02-18T13:34:50Z</time>
      </trkpt>
      <trkpt lat="49.14178" lon="1.97685">
        <ele>96.93</ele>
        <time>2018-02-18T13:35:06Z</time>
      </trkpt>
      <trkpt lat="49.14173" lon="1.97679">
        <ele>97.75</ele>
        <time>2018-02-18T13:35:21Z</time>
      </trkpt>
      <trkpt lat="49.14172" lon="1.97676">
        <ele>96.97</ele>
        <time>2018-02-18T13:35:24Z</time>
      </trkpt>
      <trkpt lat="49.14157" lon="1.97654">
        <ele>96.74</ele>
        <time>2018-02-18T13:35:41Z</time>
      </trkpt>
      <trkpt lat="49.1415" lon="1.97636">
        <ele>96.64</ele>
        <time>2018-02-18T13:35:51Z</time>
      </trkpt>
      <trkpt lat="49.14143" lon="1.97621">
        <ele>96.62</ele>
        <time>2018-02-18T13:36:01Z</time>
      </trkpt>
      <trkpt lat="49.14132" lon="1.97596">
        <ele>97.03</ele>
        <time>2018-02-18T13:36:17Z</time>
      </trkpt>
      <trkpt lat="49.14131" lon="1.97595">
        <ele>96.94</ele>
        <time>2018-02-18T13:36:18Z</time>
      </trkpt>
      <trkpt lat="49.14128" lon="1.97586">
        <ele>97.18</ele>
        <time>2018-02-18T13:36:23Z</time>
      </trkpt>
      <trkpt lat="49.14125" lon="1.97583">
        <ele>96.9</ele>
        <time>2018-02-18T13:36:25Z</time>
      </trkpt>
      <trkpt lat="49.14115" lon="1.97565">
        <ele>97.01</ele>
        <time>2018-02-18T13:36:39Z</time>
      </trkpt>
      <trkpt lat="49.14105" lon="1.97548">
        <ele>97</ele>
        <time>2018-02-18T13:36:51Z</time>
      </trkpt>
      <trkpt lat="49.14091" lon="1.97526">
        <ele>97.58</ele>
        <time>2018-02-18T13:37:07Z</time>
      </trkpt>
      <trkpt lat="49.14081" lon="1.97504">
        <ele>97.95</ele>
        <time>2018-02-18T13:37:21Z</time>
      </trkpt>
      <trkpt lat="49.14078" lon="1.97499">
        <ele>98.56</ele>
        <time>2018-02-18T13:37:25Z</time>
      </trkpt>
      <trkpt lat="49.14076" lon="1.97494">
        <ele>97.93</ele>
        <time>2018-02-18T13:37:28Z</time>
      </trkpt>
      <trkpt lat="49.14064" lon="1.97472">
        <ele>98.7</ele>
        <time>2018-02-18T13:37:45Z</time>
      </trkpt>
      <trkpt lat="49.14063" lon="1.9747">
        <ele>98.56</ele>
        <time>2018-02-18T13:37:47Z</time>
      </trkpt>
      <trkpt lat="49.14053" lon="1.97451">
        <ele>98.6</ele>
        <time>2018-02-18T13:38:01Z</time>
      </trkpt>
      <trkpt lat="49.14051" lon="1.97447">
        <ele>98.36</ele>
        <time>2018-02-18T13:38:04Z</time>
      </trkpt>
      <trkpt lat="49.14043" lon="1.97435">
        <ele>98.89</ele>
        <time>2018-02-18T13:38:13Z</time>
      </trkpt>
      <trkpt lat="49.1404" lon="1.97427">
        <ele>99</ele>
        <time>2018-02-18T13:38:17Z</time>
      </trkpt>
      <trkpt lat="49.14024" lon="1.97401">
        <ele>99.37</ele>
        <time>2018-02-18T13:38:37Z</time>
      </trkpt>
      <trkpt lat="49.14023" lon="1.97399">
        <ele>99.28</ele>
        <time>2018-02-18T13:38:39Z</time>
      </trkpt>
      <trkpt lat="49.14012" lon="1.97377">
        <ele>99.66</ele>
        <time>2018-02-18T13:38:53Z</time>
      </trkpt>
      <trkpt lat="49.13994" lon="1.97349">
        <ele>100.06</ele>
        <time>2018-02-18T13:39:12Z</time>
      </trkpt>
      <trkpt lat="49.13975" lon="1.97324">
        <ele>100.25</ele>
        <time>2018-02-18T13:39:33Z</time>
      </trkpt>
      <trkpt lat="49.13954" lon="1.97296">
        <ele>100.64</ele>
        <time>2018-02-18T13:39:57Z</time>
      </trkpt>
      <trkpt lat="49.13939" lon="1.97276">
        <ele>99.63</ele>
        <time>2018-02-18T13:40:15Z</time>
      </trkpt>
      <trkpt lat="49.13923" lon="1.97258">
        <ele>99.69</ele>
        <time>2018-02-18T13:40:31Z</time>
      </trkpt>
      <trkpt lat="49.13909" lon="1.9724">
        <ele>98.84</ele>
        <time>2018-02-18T13:40:45Z</time>
      </trkpt>
      <trkpt lat="49.13895" lon="1.97221">
        <ele>98.53</ele>
        <time>2018-02-18T13:41:00Z</time>
      </trkpt>
      <trkpt lat="49.13887" lon="1.97213">
        <ele>98.83</ele>
        <time>2018-02-18T13:41:07Z</time>
      </trkpt>
      <trkpt lat="49.13878" lon="1.97202">
        <ele>98.73</ele>
        <time>2018-02-18T13:41:17Z</time>
      </trkpt>
      <trkpt lat="49.13864" lon="1.97181">
        <ele>98.15</ele>
        <time>2018-02-18T13:41:33Z</time>
      </trkpt>
      <trkpt lat="49.13851" lon="1.97164">
        <ele>98.38</ele>
        <time>2018-02-18T13:41:47Z</time>
      </trkpt>
      <trkpt lat="49.13834" lon="1.97144">
        <ele>97.63</ele>
        <time>2018-02-18T13:42:05Z</time>
      </trkpt>
      <trkpt lat="49.13822" lon="1.97127">
        <ele>97.3</ele>
        <time>2018-02-18T13:42:17Z</time>
      </trkpt>
      <trkpt lat="49.1381" lon="1.97109">
        <ele>97.43</ele>
        <time>2018-02-18T13:42:31Z</time>
      </trkpt>
      <trkpt lat="49.13807" lon="1.97104">
        <ele>97.51</ele>
        <time>2018-02-18T13:42:35Z</time>
      </trkpt>
      <trkpt lat="49.13791" lon="1.97086">
        <ele>96.7</ele>
        <time>2018-02-18T13:42:50Z</time>
      </trkpt>
      <trkpt lat="49.13778" lon="1.97073">
        <ele>97.15</ele>
        <time>2018-02-18T13:43:05Z</time>
      </trkpt>
      <trkpt lat="49.13773" lon="1.97061">
        <ele>97.08</ele>
        <time>2018-02-18T13:43:17Z</time>
      </trkpt>
      <trkpt lat="49.13752" lon="1.97036">
        <ele>96.62</ele>
        <time>2018-02-18T13:43:40Z</time>
      </trkpt>
      <trkpt lat="49.13746" lon="1.97018">
        <ele>97.12</ele>
        <time>2018-02-18T13:44:00Z</time>
      </trkpt>
      <trkpt lat="49.13744" lon="1.97017">
        <ele>96.89</ele>
        <time>2018-02-18T13:44:02Z</time>
      </trkpt>
      <trkpt lat="49.13736" lon="1.97004">
        <ele>96.3</ele>
        <time>2018-02-18T13:44:15Z</time>
      </trkpt>
      <trkpt lat="49.13725" lon="1.96987">
        <ele>96.28</ele>
        <time>2018-02-18T13:44:32Z</time>
      </trkpt>
      <trkpt lat="49.13717" lon="1.96975">
        <ele>95.81</ele>
        <time>2018-02-18T13:44:52Z</time>
      </trkpt>
      <trkpt lat="49.13704" lon="1.96954">
        <ele>95.54</ele>
        <time>2018-02-18T13:45:09Z</time>
      </trkpt>
      <trkpt lat="49.13696" lon="1.96936">
        <ele>96.23</ele>
        <time>2018-02-18T13:45:24Z</time>
      </trkpt>
      <trkpt lat="49.13691" lon="1.96927">
        <ele>96.7</ele>
        <time>2018-02-18T13:45:40Z</time>
      </trkpt>
      <trkpt lat="49.13682" lon="1.96911">
        <ele>96.06</ele>
        <time>2018-02-18T13:45:55Z</time>
      </trkpt>
      <trkpt lat="49.13669" lon="1.96889">
        <ele>95.62</ele>
        <time>2018-02-18T13:46:12Z</time>
      </trkpt>
      <trkpt lat="49.13657" lon="1.96871">
        <ele>95.82</ele>
        <time>2018-02-18T13:46:27Z</time>
      </trkpt>
      <trkpt lat="49.13643" lon="1.9685">
        <ele>95.9</ele>
        <time>2018-02-18T13:46:44Z</time>
      </trkpt>
      <trkpt lat="49.13627" lon="1.96829">
        <ele>95.95</ele>
        <time>2018-02-18T13:47:06Z</time>
      </trkpt>
      <trkpt lat="49.13626" lon="1.96827">
        <ele>95.58</ele>
        <time>2018-02-18T13:47:12Z</time>
      </trkpt>
      <trkpt lat="49.13624" lon="1.96825">
        <ele>95.97</ele>
        <time>2018-02-18T13:47:14Z</time>
      </trkpt>
      <trkpt lat="49.1361" lon="1.96805">
        <ele>95.68</ele>
        <time>2018-02-18T13:47:32Z</time>
      </trkpt>
      <trkpt lat="49.13603" lon="1.96796">
        <ele>95.67</ele>
        <time>2018-02-18T13:47:51Z</time>
      </trkpt>
      <trkpt lat="49.13601" lon="1.96795">
        <ele>95.57</ele>
        <time>2018-02-18T13:47:59Z</time>
      </trkpt>
      <trkpt lat="49.13599" lon="1.96792">
        <ele>95.35</ele>
        <time>2018-02-18T13:48:02Z</time>
      </trkpt>
      <trkpt lat="49.13588" lon="1.96779">
        <ele>95.12</ele>
        <time>2018-02-18T13:48:15Z</time>
      </trkpt>
      <trkpt lat="49.13575" lon="1.96764">
        <ele>95.37</ele>
        <time>2018-02-18T13:48:34Z</time>
      </trkpt>
      <trkpt lat="49.13573" lon="1.9676">
        <ele>95.63</ele>
        <time>2018-02-18T13:48:57Z</time>
      </trkpt>
      <trkpt lat="49.1357" lon="1.96757">
        <ele>95.74</ele>
        <time>2018-02-18T13:49:00Z</time>
      </trkpt>
      <trkpt lat="49.13553" lon="1.96736">
        <ele>95.31</ele>
        <time>2018-02-18T13:49:18Z</time>
      </trkpt>
      <trkpt lat="49.13548" lon="1.96731">
        <ele>95.09</ele>
        <time>2018-02-18T13:49:25Z</time>
      </trkpt>
      <trkpt lat="49.13544" lon="1.96726">
        <ele>95.42</ele>
        <time>2018-02-18T13:49:29Z</time>
      </trkpt>
      <trkpt lat="49.13528" lon="1.96707">
        <ele>95.57</ele>
        <time>2018-02-18T13:49:46Z</time>
      </trkpt>
      <trkpt lat="49.13511" lon="1.96687">
        <ele>95.81</ele>
        <time>2018-02-18T13:50:03Z</time>
      </trkpt>
      <trkpt lat="49.13496" lon="1.96669">
        <ele>95.21</ele>
        <time>2018-02-18T13:50:19Z</time>
      </trkpt>
      <trkpt lat="49.13482" lon="1.96654">
        <ele>94.88</ele>
        <time>2018-02-18T13:50:34Z</time>
      </trkpt>
      <trkpt lat="49.13466" lon="1.96635">
        <ele>94.76</ele>
        <time>2018-02-18T13:50:51Z</time>
      </trkpt>
      <trkpt lat="49.13451" lon="1.96616">
        <ele>94.15</ele>
        <time>2018-02-18T13:51:07Z</time>
      </trkpt>
      <trkpt lat="49.13436" lon="1.96597">
        <ele>92.97</ele>
        <time>2018-02-18T13:51:23Z</time>
      </trkpt>
      <trkpt lat="49.13418" lon="1.96579">
        <ele>93.26</ele>
        <time>2018-02-18T13:51:41Z</time>
      </trkpt>
      <trkpt lat="49.13399" lon="1.96557">
        <ele>91.99</ele>
        <time>2018-02-18T13:52:02Z</time>
      </trkpt>
      <trkpt lat="49.1338" lon="1.96535">
        <ele>91.37</ele>
        <time>2018-02-18T13:52:22Z</time>
      </trkpt>
      <trkpt lat="49.1336" lon="1.96515">
        <ele>91.84</ele>
        <time>2018-02-18T13:52:41Z</time>
      </trkpt>
      <trkpt lat="49.13342" lon="1.96497">
        <ele>91.14</ele>
        <time>2018-02-18T13:52:58Z</time>
      </trkpt>
      <trkpt lat="49.13335" lon="1.9649">
        <ele>91.59</ele>
        <time>2018-02-18T13:53:05Z</time>
      </trkpt>
      <trkpt lat="49.13314" lon="1.96471">
        <ele>91.39</ele>
        <time>2018-02-18T13:53:24Z</time>
      </trkpt>
      <trkpt lat="49.13298" lon="1.96452">
        <ele>91.04</ele>
        <time>2018-02-18T13:53:40Z</time>
      </trkpt>
      <trkpt lat="49.13281" lon="1.96437">
        <ele>91.1</ele>
        <time>2018-02-18T13:53:56Z</time>
      </trkpt>
      <trkpt lat="49.13264" lon="1.96418">
        <ele>91.33</ele>
        <time>2018-02-18T13:54:14Z</time>
      </trkpt>
      <trkpt lat="49.13249" lon="1.96403">
        <ele>91.6</ele>
        <time>2018-02-18T13:54:29Z</time>
      </trkpt>
      <trkpt lat="49.1323" lon="1.96382">
        <ele>92.21</ele>
        <time>2018-02-18T13:54:49Z</time>
      </trkpt>
      <trkpt lat="49.13218" lon="1.96365">
        <ele>92.2</ele>
        <time>2018-02-18T13:55:04Z</time>
      </trkpt>
      <trkpt lat="49.13215" lon="1.96362">
        <ele>92.64</ele>
        <time>2018-02-18T13:55:07Z</time>
      </trkpt>
      <trkpt lat="49.13206" lon="1.96351">
        <ele>92.93</ele>
        <time>2018-02-18T13:55:18Z</time>
      </trkpt>
      <trkpt lat="49.13191" lon="1.96334">
        <ele>92.49</ele>
        <time>2018-02-18T13:55:35Z</time>
      </trkpt>
      <trkpt lat="49.13178" lon="1.96314">
        <ele>92.01</ele>
        <time>2018-02-18T13:55:49Z</time>
      </trkpt>
      <trkpt lat="49.13174" lon="1.9631">
        <ele>91.57</ele>
        <time>2018-02-18T13:55:53Z</time>
      </trkpt>
      <trkpt lat="49.13157" lon="1.96287">
        <ele>90.86</ele>
        <time>2018-02-18T13:56:12Z</time>
      </trkpt>
      <trkpt lat="49.1314" lon="1.96263">
        <ele>90.46</ele>
        <time>2018-02-18T13:56:32Z</time>
      </trkpt>
      <trkpt lat="49.13124" lon="1.96236">
        <ele>89.17</ele>
        <time>2018-02-18T13:56:50Z</time>
      </trkpt>
      <trkpt lat="49.13113" lon="1.96215">
        <ele>89.16</ele>
        <time>2018-02-18T13:57:06Z</time>
      </trkpt>
      <trkpt lat="49.13101" lon="1.96195">
        <ele>89.41</ele>
        <time>2018-02-18T13:57:20Z</time>
      </trkpt>
      <trkpt lat="49.13088" lon="1.96168">
        <ele>89.52</ele>
        <time>2018-02-18T13:57:36Z</time>
      </trkpt>
      <trkpt lat="49.13079" lon="1.96146">
        <ele>89.52</ele>
        <time>2018-02-18T13:57:49Z</time>
      </trkpt>
      <trkpt lat="49.13066" lon="1.96122">
        <ele>89.46</ele>
        <time>2018-02-18T13:58:05Z</time>
      </trkpt>
      <trkpt lat="49.13057" lon="1.96105">
        <ele>88.7</ele>
        <time>2018-02-18T13:58:19Z</time>
      </trkpt>
      <trkpt lat="49.1305" lon="1.96095">
        <ele>88.78</ele>
        <time>2018-02-18T13:58:31Z</time>
      </trkpt>
      <trkpt lat="49.13037" lon="1.96072">
        <ele>87.94</ele>
        <time>2018-02-18T13:58:47Z</time>
      </trkpt>
      <trkpt lat="49.13026" lon="1.96057">
        <ele>87.96</ele>
        <time>2018-02-18T13:59:01Z</time>
      </trkpt>
      <trkpt lat="49.13016" lon="1.96075">
        <ele>88.18</ele>
        <time>2018-02-18T13:59:16Z</time>
      </trkpt>
      <trkpt lat="49.13009" lon="1.96091">
        <ele>87.64</ele>
        <time>2018-02-18T13:59:26Z</time>
      </trkpt>
      <trkpt lat="49.12998" lon="1.9611">
        <ele>87.22</ele>
        <time>2018-02-18T13:59:40Z</time>
      </trkpt>
      <trkpt lat="49.12983" lon="1.96134">
        <ele>86.98</ele>
        <time>2018-02-18T13:59:57Z</time>
      </trkpt>
      <trkpt lat="49.12969" lon="1.96153">
        <ele>86.62</ele>
        <time>2018-02-18T14:00:13Z</time>
      </trkpt>
      <trkpt lat="49.12957" lon="1.96172">
        <ele>86.19</ele>
        <time>2018-02-18T14:00:28Z</time>
      </trkpt>
      <trkpt lat="49.12942" lon="1.96192">
        <ele>85.78</ele>
        <time>2018-02-18T14:00:45Z</time>
      </trkpt>
      <trkpt lat="49.1293" lon="1.9621">
        <ele>85</ele>
        <time>2018-02-18T14:00:59Z</time>
      </trkpt>
      <trkpt lat="49.12916" lon="1.96232">
        <ele>84.59</ele>
        <time>2018-02-18T14:01:17Z</time>
      </trkpt>
      <trkpt lat="49.12907" lon="1.9625">
        <ele>84.55</ele>
        <time>2018-02-18T14:01:33Z</time>
      </trkpt>
      <trkpt lat="49.12901" lon="1.96256">
        <ele>84.79</ele>
        <time>2018-02-18T14:01:51Z</time>
      </trkpt>
      <trkpt lat="49.12901" lon="1.96257">
        <ele>84.6</ele>
        <time>2018-02-18T14:01:52Z</time>
      </trkpt>
      <trkpt lat="49.12896" lon="1.96261">
        <ele>84.87</ele>
        <time>2018-02-18T14:01:57Z</time>
      </trkpt>
      <trkpt lat="49.12893" lon="1.96265">
        <ele>84.73</ele>
        <time>2018-02-18T14:02:03Z</time>
      </trkpt>
      <trkpt lat="49.12886" lon="1.96278">
        <ele>84.25</ele>
        <time>2018-02-18T14:02:13Z</time>
      </trkpt>
      <trkpt lat="49.1288" lon="1.96288">
        <ele>84.23</ele>
        <time>2018-02-18T14:02:23Z</time>
      </trkpt>
      <trkpt lat="49.12875" lon="1.96293">
        <ele>84.36</ele>
        <time>2018-02-18T14:02:29Z</time>
      </trkpt>
      <trkpt lat="49.12869" lon="1.96298">
        <ele>83.68</ele>
        <time>2018-02-18T14:02:37Z</time>
      </trkpt>
      <trkpt lat="49.12859" lon="1.96287">
        <ele>83.79</ele>
        <time>2018-02-18T14:02:51Z</time>
      </trkpt>
      <trkpt lat="49.1285" lon="1.96264">
        <ele>83.81</ele>
        <time>2018-02-18T14:03:07Z</time>
      </trkpt>
      <trkpt lat="49.12841" lon="1.96245">
        <ele>84.34</ele>
        <time>2018-02-18T14:03:21Z</time>
      </trkpt>
      <trkpt lat="49.12831" lon="1.96226">
        <ele>84.5</ele>
        <time>2018-02-18T14:03:35Z</time>
      </trkpt>
      <trkpt lat="49.12827" lon="1.96216">
        <ele>84.09</ele>
        <time>2018-02-18T14:03:42Z</time>
      </trkpt>
      <trkpt lat="49.12818" lon="1.96202">
        <ele>84.67</ele>
        <time>2018-02-18T14:03:53Z</time>
      </trkpt>
      <trkpt lat="49.12812" lon="1.96189">
        <ele>84.4</ele>
        <time>2018-02-18T14:04:02Z</time>
      </trkpt>
      <trkpt lat="49.128" lon="1.96164">
        <ele>83.91</ele>
        <time>2018-02-18T14:04:19Z</time>
      </trkpt>
      <trkpt lat="49.12798" lon="1.9616">
        <ele>84.35</ele>
        <time>2018-02-18T14:04:22Z</time>
      </trkpt>
      <trkpt lat="49.12791" lon="1.96137">
        <ele>84.12</ele>
        <time>2018-02-18T14:04:39Z</time>
      </trkpt>
      <trkpt lat="49.12782" lon="1.96127">
        <ele>84.12</ele>
        <time>2018-02-18T14:04:52Z</time>
      </trkpt>
      <trkpt lat="49.1278" lon="1.96122">
        <ele>84.24</ele>
        <time>2018-02-18T14:04:56Z</time>
      </trkpt>
      <trkpt lat="49.12773" lon="1.96107">
        <ele>84.16</ele>
        <time>2018-02-18T14:05:06Z</time>
      </trkpt>
      <trkpt lat="49.12764" lon="1.96088">
        <ele>83.84</ele>
        <time>2018-02-18T14:05:22Z</time>
      </trkpt>
      <trkpt lat="49.12758" lon="1.96075">
        <ele>84.4</ele>
        <time>2018-02-18T14:05:35Z</time>
      </trkpt>
      <trkpt lat="49.12755" lon="1.96071">
        <ele>84.11</ele>
        <time>2018-02-18T14:05:39Z</time>
      </trkpt>
      <trkpt lat="49.12745" lon="1.9605">
        <ele>83.36</ele>
        <time>2018-02-18T14:05:54Z</time>
      </trkpt>
      <trkpt lat="49.12734" lon="1.96027">
        <ele>84</ele>
        <time>2018-02-18T14:06:09Z</time>
      </trkpt>
      <trkpt lat="49.12724" lon="1.9601">
        <ele>84</ele>
        <time>2018-02-18T14:06:21Z</time>
      </trkpt>
      <trkpt lat="49.12721" lon="1.96006">
        <ele>83.34</ele>
        <time>2018-02-18T14:06:25Z</time>
      </trkpt>
      <trkpt lat="49.12714" lon="1.95993">
        <ele>82.81</ele>
        <time>2018-02-18T14:06:38Z</time>
      </trkpt>
      <trkpt lat="49.12703" lon="1.95976">
        <ele>82.43</ele>
        <time>2018-02-18T14:06:58Z</time>
      </trkpt>
      <trkpt lat="49.12691" lon="1.95951">
        <ele>82.99</ele>
        <time>2018-02-18T14:07:14Z</time>
      </trkpt>
      <trkpt lat="49.12681" lon="1.9593">
        <ele>82.77</ele>
        <time>2018-02-18T14:07:29Z</time>
      </trkpt>
      <trkpt lat="49.1267" lon="1.95908">
        <ele>81.46</ele>
        <time>2018-02-18T14:07:44Z</time>
      </trkpt>
      <trkpt lat="49.12661" lon="1.95884">
        <ele>81.52</ele>
        <time>2018-02-18T14:07:59Z</time>
      </trkpt>
      <trkpt lat="49.12651" lon="1.95865">
        <ele>81.37</ele>
        <time>2018-02-18T14:08:12Z</time>
      </trkpt>
      <trkpt lat="49.12646" lon="1.95856">
        <ele>81.49</ele>
        <time>2018-02-18T14:08:18Z</time>
      </trkpt>
      <trkpt lat="49.12632" lon="1.95824">
        <ele>80.86</ele>
        <time>2018-02-18T14:08:35Z</time>
      </trkpt>
      <trkpt lat="49.12623" lon="1.95792">
        <ele>80.49</ele>
        <time>2018-02-18T14:08:52Z</time>
      </trkpt>
      <trkpt lat="49.12622" lon="1.95785">
        <ele>80.73</ele>
        <time>2018-02-18T14:08:56Z</time>
      </trkpt>
      <trkpt lat="49.12619" lon="1.95782">
        <ele>79.42</ele>
        <time>2018-02-18T14:08:59Z</time>
      </trkpt>
      <trkpt lat="49.12616" lon="1.95784">
        <ele>79.36</ele>
        <time>2018-02-18T14:09:02Z</time>
      </trkpt>
      <trkpt lat="49.1261" lon="1.95807">
        <ele>78.72</ele>
        <time>2018-02-18T14:09:18Z</time>
      </trkpt>
      <trkpt lat="49.12605" lon="1.95834">
        <ele>76.45</ele>
        <time>2018-02-18T14:09:34Z</time>
      </trkpt>
      <trkpt lat="49.12605" lon="1.95844">
        <ele>75.7</ele>
        <time>2018-02-18T14:09:40Z</time>
      </trkpt>
      <trkpt lat="49.12608" lon="1.95874">
        <ele>75.63</ele>
        <time>2018-02-18T14:09:57Z</time>
      </trkpt>
      <trkpt lat="49.12608" lon="1.95896">
        <ele>75.19</ele>
        <time>2018-02-18T14:10:08Z</time>
      </trkpt>
      <trkpt lat="49.12609" lon="1.95901">
        <ele>74.93</ele>
        <time>2018-02-18T14:10:11Z</time>
      </trkpt>
      <trkpt lat="49.1261" lon="1.95918">
        <ele>75.52</ele>
        <time>2018-02-18T14:10:21Z</time>
      </trkpt>
      <trkpt lat="49.12615" lon="1.95952">
        <ele>74.22</ele>
        <time>2018-02-18T14:10:39Z</time>
      </trkpt>
      <trkpt lat="49.12621" lon="1.95977">
        <ele>74.2</ele>
        <time>2018-02-18T14:10:54Z</time>
      </trkpt>
      <trkpt lat="49.12625" lon="1.96006">
        <ele>74.43</ele>
        <time>2018-02-18T14:11:10Z</time>
      </trkpt>
      <trkpt lat="49.12629" lon="1.96031">
        <ele>74.2</ele>
        <time>2018-02-18T14:11:24Z</time>
      </trkpt>
      <trkpt lat="49.1263" lon="1.96057">
        <ele>73.82</ele>
        <time>2018-02-18T14:11:39Z</time>
      </trkpt>
      <trkpt lat="49.1263" lon="1.96074">
        <ele>73.96</ele>
        <time>2018-02-18T14:11:49Z</time>
      </trkpt>
      <trkpt lat="49.12625" lon="1.9609">
        <ele>74.57</ele>
        <time>2018-02-18T14:12:00Z</time>
      </trkpt>
      <trkpt lat="49.12622" lon="1.96094">
        <ele>74.68</ele>
        <time>2018-02-18T14:12:04Z</time>
      </trkpt>
      <trkpt lat="49.12613" lon="1.96095">
        <ele>74.78</ele>
        <time>2018-02-18T14:12:13Z</time>
      </trkpt>
      <trkpt lat="49.12607" lon="1.96088">
        <ele>75.95</ele>
        <time>2018-02-18T14:12:20Z</time>
      </trkpt>
      <trkpt lat="49.12602" lon="1.96081">
        <ele>75.41</ele>
        <time>2018-02-18T14:12:27Z</time>
      </trkpt>
      <trkpt lat="49.12587" lon="1.96064">
        <ele>75.6</ele>
        <time>2018-02-18T14:12:45Z</time>
      </trkpt>
      <trkpt lat="49.12575" lon="1.96054">
        <ele>76.33</ele>
        <time>2018-02-18T14:13:00Z</time>
      </trkpt>
      <trkpt lat="49.1256" lon="1.96041">
        <ele>77.63</ele>
        <time>2018-02-18T14:13:17Z</time>
      </trkpt>
      <trkpt lat="49.12544" lon="1.96033">
        <ele>78.96</ele>
        <time>2018-02-18T14:13:36Z</time>
      </trkpt>
      <trkpt lat="49.12536" lon="1.96024">
        <ele>79.38</ele>
        <time>2018-02-18T14:13:44Z</time>
      </trkpt>
      <trkpt lat="49.12522" lon="1.96005">
        <ele>80.08</ele>
        <time>2018-02-18T14:14:02Z</time>
      </trkpt>
      <trkpt lat="49.12511" lon="1.95984">
        <ele>80.47</ele>
        <time>2018-02-18T14:14:19Z</time>
      </trkpt>
      <trkpt lat="49.12506" lon="1.95975">
        <ele>80.78</ele>
        <time>2018-02-18T14:14:25Z</time>
      </trkpt>
      <trkpt lat="49.12499" lon="1.95963">
        <ele>80.3</ele>
        <time>2018-02-18T14:14:34Z</time>
      </trkpt>
      <trkpt lat="49.12497" lon="1.9596">
        <ele>80.81</ele>
        <time>2018-02-18T14:14:36Z</time>
      </trkpt>
      <trkpt lat="49.12482" lon="1.95938">
        <ele>80.88</ele>
        <time>2018-02-18T14:14:53Z</time>
      </trkpt>
      <trkpt lat="49.12469" lon="1.9592">
        <ele>80.77</ele>
        <time>2018-02-18T14:15:08Z</time>
      </trkpt>
      <trkpt lat="49.12464" lon="1.95912">
        <ele>81.85</ele>
        <time>2018-02-18T14:15:14Z</time>
      </trkpt>
      <trkpt lat="49.1245" lon="1.95895">
        <ele>82.17</ele>
        <time>2018-02-18T14:15:30Z</time>
      </trkpt>
      <trkpt lat="49.12436" lon="1.95882">
        <ele>82.52</ele>
        <time>2018-02-18T14:15:45Z</time>
      </trkpt>
      <trkpt lat="49.12422" lon="1.95874">
        <ele>83.23</ele>
        <time>2018-02-18T14:16:00Z</time>
      </trkpt>
      <trkpt lat="49.1241" lon="1.95869">
        <ele>84.39</ele>
        <time>2018-02-18T14:16:12Z</time>
      </trkpt>
      <trkpt lat="49.12395" lon="1.9587">
        <ele>85.47</ele>
        <time>2018-02-18T14:16:26Z</time>
      </trkpt>
      <trkpt lat="49.12377" lon="1.95872">
        <ele>86.1</ele>
        <time>2018-02-18T14:16:42Z</time>
      </trkpt>
      <trkpt lat="49.12357" lon="1.95872">
        <ele>86.15</ele>
        <time>2018-02-18T14:16:59Z</time>
      </trkpt>
      <trkpt lat="49.12343" lon="1.9588">
        <ele>86.66</ele>
        <time>2018-02-18T14:17:12Z</time>
      </trkpt>
      <trkpt lat="49.12328" lon="1.95894">
        <ele>86.4</ele>
        <time>2018-02-18T14:17:25Z</time>
      </trkpt>
      <trkpt lat="49.12313" lon="1.95909">
        <ele>87.59</ele>
        <time>2018-02-18T14:17:41Z</time>
      </trkpt>
      <trkpt lat="49.12297" lon="1.95923">
        <ele>87.42</ele>
        <time>2018-02-18T14:17:55Z</time>
      </trkpt>
      <trkpt lat="49.12282" lon="1.95936">
        <ele>86.43</ele>
        <time>2018-02-18T14:18:10Z</time>
      </trkpt>
      <trkpt lat="49.12268" lon="1.95949">
        <ele>86.22</ele>
        <time>2018-02-18T14:18:22Z</time>
      </trkpt>
      <trkpt lat="49.12251" lon="1.9596">
        <ele>84.85</ele>
        <time>2018-02-18T14:18:36Z</time>
      </trkpt>
      <trkpt lat="49.12249" lon="1.95962">
        <ele>84.47</ele>
        <time>2018-02-18T14:18:38Z</time>
      </trkpt>
      <trkpt lat="49.12235" lon="1.9597">
        <ele>83.98</ele>
        <time>2018-02-18T14:18:51Z</time>
      </trkpt>
      <trkpt lat="49.12218" lon="1.95986">
        <ele>82.01</ele>
        <time>2018-02-18T14:19:07Z</time>
      </trkpt>
      <trkpt lat="49.1221" lon="1.95999">
        <ele>81.08</ele>
        <time>2018-02-18T14:19:17Z</time>
      </trkpt>
      <trkpt lat="49.122" lon="1.96024">
        <ele>80.02</ele>
        <time>2018-02-18T14:19:33Z</time>
      </trkpt>
      <trkpt lat="49.122" lon="1.96026">
        <ele>79.97</ele>
        <time>2018-02-18T14:19:34Z</time>
      </trkpt>
      <trkpt lat="49.12188" lon="1.96053">
        <ele>78.77</ele>
        <time>2018-02-18T14:19:52Z</time>
      </trkpt>
      <trkpt lat="49.12178" lon="1.96074">
        <ele>77.4</ele>
        <time>2018-02-18T14:20:05Z</time>
      </trkpt>
      <trkpt lat="49.1217" lon="1.96083">
        <ele>75.92</ele>
        <time>2018-02-18T14:20:20Z</time>
      </trkpt>
      <trkpt lat="49.12167" lon="1.9609">
        <ele>75.8</ele>
        <time>2018-02-18T14:20:41Z</time>
      </trkpt>
      <trkpt lat="49.12165" lon="1.96093">
        <ele>76.22</ele>
        <time>2018-02-18T14:20:44Z</time>
      </trkpt>
      <trkpt lat="49.12159" lon="1.96102">
        <ele>74.88</ele>
        <time>2018-02-18T14:20:51Z</time>
      </trkpt>
      <trkpt lat="49.12148" lon="1.96122">
        <ele>73.83</ele>
        <time>2018-02-18T14:21:07Z</time>
      </trkpt>
      <trkpt lat="49.12146" lon="1.96123">
        <ele>74.31</ele>
        <time>2018-02-18T14:21:33Z</time>
      </trkpt>
      <trkpt lat="49.12146" lon="1.96125">
        <ele>74.21</ele>
        <time>2018-02-18T14:22:10Z</time>
      </trkpt>
      <trkpt lat="49.12146" lon="1.96127">
        <ele>74.11</ele>
        <time>2018-02-18T14:22:39Z</time>
      </trkpt>
      <trkpt lat="49.12146" lon="1.96126">
        <ele>73.96</ele>
        <time>2018-02-18T14:23:10Z</time>
      </trkpt>
      <trkpt lat="49.12146" lon="1.96126">
        <ele>73.15</ele>
        <time>2018-02-18T14:23:43Z</time>
      </trkpt>
      <trkpt lat="49.12143" lon="1.96131">
        <ele>73.65</ele>
        <time>2018-02-18T14:24:04Z</time>
      </trkpt>
      <trkpt lat="49.12135" lon="1.96147">
        <ele>72.66</ele>
        <time>2018-02-18T14:24:20Z</time>
      </trkpt>
      <trkpt lat="49.12132" lon="1.96153">
        <ele>71.79</ele>
        <time>2018-02-18T14:24:25Z</time>
      </trkpt>
      <trkpt lat="49.12122" lon="1.9617">
        <ele>71.89</ele>
        <time>2018-02-18T14:24:42Z</time>
      </trkpt>
      <trkpt lat="49.12119" lon="1.96177">
        <ele>70.58</ele>
        <time>2018-02-18T14:24:49Z</time>
      </trkpt>
      <trkpt lat="49.12117" lon="1.96181">
        <ele>70.51</ele>
        <time>2018-02-18T14:24:52Z</time>
      </trkpt>
      <trkpt lat="49.12107" lon="1.962">
        <ele>68.66</ele>
        <time>2018-02-18T14:25:11Z</time>
      </trkpt>
      <trkpt lat="49.12099" lon="1.96221">
        <ele>67.06</ele>
        <time>2018-02-18T14:25:31Z</time>
      </trkpt>
      <trkpt lat="49.12092" lon="1.96242">
        <ele>64.98</ele>
        <time>2018-02-18T14:25:50Z</time>
      </trkpt>
      <trkpt lat="49.12088" lon="1.96262">
        <ele>62.07</ele>
        <time>2018-02-18T14:26:10Z</time>
      </trkpt>
      <trkpt lat="49.12081" lon="1.96285">
        <ele>59.28</ele>
        <time>2018-02-18T14:26:28Z</time>
      </trkpt>
      <trkpt lat="49.12075" lon="1.96318">
        <ele>57.02</ele>
        <time>2018-02-18T14:26:49Z</time>
      </trkpt>
      <trkpt lat="49.12073" lon="1.96345">
        <ele>54.32</ele>
        <time>2018-02-18T14:27:07Z</time>
      </trkpt>
      <trkpt lat="49.12073" lon="1.96374">
        <ele>51.31</ele>
        <time>2018-02-18T14:27:30Z</time>
      </trkpt>
      <trkpt lat="49.12072" lon="1.96379">
        <ele>51.03</ele>
        <time>2018-02-18T14:27:33Z</time>
      </trkpt>
      <trkpt lat="49.12073" lon="1.96401">
        <ele>49.98</ele>
        <time>2018-02-18T14:27:47Z</time>
      </trkpt>
      <trkpt lat="49.12079" lon="1.96423">
        <ele>48.55</ele>
        <time>2018-02-18T14:28:04Z</time>
      </trkpt>
      <trkpt lat="49.12084" lon="1.96445">
        <ele>47.81</ele>
        <time>2018-02-18T14:28:22Z</time>
      </trkpt>
      <trkpt lat="49.12086" lon="1.96471">
        <ele>46.67</ele>
        <time>2018-02-18T14:28:40Z</time>
      </trkpt>
      <trkpt lat="49.1208" lon="1.96496">
        <ele>46.23</ele>
        <time>2018-02-18T14:28:57Z</time>
      </trkpt>
      <trkpt lat="49.12077" lon="1.96501">
        <ele>46.21</ele>
        <time>2018-02-18T14:29:02Z</time>
      </trkpt>
      <trkpt lat="49.12061" lon="1.96516">
        <ele>45.3</ele>
        <time>2018-02-18T14:29:22Z</time>
      </trkpt>
      <trkpt lat="49.12041" lon="1.96529">
        <ele>44.56</ele>
        <time>2018-02-18T14:29:41Z</time>
      </trkpt>
      <trkpt lat="49.12032" lon="1.96537">
        <ele>45.07</ele>
        <time>2018-02-18T14:29:59Z</time>
      </trkpt>
      <trkpt lat="49.12016" lon="1.96541">
        <ele>45.33</ele>
        <time>2018-02-18T14:30:17Z</time>
      </trkpt>
      <trkpt lat="49.11998" lon="1.96537">
        <ele>46</ele>
        <time>2018-02-18T14:30:34Z</time>
      </trkpt>
      <trkpt lat="49.11979" lon="1.96527">
        <ele>49.44</ele>
        <time>2018-02-18T14:30:56Z</time>
      </trkpt>
      <trkpt lat="49.11975" lon="1.9652">
        <ele>49.66</ele>
        <time>2018-02-18T14:31:02Z</time>
      </trkpt>
      <trkpt lat="49.11964" lon="1.96512">
        <ele>52.47</ele>
        <time>2018-02-18T14:31:20Z</time>
      </trkpt>
      <trkpt lat="49.1195" lon="1.96491">
        <ele>55.48</ele>
        <time>2018-02-18T14:31:41Z</time>
      </trkpt>
      <trkpt lat="49.11939" lon="1.96478">
        <ele>57.62</ele>
        <time>2018-02-18T14:32:00Z</time>
      </trkpt>
      <trkpt lat="49.11935" lon="1.96474">
        <ele>58.62</ele>
        <time>2018-02-18T14:32:09Z</time>
      </trkpt>
      <trkpt lat="49.11922" lon="1.9646">
        <ele>61.65</ele>
        <time>2018-02-18T14:32:30Z</time>
      </trkpt>
      <trkpt lat="49.1191" lon="1.96453">
        <ele>64.4</ele>
        <time>2018-02-18T14:32:48Z</time>
      </trkpt>
      <trkpt lat="49.11898" lon="1.96437">
        <ele>65.87</ele>
        <time>2018-02-18T14:33:06Z</time>
      </trkpt>
      <trkpt lat="49.11881" lon="1.96424">
        <ele>67.55</ele>
        <time>2018-02-18T14:33:24Z</time>
      </trkpt>
      <trkpt lat="49.11865" lon="1.96421">
        <ele>68.77</ele>
        <time>2018-02-18T14:33:42Z</time>
      </trkpt>
      <trkpt lat="49.11846" lon="1.96427">
        <ele>69.23</ele>
        <time>2018-02-18T14:34:00Z</time>
      </trkpt>
      <trkpt lat="49.11838" lon="1.96426">
        <ele>69.16</ele>
        <time>2018-02-18T14:34:08Z</time>
      </trkpt>
      <trkpt lat="49.11819" lon="1.96432">
        <ele>69.46</ele>
        <time>2018-02-18T14:34:26Z</time>
      </trkpt>
      <trkpt lat="49.11805" lon="1.96433">
        <ele>69.33</ele>
        <time>2018-02-18T14:34:44Z</time>
      </trkpt>
      <trkpt lat="49.11788" lon="1.96435">
        <ele>68.88</ele>
        <time>2018-02-18T14:35:02Z</time>
      </trkpt>
      <trkpt lat="49.11775" lon="1.96435">
        <ele>68.11</ele>
        <time>2018-02-18T14:35:14Z</time>
      </trkpt>
      <trkpt lat="49.11756" lon="1.96435">
        <ele>67.56</ele>
        <time>2018-02-18T14:35:31Z</time>
      </trkpt>
      <trkpt lat="49.11751" lon="1.96434">
        <ele>67.65</ele>
        <time>2018-02-18T14:35:35Z</time>
      </trkpt>
      <trkpt lat="49.11736" lon="1.96434">
        <ele>66.3</ele>
        <time>2018-02-18T14:35:48Z</time>
      </trkpt>
      <trkpt lat="49.11718" lon="1.96441">
        <ele>64.31</ele>
        <time>2018-02-18T14:36:06Z</time>
      </trkpt>
      <trkpt lat="49.11701" lon="1.96443">
        <ele>62.71</ele>
        <time>2018-02-18T14:36:25Z</time>
      </trkpt>
      <trkpt lat="49.11685" lon="1.96441">
        <ele>60.15</ele>
        <time>2018-02-18T14:36:40Z</time>
      </trkpt>
      <trkpt lat="49.11672" lon="1.96431">
        <ele>58.03</ele>
        <time>2018-02-18T14:36:55Z</time>
      </trkpt>
      <trkpt lat="49.11658" lon="1.96414">
        <ele>55.61</ele>
        <time>2018-02-18T14:37:15Z</time>
      </trkpt>
      <trkpt lat="49.11647" lon="1.96405">
        <ele>55.04</ele>
        <time>2018-02-18T14:37:24Z</time>
      </trkpt>
      <trkpt lat="49.11632" lon="1.96396">
        <ele>54.17</ele>
        <time>2018-02-18T14:37:39Z</time>
      </trkpt>
      <trkpt lat="49.11617" lon="1.96389">
        <ele>54.54</ele>
        <time>2018-02-18T14:37:51Z</time>
      </trkpt>
      <trkpt lat="49.11602" lon="1.96378">
        <ele>54.25</ele>
        <time>2018-02-18T14:38:06Z</time>
      </trkpt>
      <trkpt lat="49.11588" lon="1.9637">
        <ele>54.94</ele>
        <time>2018-02-18T14:38:21Z</time>
      </trkpt>
      <trkpt lat="49.11572" lon="1.96361">
        <ele>54.88</ele>
        <time>2018-02-18T14:38:39Z</time>
      </trkpt>
      <trkpt lat="49.11555" lon="1.96358">
        <ele>55.09</ele>
        <time>2018-02-18T14:38:57Z</time>
      </trkpt>
      <trkpt lat="49.11554" lon="1.96357">
        <ele>55.66</ele>
        <time>2018-02-18T14:38:58Z</time>
      </trkpt>
      <trkpt lat="49.11551" lon="1.96356">
        <ele>55.85</ele>
        <time>2018-02-18T14:39:00Z</time>
      </trkpt>
      <trkpt lat="49.11548" lon="1.96356">
        <ele>55.47</ele>
        <time>2018-02-18T14:39:03Z</time>
      </trkpt>
      <trkpt lat="49.11529" lon="1.96357">
        <ele>55.8</ele>
        <time>2018-02-18T14:39:19Z</time>
      </trkpt>
      <trkpt lat="49.11516" lon="1.9636">
        <ele>54.59</ele>
        <time>2018-02-18T14:39:31Z</time>
      </trkpt>
      <trkpt lat="49.11503" lon="1.9637">
        <ele>53.7</ele>
        <time>2018-02-18T14:39:46Z</time>
      </trkpt>
      <trkpt lat="49.11497" lon="1.96374">
        <ele>53.24</ele>
        <time>2018-02-18T14:39:51Z</time>
      </trkpt>
      <trkpt lat="49.1148" lon="1.96398">
        <ele>51.38</ele>
        <time>2018-02-18T14:40:08Z</time>
      </trkpt>
      <trkpt lat="49.11469" lon="1.96413">
        <ele>51.24</ele>
        <time>2018-02-18T14:40:21Z</time>
      </trkpt>
      <trkpt lat="49.11457" lon="1.96435">
        <ele>49.93</ele>
        <time>2018-02-18T14:40:37Z</time>
      </trkpt>
      <trkpt lat="49.11445" lon="1.96457">
        <ele>48.8</ele>
        <time>2018-02-18T14:40:52Z</time>
      </trkpt>
      <trkpt lat="49.11437" lon="1.96471">
        <ele>49.06</ele>
        <time>2018-02-18T14:41:01Z</time>
      </trkpt>
      <trkpt lat="49.11426" lon="1.9649">
        <ele>47.43</ele>
        <time>2018-02-18T14:41:14Z</time>
      </trkpt>
      <trkpt lat="49.11415" lon="1.96513">
        <ele>46.91</ele>
        <time>2018-02-18T14:41:29Z</time>
      </trkpt>
      <trkpt lat="49.11405" lon="1.96534">
        <ele>46.32</ele>
        <time>2018-02-18T14:41:43Z</time>
      </trkpt>
      <trkpt lat="49.11395" lon="1.96555">
        <ele>45.43</ele>
        <time>2018-02-18T14:41:57Z</time>
      </trkpt>
      <trkpt lat="49.11391" lon="1.96566">
        <ele>44.23</ele>
        <time>2018-02-18T14:42:05Z</time>
      </trkpt>
      <trkpt lat="49.11383" lon="1.96582">
        <ele>43.29</ele>
        <time>2018-02-18T14:42:20Z</time>
      </trkpt>
      <trkpt lat="49.11382" lon="1.96585">
        <ele>43.48</ele>
        <time>2018-02-18T14:42:22Z</time>
      </trkpt>
      <trkpt lat="49.11364" lon="1.96603">
        <ele>42.66</ele>
        <time>2018-02-18T14:42:39Z</time>
      </trkpt>
      <trkpt lat="49.11361" lon="1.96605">
        <ele>41.17</ele>
        <time>2018-02-18T14:42:42Z</time>
      </trkpt>
      <trkpt lat="49.11349" lon="1.9661">
        <ele>39.74</ele>
        <time>2018-02-18T14:42:57Z</time>
      </trkpt>
      <trkpt lat="49.11338" lon="1.96596">
        <ele>38.41</ele>
        <time>2018-02-18T14:43:12Z</time>
      </trkpt>
      <trkpt lat="49.11332" lon="1.96577">
        <ele>37.44</ele>
        <time>2018-02-18T14:43:26Z</time>
      </trkpt>
      <trkpt lat="49.11331" lon="1.96573">
        <ele>36.64</ele>
        <time>2018-02-18T14:43:29Z</time>
      </trkpt>
      <trkpt lat="49.1133" lon="1.96563">
        <ele>36.64</ele>
        <time>2018-02-18T14:43:35Z</time>
      </trkpt>
      <trkpt lat="49.11326" lon="1.96539">
        <ele>35.15</ele>
        <time>2018-02-18T14:43:48Z</time>
      </trkpt>
      <trkpt lat="49.1132" lon="1.96516">
        <ele>34.32</ele>
        <time>2018-02-18T14:44:02Z</time>
      </trkpt>
      <trkpt lat="49.11317" lon="1.96491">
        <ele>33.16</ele>
        <time>2018-02-18T14:44:16Z</time>
      </trkpt>
      <trkpt lat="49.11312" lon="1.9647">
        <ele>33.45</ele>
        <time>2018-02-18T14:44:28Z</time>
      </trkpt>
      <trkpt lat="49.1131" lon="1.96464">
        <ele>32.6</ele>
        <time>2018-02-18T14:44:32Z</time>
      </trkpt>
      <trkpt lat="49.11304" lon="1.9644">
        <ele>32.57</ele>
        <time>2018-02-18T14:44:46Z</time>
      </trkpt>
      <trkpt lat="49.113" lon="1.96424">
        <ele>32.14</ele>
        <time>2018-02-18T14:44:57Z</time>
      </trkpt>
      <trkpt lat="49.11301" lon="1.9641">
        <ele>32.58</ele>
        <time>2018-02-18T14:45:19Z</time>
      </trkpt>
      <trkpt lat="49.11299" lon="1.96401">
        <ele>31.19</ele>
        <time>2018-02-18T14:45:46Z</time>
      </trkpt>
      <trkpt lat="49.11296" lon="1.96391">
        <ele>31</ele>
        <time>2018-02-18T14:45:52Z</time>
      </trkpt>
      <trkpt lat="49.11287" lon="1.96371">
        <ele>31.8</ele>
        <time>2018-02-18T14:46:08Z</time>
      </trkpt>
      <trkpt lat="49.11281" lon="1.96359">
        <ele>32.3</ele>
        <time>2018-02-18T14:46:21Z</time>
      </trkpt>
      <trkpt lat="49.11277" lon="1.96359">
        <ele>32.55</ele>
        <time>2018-02-18T14:46:24Z</time>
      </trkpt>
      <trkpt lat="49.11264" lon="1.96365">
        <ele>32.63</ele>
        <time>2018-02-18T14:46:40Z</time>
      </trkpt>
      <trkpt lat="49.1125" lon="1.96376">
        <ele>32.92</ele>
        <time>2018-02-18T14:46:56Z</time>
      </trkpt>
      <trkpt lat="49.11243" lon="1.96381">
        <ele>32.43</ele>
        <time>2018-02-18T14:47:02Z</time>
      </trkpt>
      <trkpt lat="49.11236" lon="1.96388">
        <ele>33.18</ele>
        <time>2018-02-18T14:47:09Z</time>
      </trkpt>
      <trkpt lat="49.11215" lon="1.96397">
        <ele>33.78</ele>
        <time>2018-02-18T14:47:26Z</time>
      </trkpt>
      <trkpt lat="49.11205" lon="1.96398">
        <ele>33.85</ele>
        <time>2018-02-18T14:47:35Z</time>
      </trkpt>
      <trkpt lat="49.11187" lon="1.9639">
        <ele>34.51</ele>
        <time>2018-02-18T14:47:51Z</time>
      </trkpt>
      <trkpt lat="49.11186" lon="1.9639">
        <ele>34.63</ele>
        <time>2018-02-18T14:47:52Z</time>
      </trkpt>
      <trkpt lat="49.11183" lon="1.96389">
        <ele>34.15</ele>
        <time>2018-02-18T14:47:55Z</time>
      </trkpt>
      <trkpt lat="49.11167" lon="1.96376">
        <ele>35.27</ele>
        <time>2018-02-18T14:48:12Z</time>
      </trkpt>
      <trkpt lat="49.11163" lon="1.96373">
        <ele>35.25</ele>
        <time>2018-02-18T14:48:16Z</time>
      </trkpt>
      <trkpt lat="49.11156" lon="1.96369">
        <ele>35.57</ele>
        <time>2018-02-18T14:48:25Z</time>
      </trkpt>
      <trkpt lat="49.11141" lon="1.96363">
        <ele>36.28</ele>
        <time>2018-02-18T14:48:40Z</time>
      </trkpt>
      <trkpt lat="49.11136" lon="1.96361">
        <ele>37.21</ele>
        <time>2018-02-18T14:48:45Z</time>
      </trkpt>
      <trkpt lat="49.11127" lon="1.9636">
        <ele>37.31</ele>
        <time>2018-02-18T14:48:53Z</time>
      </trkpt>
      <trkpt lat="49.11126" lon="1.96359">
        <ele>37.28</ele>
        <time>2018-02-18T14:48:55Z</time>
      </trkpt>
      <trkpt lat="49.11117" lon="1.96356">
        <ele>37.93</ele>
        <time>2018-02-18T14:49:02Z</time>
      </trkpt>
      <trkpt lat="49.111" lon="1.96353">
        <ele>39.94</ele>
        <time>2018-02-18T14:49:16Z</time>
      </trkpt>
      <trkpt lat="49.11095" lon="1.96354">
        <ele>39.37</ele>
        <time>2018-02-18T14:49:19Z</time>
      </trkpt>
      <trkpt lat="49.11072" lon="1.96362">
        <ele>39.97</ele>
        <time>2018-02-18T14:49:37Z</time>
      </trkpt>
      <trkpt lat="49.1107" lon="1.96362">
        <ele>39.91</ele>
        <time>2018-02-18T14:49:39Z</time>
      </trkpt>
      <trkpt lat="49.11055" lon="1.96368">
        <ele>40.57</ele>
        <time>2018-02-18T14:49:53Z</time>
      </trkpt>
      <trkpt lat="49.11041" lon="1.96372">
        <ele>41.68</ele>
        <time>2018-02-18T14:50:05Z</time>
      </trkpt>
      <trkpt lat="49.11036" lon="1.96374">
        <ele>42.53</ele>
        <time>2018-02-18T14:50:09Z</time>
      </trkpt>
      <trkpt lat="49.11016" lon="1.96375">
        <ele>42.75</ele>
        <time>2018-02-18T14:50:26Z</time>
      </trkpt>
      <trkpt lat="49.11008" lon="1.96376">
        <ele>43.08</ele>
        <time>2018-02-18T14:50:34Z</time>
      </trkpt>
      <trkpt lat="49.1099" lon="1.96377">
        <ele>42.94</ele>
        <time>2018-02-18T14:50:48Z</time>
      </trkpt>
      <trkpt lat="49.10978" lon="1.96378">
        <ele>42.92</ele>
        <time>2018-02-18T14:51:03Z</time>
      </trkpt>
      <trkpt lat="49.10973" lon="1.96379">
        <ele>42.98</ele>
        <time>2018-02-18T14:51:15Z</time>
      </trkpt>
      <trkpt lat="49.10973" lon="1.96378">
        <ele>44.28</ele>
        <time>2018-02-18T14:51:17Z</time>
      </trkpt>
      <trkpt lat="49.10958" lon="1.96383">
        <ele>42.89</ele>
        <time>2018-02-18T14:51:33Z</time>
      </trkpt>
      <trkpt lat="49.10955" lon="1.96385">
        <ele>43.56</ele>
        <time>2018-02-18T14:51:41Z</time>
      </trkpt>
      <trkpt lat="49.10953" lon="1.96387">
        <ele>43.81</ele>
        <time>2018-02-18T14:51:46Z</time>
      </trkpt>
      <trkpt lat="49.10949" lon="1.96386">
        <ele>42.33</ele>
        <time>2018-02-18T14:52:00Z</time>
      </trkpt>
      <trkpt lat="49.10948" lon="1.96387">
        <ele>42.63</ele>
        <time>2018-02-18T14:52:01Z</time>
      </trkpt>
      <trkpt lat="49.10936" lon="1.96388">
        <ele>42.95</ele>
        <time>2018-02-18T14:52:13Z</time>
      </trkpt>
      <trkpt lat="49.1093" lon="1.96391">
        <ele>42.37</ele>
        <time>2018-02-18T14:52:21Z</time>
      </trkpt>
      <trkpt lat="49.10914" lon="1.96396">
        <ele>42.2</ele>
        <time>2018-02-18T14:52:37Z</time>
      </trkpt>
      <trkpt lat="49.1091" lon="1.96398">
        <ele>42.53</ele>
        <time>2018-02-18T14:52:51Z</time>
      </trkpt>
      <trkpt lat="49.10909" lon="1.96397">
        <ele>42.89</ele>
        <time>2018-02-18T14:53:02Z</time>
      </trkpt>
      <trkpt lat="49.10904" lon="1.96401">
        <ele>43.08</ele>
        <time>2018-02-18T14:53:08Z</time>
      </trkpt>
      <trkpt lat="49.10898" lon="1.96402">
        <ele>42.48</ele>
        <time>2018-02-18T14:53:14Z</time>
      </trkpt>
      <trkpt lat="49.10885" lon="1.96403">
        <ele>42.9</ele>
        <time>2018-02-18T14:53:28Z</time>
      </trkpt>
      <trkpt lat="49.10866" lon="1.96402">
        <ele>40.71</ele>
        <time>2018-02-18T14:53:45Z</time>
      </trkpt>
      <trkpt lat="49.10847" lon="1.96402">
        <ele>40.39</ele>
        <time>2018-02-18T14:54:01Z</time>
      </trkpt>
      <trkpt lat="49.10824" lon="1.96402">
        <ele>39.66</ele>
        <time>2018-02-18T14:54:18Z</time>
      </trkpt>
      <trkpt lat="49.10823" lon="1.96402">
        <ele>39.5</ele>
        <time>2018-02-18T14:54:19Z</time>
      </trkpt>
      <trkpt lat="49.10809" lon="1.96404">
        <ele>40.19</ele>
        <time>2018-02-18T14:54:30Z</time>
      </trkpt>
      <trkpt lat="49.10799" lon="1.96405">
        <ele>40.3</ele>
        <time>2018-02-18T14:54:37Z</time>
      </trkpt>
      <trkpt lat="49.10781" lon="1.96404">
        <ele>39.94</ele>
        <time>2018-02-18T14:54:52Z</time>
      </trkpt>
      <trkpt lat="49.10762" lon="1.96408">
        <ele>40.87</ele>
        <time>2018-02-18T14:55:08Z</time>
      </trkpt>
      <trkpt lat="49.10745" lon="1.96415">
        <ele>40.86</ele>
        <time>2018-02-18T14:55:23Z</time>
      </trkpt>
      <trkpt lat="49.10726" lon="1.96422">
        <ele>41.78</ele>
        <time>2018-02-18T14:55:40Z</time>
      </trkpt>
      <trkpt lat="49.10708" lon="1.96429">
        <ele>42.22</ele>
        <time>2018-02-18T14:55:55Z</time>
      </trkpt>
      <trkpt lat="49.10689" lon="1.96436">
        <ele>42.16</ele>
        <time>2018-02-18T14:56:11Z</time>
      </trkpt>
      <trkpt lat="49.10672" lon="1.96445">
        <ele>41.96</ele>
        <time>2018-02-18T14:56:25Z</time>
      </trkpt>
      <trkpt lat="49.10663" lon="1.96449">
        <ele>42.14</ele>
        <time>2018-02-18T14:56:33Z</time>
      </trkpt>
      <trkpt lat="49.10646" lon="1.96457">
        <ele>42.63</ele>
        <time>2018-02-18T14:56:48Z</time>
      </trkpt>
      <trkpt lat="49.10627" lon="1.96467">
        <ele>42.58</ele>
        <time>2018-02-18T14:57:05Z</time>
      </trkpt>
      <trkpt lat="49.10609" lon="1.96475">
        <ele>43.43</ele>
        <time>2018-02-18T14:57:21Z</time>
      </trkpt>
      <trkpt lat="49.10591" lon="1.96482">
        <ele>43.64</ele>
        <time>2018-02-18T14:57:37Z</time>
      </trkpt>
      <trkpt lat="49.1059" lon="1.96483">
        <ele>43.44</ele>
        <time>2018-02-18T14:57:38Z</time>
      </trkpt>
      <trkpt lat="49.10571" lon="1.96493">
        <ele>43.46</ele>
        <time>2018-02-18T14:57:54Z</time>
      </trkpt>
      <trkpt lat="49.10552" lon="1.965">
        <ele>43.76</ele>
        <time>2018-02-18T14:58:10Z</time>
      </trkpt>
      <trkpt lat="49.10538" lon="1.96507">
        <ele>44.02</ele>
        <time>2018-02-18T14:58:23Z</time>
      </trkpt>
      <trkpt lat="49.10536" lon="1.96507">
        <ele>43.93</ele>
        <time>2018-02-18T14:58:25Z</time>
      </trkpt>
      <trkpt lat="49.10533" lon="1.96509">
        <ele>44.51</ele>
        <time>2018-02-18T14:58:28Z</time>
      </trkpt>
      <trkpt lat="49.10516" lon="1.96517">
        <ele>44.81</ele>
        <time>2018-02-18T14:58:43Z</time>
      </trkpt>
      <trkpt lat="49.10503" lon="1.96523">
        <ele>44.88</ele>
        <time>2018-02-18T14:58:56Z</time>
      </trkpt>
      <trkpt lat="49.10487" lon="1.96537">
        <ele>45.43</ele>
        <time>2018-02-18T14:59:11Z</time>
      </trkpt>
      <trkpt lat="49.10464" lon="1.96547">
        <ele>44.55</ele>
        <time>2018-02-18T14:59:28Z</time>
      </trkpt>
      <trkpt lat="49.10463" lon="1.96548">
        <ele>44.72</ele>
        <time>2018-02-18T14:59:29Z</time>
      </trkpt>
      <trkpt lat="49.10451" lon="1.96558">
        <ele>44.12</ele>
        <time>2018-02-18T14:59:40Z</time>
      </trkpt>
      <trkpt lat="49.10429" lon="1.96576">
        <ele>43.45</ele>
        <time>2018-02-18T15:00:00Z</time>
      </trkpt>
      <trkpt lat="49.10412" lon="1.96589">
        <ele>43.11</ele>
        <time>2018-02-18T15:00:16Z</time>
      </trkpt>
      <trkpt lat="49.10397" lon="1.96599">
        <ele>43.54</ele>
        <time>2018-02-18T15:00:30Z</time>
      </trkpt>
      <trkpt lat="49.10395" lon="1.966">
        <ele>43.4</ele>
        <time>2018-02-18T15:00:32Z</time>
      </trkpt>
      <trkpt lat="49.10375" lon="1.96606">
        <ele>42.75</ele>
        <time>2018-02-18T15:00:49Z</time>
      </trkpt>
      <trkpt lat="49.10369" lon="1.96607">
        <ele>42.61</ele>
        <time>2018-02-18T15:00:54Z</time>
      </trkpt>
      <trkpt lat="49.10351" lon="1.96612">
        <ele>42.68</ele>
        <time>2018-02-18T15:01:07Z</time>
      </trkpt>
      <trkpt lat="49.10336" lon="1.96615">
        <ele>42.37</ele>
        <time>2018-02-18T15:01:19Z</time>
      </trkpt>
      <trkpt lat="49.1033" lon="1.96617">
        <ele>42.36</ele>
        <time>2018-02-18T15:01:25Z</time>
      </trkpt>
      <trkpt lat="49.10322" lon="1.96617">
        <ele>41.92</ele>
        <time>2018-02-18T15:01:31Z</time>
      </trkpt>
      <trkpt lat="49.10303" lon="1.96619">
        <ele>41.72</ele>
        <time>2018-02-18T15:01:46Z</time>
      </trkpt>
      <trkpt lat="49.10288" lon="1.96621">
        <ele>41.01</ele>
        <time>2018-02-18T15:02:01Z</time>
      </trkpt>
      <trkpt lat="49.10269" lon="1.96623">
        <ele>41.46</ele>
        <time>2018-02-18T15:02:15Z</time>
      </trkpt>
      <trkpt lat="49.10256" lon="1.96624">
        <ele>42.2</ele>
        <time>2018-02-18T15:02:26Z</time>
      </trkpt>
      <trkpt lat="49.10245" lon="1.96627">
        <ele>42.88</ele>
        <time>2018-02-18T15:02:35Z</time>
      </trkpt>
      <trkpt lat="49.1023" lon="1.96631">
        <ele>43.31</ele>
        <time>2018-02-18T15:02:49Z</time>
      </trkpt>
      <trkpt lat="49.10218" lon="1.96635">
        <ele>43.13</ele>
        <time>2018-02-18T15:03:00Z</time>
      </trkpt>
      <trkpt lat="49.10203" lon="1.96636">
        <ele>43.43</ele>
        <time>2018-02-18T15:03:12Z</time>
      </trkpt>
      <trkpt lat="49.10201" lon="1.96637">
        <ele>43.42</ele>
        <time>2018-02-18T15:03:14Z</time>
      </trkpt>
      <trkpt lat="49.10193" lon="1.96639">
        <ele>43.55</ele>
        <time>2018-02-18T15:03:27Z</time>
      </trkpt>
      <trkpt lat="49.10186" lon="1.96642">
        <ele>43.78</ele>
        <time>2018-02-18T15:03:38Z</time>
      </trkpt>
      <trkpt lat="49.10184" lon="1.96644">
        <ele>43.77</ele>
        <time>2018-02-18T15:03:40Z</time>
      </trkpt>
      <trkpt lat="49.10177" lon="1.96645">
        <ele>43.59</ele>
        <time>2018-02-18T15:03:45Z</time>
      </trkpt>
      <trkpt lat="49.10158" lon="1.96645">
        <ele>45.43</ele>
        <time>2018-02-18T15:04:04Z</time>
      </trkpt>
      <trkpt lat="49.10155" lon="1.96647">
        <ele>45.57</ele>
        <time>2018-02-18T15:04:08Z</time>
      </trkpt>
      <trkpt lat="49.10152" lon="1.9665">
        <ele>44.94</ele>
        <time>2018-02-18T15:04:11Z</time>
      </trkpt>
      <trkpt lat="49.10144" lon="1.96655">
        <ele>44.71</ele>
        <time>2018-02-18T15:04:18Z</time>
      </trkpt>
      <trkpt lat="49.10141" lon="1.96654">
        <ele>44.29</ele>
        <time>2018-02-18T15:04:20Z</time>
      </trkpt>
      <trkpt lat="49.10129" lon="1.96662">
        <ele>45.87</ele>
        <time>2018-02-18T15:04:32Z</time>
      </trkpt>
      <trkpt lat="49.10126" lon="1.96664">
        <ele>45.82</ele>
        <time>2018-02-18T15:04:36Z</time>
      </trkpt>
      <trkpt lat="49.10113" lon="1.96673">
        <ele>46.48</ele>
        <time>2018-02-18T15:04:52Z</time>
      </trkpt>
      <trkpt lat="49.10102" lon="1.96683">
        <ele>47.94</ele>
        <time>2018-02-18T15:05:08Z</time>
      </trkpt>
      <trkpt lat="49.10099" lon="1.96686">
        <ele>47.84</ele>
        <time>2018-02-18T15:05:12Z</time>
      </trkpt>
      <trkpt lat="49.10086" lon="1.96697">
        <ele>48.58</ele>
        <time>2018-02-18T15:05:29Z</time>
      </trkpt>
      <trkpt lat="49.10074" lon="1.96704">
        <ele>49.1</ele>
        <time>2018-02-18T15:05:43Z</time>
      </trkpt>
      <trkpt lat="49.10062" lon="1.96715">
        <ele>49.64</ele>
        <time>2018-02-18T15:05:57Z</time>
      </trkpt>
      <trkpt lat="49.10059" lon="1.96717">
        <ele>50.12</ele>
        <time>2018-02-18T15:06:00Z</time>
      </trkpt>
      <trkpt lat="49.10058" lon="1.96719">
        <ele>50.38</ele>
        <time>2018-02-18T15:06:02Z</time>
      </trkpt>
      <trkpt lat="49.10051" lon="1.96727">
        <ele>50.21</ele>
        <time>2018-02-18T15:06:08Z</time>
      </trkpt>
      <trkpt lat="49.10047" lon="1.96734">
        <ele>50.01</ele>
        <time>2018-02-18T15:06:15Z</time>
      </trkpt>
      <trkpt lat="49.10038" lon="1.96742">
        <ele>49.91</ele>
        <time>2018-02-18T15:06:23Z</time>
      </trkpt>
      <trkpt lat="49.10024" lon="1.96754">
        <ele>50.08</ele>
        <time>2018-02-18T15:06:38Z</time>
      </trkpt>
      <trkpt lat="49.10018" lon="1.96763">
        <ele>49.78</ele>
        <time>2018-02-18T15:06:46Z</time>
      </trkpt>
      <trkpt lat="49.10017" lon="1.96776">
        <ele>48.63</ele>
        <time>2018-02-18T15:06:55Z</time>
      </trkpt>
      <trkpt lat="49.10015" lon="1.96797">
        <ele>46.87</ele>
        <time>2018-02-18T15:07:06Z</time>
      </trkpt>
      <trkpt lat="49.10013" lon="1.96809">
        <ele>46.32</ele>
        <time>2018-02-18T15:07:12Z</time>
      </trkpt>
      <trkpt lat="49.10013" lon="1.96822">
        <ele>45.06</ele>
        <time>2018-02-18T15:07:20Z</time>
      </trkpt>
      <trkpt lat="49.10014" lon="1.96826">
        <ele>44.85</ele>
        <time>2018-02-18T15:07:23Z</time>
      </trkpt>
      <trkpt lat="49.10014" lon="1.96832">
        <ele>44.27</ele>
        <time>2018-02-18T15:07:26Z</time>
      </trkpt>
      <trkpt lat="49.10015" lon="1.96835">
        <ele>44.12</ele>
        <time>2018-02-18T15:07:28Z</time>
      </trkpt>
      <trkpt lat="49.1003" lon="1.9685">
        <ele>42.83</ele>
        <time>2018-02-18T15:07:41Z</time>
      </trkpt>
      <trkpt lat="49.10036" lon="1.96858">
        <ele>41.35</ele>
        <time>2018-02-18T15:07:47Z</time>
      </trkpt>
      <trkpt lat="49.10038" lon="1.96865">
        <ele>42.48</ele>
        <time>2018-02-18T15:07:51Z</time>
      </trkpt>
      <trkpt lat="49.10042" lon="1.9688">
        <ele>40.63</ele>
        <time>2018-02-18T15:07:59Z</time>
      </trkpt>
      <trkpt lat="49.10046" lon="1.96895">
        <ele>39.79</ele>
        <time>2018-02-18T15:08:08Z</time>
      </trkpt>
      <trkpt lat="49.10053" lon="1.96921">
        <ele>38.18</ele>
        <time>2018-02-18T15:08:25Z</time>
      </trkpt>
      <trkpt lat="49.10054" lon="1.96928">
        <ele>38.32</ele>
        <time>2018-02-18T15:08:29Z</time>
      </trkpt>
      <trkpt lat="49.10048" lon="1.96944">
        <ele>38.07</ele>
        <time>2018-02-18T15:08:40Z</time>
      </trkpt>
      <trkpt lat="49.10044" lon="1.96966">
        <ele>37.35</ele>
        <time>2018-02-18T15:08:55Z</time>
      </trkpt>
      <trkpt lat="49.10027" lon="1.96976">
        <ele>37.74</ele>
        <time>2018-02-18T15:09:11Z</time>
      </trkpt>
      <trkpt lat="49.10023" lon="1.96978">
        <ele>37.88</ele>
        <time>2018-02-18T15:09:15Z</time>
      </trkpt>
      <trkpt lat="49.10012" lon="1.96987">
        <ele>36.91</ele>
        <time>2018-02-18T15:09:28Z</time>
      </trkpt>
      <trkpt lat="49.10009" lon="1.96995">
        <ele>36.95</ele>
        <time>2018-02-18T15:09:34Z</time>
      </trkpt>
      <trkpt lat="49.10006" lon="1.97013">
        <ele>36.77</ele>
        <time>2018-02-18T15:09:46Z</time>
      </trkpt>
      <trkpt lat="49.10002" lon="1.97024">
        <ele>37.47</ele>
        <time>2018-02-18T15:09:55Z</time>
      </trkpt>
      <trkpt lat="49.09986" lon="1.97033">
        <ele>37.21</ele>
        <time>2018-02-18T15:10:11Z</time>
      </trkpt>
      <trkpt lat="49.09971" lon="1.97042">
        <ele>37.46</ele>
        <time>2018-02-18T15:10:26Z</time>
      </trkpt>
      <trkpt lat="49.09969" lon="1.97049">
        <ele>37.15</ele>
        <time>2018-02-18T15:10:43Z</time>
      </trkpt>
      <trkpt lat="49.09967" lon="1.9706">
        <ele>37.54</ele>
        <time>2018-02-18T15:11:04Z</time>
      </trkpt>
      <trkpt lat="49.09965" lon="1.97061">
        <ele>37.32</ele>
        <time>2018-02-18T15:11:22Z</time>
      </trkpt>
    </trkseg>
  </trk>
</gpx>